[[{"header":{"parameterUnit":"m.s-1","parameterCategory":1,"la1":31.0,"la2":29.5877,"lo1":-88.7671,"lo2":-86.6584,"dy":0.0162,"dx":0.0185,"nx":115,"ny":88,"refTime":"2023-04-13T12:00:00:Z","depth":0,"parameterNumber":2,"parameterNumberName":"U-component_of_WINDS"},"data":[0.0,0.0,0.0,0.0,0.0,0.0,0.0,0.0,0.0,0.0,0.0,0.0,0.0,0.0,0.0,0.0,0.0,0.0,0.0,0.0,0.0,0.0,0.0,0.0,0.0,0.0,0.0,0.0,0.0,0.0,0.0,0.0,0.0,0.0,0.0,0.0,0.0,0.0,0.0,0.0,0.0,0.0,0.0,0.0,0.0,0.0,0.0,0.0,0.0,0.0,0.0,0.0,0.0,0.0,0.0,0.0,0.0,0.0,0.0,0.0,0.0,0.0,0.0,0.0,0.0,0.0,0.0,0.0,0.0,0.0,0.0,0.0,0.0,0.0,0.0,0.0,0.0,0.0,0.0,0.0,0.0,0.0,0.0,0.0,0.0,0.0,0.0,0.0,0.0,0.0,0.0,0.0,0.0,0.0,0.0,0.0,0.0,0.0,0.0,0.0,0.0,0.0,0.0,0.0,0.0,0.0,0.0,0.0,0.0,0.0,0.0,0.0,0.0,0.0,0.0,0.0,0.0,0.0,0.0,0.0,0.0,0.0,0.0,0.0,0.0,0.0,0.0,0.0,0.0,0.0,0.0,0.0,0.0,0.0,0.0,0.0,0.0,0.0,0.0,0.0,0.0,0.0,0.0,0.0,0.0,0.0,0.0,0.0,0.0,0.0,0.0,0.0,0.0,0.0,0.0,0.0,0.0,0.0,0.0,0.0,0.0,0.0,0.0,0.0,0.0,0.0,0.0,0.0,0.0,0.0,0.0,0.0,0.0,0.0,0.0,0.0,0.0,0.0,0.0,0.0,0.0,0.0,0.0,0.0,0.0,0.0,0.0,0.0,0.0,0.0,0.0,0.0,0.0,0.0,0.0,0.0,0.0,0.0,0.0,0.0,0.0,0.0,0.0,0.0,0.0,0.0,0.0,0.0,0.0,0.0,0.0,0.0,0.0,0.0,0.0,0.0,0.0,0.0,0.0,0.0,0.0,0.0,0.0,0.0,0.0,0.0,0.0,0.0,0.0,0.0,0.0,0.0,0.0,0.0,0.0,0.0,0.0,0.0,0.0,0.0,0.0,0.0,0.0,0.0,0.0,0.0,0.0,0.0,0.0,0.0,0.0,0.0,0.0,0.0,0.0,0.0,0.0,0.0,0.0,0.0,0.0,0.0,0.0,0.0,0.0,0.0,0.0,0.0,0.0,0.0,0.0,0.0,0.0,0.0,0.0,0.0,0.0,0.0,0.0,0.0,0.0,0.0,0.0,0.0,0.0,0.0,0.0,0.0,0.0,0.0,0.0,0.0,0.0,0.0,0.0,0.0,0.0,0.0,0.0,0.0,0.0,0.0,0.0,0.0,0.0,0.0,0.0,0.0,0.0,0.0,0.0,0.0,0.0,0.0,0.0,0.0,0.0,0.0,0.0,0.0,0.0,0.0,0.0,0.0,0.0,0.0,0.0,0.0,0.0,0.0,0.0,0.0,0.0,0.0,0.0,0.0,0.0,0.0,0.0,0.0,0.0,0.0,0.0,0.0,0.0,0.0,0.0,0.0,0.0,0.0,0.0,0.0,0.0,0.0,0.0,0.0,0.0,0.0,0.0,0.0,0.0,0.0,0.0,0.0,0.0,0.0,0.0,0.0,0.0,0.0,0.0,0.0,0.0,0.0,0.0,0.0,0.0,0.0,0.0,0.0,0.0,0.0,0.0,0.0,0.0,0.0,0.0,0.0,0.0,0.0,0.0,0.0,0.0,0.0,0.0,0.0,0.0,0.0,0.0,0.0,0.0,0.0,0.0,0.0,0.0,0.0,0.0,0.0,0.0,0.0,0.0,0.0,0.0,0.0,0.0,0.0,0.0,0.0,0.0,0.0,0.0,0.0,0.0,0.0,0.0,0.0,0.0,0.0,0.0,0.0,0.0,0.0,0.0,0.0,0.0,0.0,0.0,0.0,0.0,0.0,0.0,0.0,0.0,0.0,0.0,0.0,0.0,0.0,0.0,0.0,0.0,0.0,0.0,0.0,0.0,0.0,0.0,0.0,0.0,0.0,0.0,0.0,0.0,0.0,0.0,0.0,0.0,0.0,0.0,0.0,0.0,0.0,0.0,0.0,0.0,0.0,0.0,0.0,0.0,0.0,0.0,0.0,0.0,0.0,0.0,0.0,0.0,0.0,0.0,0.0,0.0,0.0,0.0,0.0,0.0,0.0,0.0,0.0,0.0,0.0,0.0,0.0,0.0,0.0,0.0,0.0,0.0,0.0,0.0,0.0,0.0,0.0,0.0,0.0,0.0,0.0,0.0,0.0,0.0,0.0,0.0,0.0,0.0,0.0,0.0,0.0,0.0,0.0,0.0,0.0,0.0,0.0,0.0,0.0,0.0,0.0,0.0,0.0,0.0,0.0,0.0,0.0,0.0,0.0,0.0,0.0,0.0,0.0,0.0,0.0,0.0,0.0,0.0,0.0,0.0,0.0,0.0,0.0,0.0,0.0,0.0,0.0,0.0,0.0,0.0,0.0,0.0,0.0,0.0,0.0,0.0,0.0,0.0,0.0,0.0,0.0,0.0,0.0,0.0,0.0,0.0,0.0,0.0,0.0,0.0,0.0,0.0,0.0,0.0,0.0,0.0,0.0,0.0,0.0,0.0,0.0,0.0,0.0,0.0,0.0,0.0,0.0,0.0,0.0,0.0,0.0,0.0,0.0,0.0,0.0,0.0,0.0,0.0,0.0,0.0,0.0,0.0,0.0,0.0,0.0,0.0,0.0,0.0,0.0,0.0,0.0,0.0,0.0,0.0,0.0,0.0,0.0,0.0,0.0,0.0,0.0,0.0,0.0,0.0,0.0,0.0,0.0,0.0,0.0,0.0,0.0,0.0,0.0,0.0,0.0,0.0,0.0,0.0,0.0,0.0,0.0,0.0,0.0,0.0,0.0,0.0,0.0,0.0,0.0,0.0,0.0,0.0,0.0,0.0,0.0,0.0,0.0,0.0,0.0,0.0,0.0,0.0,0.0,0.0,0.0,0.0,0.0,0.0,0.0,0.0,0.0,0.0,0.0,0.0,0.0,0.0,0.0,0.0,0.0,0.0,0.0,0.0,0.0,0.0,0.0,0.0,0.0,0.0,0.0,0.0,0.0,0.0,0.0,0.0,0.0,0.0,0.0,0.0,0.0,0.0,0.0,0.0,0.0,0.0,0.0,0.0,0.0,0.0,0.0,0.0,0.0,0.0,0.0,0.0,0.0,0.0,0.0,0.0,0.0,0.0,0.0,0.0,0.0,0.0,0.0,0.0,0.0,0.0,0.0,0.0,0.0,0.0,0.0,0.0,0.0,0.0,0.0,0.0,0.0,0.0,0.0,0.0,0.0,0.0,0.0,0.0,0.0,0.0,0.0,0.0,0.0,0.0,0.0,0.0,0.0,0.0,0.0,0.0,0.0,0.0,0.0,0.0,0.0,0.0,0.0,0.0,0.0,0.0,0.0,0.0,0.0,0.0,0.0,0.0,0.0,0.0,0.0,0.0,0.0,0.0,0.0,0.0,0.0,0.0,0.0,0.0,0.0,0.0,0.0,0.0,0.0,0.0,0.0,0.0,0.0,0.0,0.0,0.0,0.0,0.0,0.0,0.0,0.0,0.0,0.0,0.0,0.0,0.0,0.0,0.0,0.0,0.0,0.0,0.0,0.0,0.0,0.0,0.0,0.0,0.0,0.0,0.0,0.0,0.0,0.0,0.0,0.0,0.0,0.0,0.0,0.0,0.0,0.0,0.0,0.0,0.0,0.0,0.0,0.0,0.0,0.0,0.0,0.0,0.0,0.0,0.0,0.0,0.0,0.0,0.0,0.0,0.0,0.0,0.0,0.0,0.0,0.0,0.0,0.0,0.0,0.0,0.0,0.0,0.0,0.0,0.0,0.0,0.0,0.0,0.0,0.0,0.0,0.0,0.0,0.0,0.0,0.0,0.0,0.0,0.0,0.0,0.0,0.0,0.0,0.0,0.0,0.0,0.0,0.0,0.0,0.0,0.0,0.0,0.0,0.0,0.0,0.0,0.0,0.0,0.0,0.0,0.0,0.0,0.0,0.0,0.0,0.0,0.0,0.0,0.0,0.0,0.0,0.0,0.0,0.0,0.0,0.0,0.0,0.0,0.0,0.0,0.0,0.0,0.0,0.0,0.0,0.0,0.0,0.0,0.0,0.0,0.0,0.0,0.0,0.0,0.0,0.0,0.0,0.0,0.0,0.0,0.0,0.0,0.0,0.0,0.0,0.0,0.0,0.0,0.0,0.0,3.9817,0.0,0.0,0.0,0.0,0.0,0.0,0.0,0.0,0.0,0.0,0.0,0.0,0.0,0.0,0.0,0.0,0.0,0.0,0.0,0.0,0.0,0.0,0.0,0.0,0.0,0.0,0.0,0.0,0.0,0.0,0.0,0.0,0.0,0.0,0.0,0.0,0.0,0.0,0.0,0.0,0.0,0.0,0.0,0.0,0.0,0.0,0.0,0.0,0.0,0.0,0.0,0.0,0.0,0.0,0.0,0.0,0.0,0.0,0.0,0.0,0.0,0.0,0.0,0.0,0.0,0.0,0.0,0.0,0.0,0.0,0.0,0.0,0.0,0.0,0.0,0.0,0.0,0.0,0.0,0.0,0.0,0.0,0.0,0.0,0.0,0.0,0.0,0.0,0.0,0.0,0.0,0.0,0.0,0.0,0.0,0.0,0.0,0.0,0.0,0.0,0.0,0.0,0.0,0.0,0.0,0.0,0.0,0.0,0.0,0.0,4.1441,4.1779,4.1407,4.1035,4.0663,0.0,0.0,0.0,0.0,0.0,0.0,0.0,0.0,0.0,0.0,0.0,0.0,0.0,0.0,0.0,0.0,0.0,0.0,0.0,0.0,0.0,0.0,0.0,0.0,0.0,0.0,0.0,0.0,0.0,0.0,0.0,0.0,0.0,0.0,0.0,0.0,0.0,0.0,0.0,0.0,0.0,0.0,0.0,0.0,0.0,0.0,0.0,0.0,0.0,0.0,0.0,0.0,0.0,0.0,0.0,0.0,0.0,0.0,0.0,0.0,0.0,0.0,0.0,0.0,0.0,0.0,0.0,0.0,0.0,0.0,0.0,0.0,0.0,0.0,0.0,0.0,0.0,0.0,0.0,0.0,0.0,0.0,0.0,0.0,0.0,0.0,0.0,0.0,0.0,0.0,0.0,0.0,0.0,0.0,0.0,0.0,0.0,0.0,0.0,0.0,0.0,0.0,0.0,0.0,0.0,0.0,0.0,0.0,0.0,0.0,0.0,0.0,4.2068,4.1594,4.1273,0.0,0.0,0.0,0.0,0.0,0.0,0.0,0.0,0.0,0.0,0.0,0.0,0.0,0.0,0.0,0.0,0.0,0.0,0.0,0.0,0.0,0.0,0.0,0.0,0.0,0.0,0.0,0.0,0.0,0.0,0.0,0.0,0.0,0.0,0.0,0.0,0.0,0.0,0.0,0.0,0.0,0.0,0.0,0.0,0.0,0.0,0.0,0.0,0.0,0.0,0.0,0.0,0.0,0.0,0.0,0.0,0.0,0.0,0.0,0.0,0.0,0.0,0.0,0.0,0.0,0.0,0.0,0.0,0.0,0.0,0.0,0.0,0.0,0.0,0.0,0.0,0.0,0.0,0.0,0.0,0.0,0.0,0.0,0.0,0.0,0.0,0.0,0.0,0.0,0.0,0.0,0.0,0.0,0.0,0.0,0.0,0.0,0.0,0.0,0.0,0.0,0.0,0.0,0.0,0.0,0.0,0.0,0.0,0.0,0.0,4.3301,4.3335,4.3376,0.0,4.1596,0.0,0.0,0.0,0.0,0.0,0.0,0.0,0.0,0.0,0.0,0.0,0.0,0.0,0.0,0.0,0.0,0.0,0.0,0.0,0.0,0.0,0.0,0.0,0.0,0.0,0.0,0.0,0.0,0.0,0.0,0.0,0.0,0.0,0.0,0.0,0.0,0.0,0.0,0.0,0.0,0.0,0.0,0.0,0.0,0.0,0.0,0.0,0.0,0.0,0.0,0.0,0.0,0.0,0.0,0.0,0.0,0.0,0.0,0.0,0.0,0.0,0.0,0.0,0.0,0.0,0.0,0.0,0.0,0.0,0.0,0.0,0.0,0.0,0.0,0.0,0.0,0.0,0.0,0.0,0.0,0.0,0.0,0.0,0.0,0.0,0.0,0.0,0.0,0.0,0.0,0.0,0.0,0.0,0.0,0.0,0.0,0.0,0.0,0.0,0.0,0.0,0.0,0.0,0.0,0.0,0.0,0.0,0.0,0.0,0.0,4.4245,4.4354,4.3557,4.262,0.0,0.0,0.0,0.0,0.0,0.0,0.0,0.0,0.0,0.0,0.0,0.0,0.0,0.0,0.0,0.0,0.0,0.0,0.0,0.0,0.0,0.0,0.0,0.0,0.0,0.0,0.0,0.0,0.0,0.0,0.0,0.0,0.0,0.0,0.0,0.0,0.0,0.0,0.0,0.0,0.0,0.0,0.0,0.0,0.0,0.0,0.0,0.0,0.0,0.0,0.0,0.0,0.0,0.0,0.0,0.0,0.0,0.0,0.0,0.0,0.0,0.0,0.0,0.0,0.0,0.0,0.0,0.0,0.0,0.0,0.0,0.0,0.0,0.0,0.0,0.0,0.0,0.0,0.0,0.0,0.0,0.0,0.0,0.0,0.0,0.0,0.0,0.0,0.0,0.0,0.0,0.0,0.0,0.0,0.0,0.0,0.0,0.0,0.0,0.0,0.0,0.0,0.0,0.0,0.0,0.0,0.0,0.0,0.0,0.0,4.4558,4.494,4.4981,4.3749,4.2775,4.2071,0.0,0.0,0.0,0.0,0.0,0.0,0.0,0.0,0.0,0.0,0.0,0.0,0.0,0.0,0.0,0.0,0.0,0.0,0.0,0.0,0.0,0.0,0.0,0.0,0.0,0.0,0.0,0.0,0.0,0.0,0.0,0.0,0.0,0.0,0.0,0.0,0.0,0.0,0.0,0.0,0.0,0.0,0.0,0.0,0.0,0.0,0.0,0.0,0.0,0.0,0.0,0.0,0.0,0.0,0.0,0.0,0.0,0.0,0.0,0.0,0.0,0.0,0.0,0.0,0.0,0.0,0.0,0.0,0.0,0.0,0.0,0.0,0.0,0.0,0.0,0.0,0.0,0.0,0.0,0.0,0.0,0.0,0.0,0.0,0.0,0.0,0.0,0.0,0.0,0.0,0.0,0.0,0.0,0.0,0.0,0.0,0.0,0.0,0.0,0.0,0.0,0.0,0.0,0.0,0.0,0.0,0.0,0.0,4.4892,4.4961,4.5069,4.5177,4.4456,4.3718,0.0,0.0,0.0,0.0,0.0,0.0,0.0,0.0,0.0,0.0,0.0,0.0,0.0,0.0,0.0,0.0,0.0,0.0,0.0,0.0,0.0,0.0,0.0,0.0,0.0,0.0,0.0,0.0,0.0,0.0,0.0,0.0,0.0,0.0,0.0,0.0,0.0,0.0,0.0,0.0,0.0,0.0,0.0,0.0,0.0,0.0,0.0,0.0,0.0,0.0,0.0,0.0,0.0,0.0,0.0,0.0,0.0,0.0,0.0,0.0,0.0,0.0,0.0,0.0,0.0,0.0,0.0,0.0,0.0,0.0,0.0,0.0,0.0,0.0,0.0,0.0,0.0,0.0,0.0,0.0,0.0,0.0,0.0,0.0,0.0,0.0,0.0,0.0,0.0,0.0,0.0,0.0,0.0,0.0,0.0,0.0,0.0,0.0,0.0,0.0,0.0,0.0,0.0,0.0,0.0,0.0,0.0,0.0,0.0,4.5089,4.5283,4.5371,4.5336,4.4716,4.3991,0.0,0.0,0.0,0.0,0.0,0.0,0.0,0.0,0.0,0.0,0.0,0.0,0.0,0.0,0.0,0.0,0.0,0.0,0.0,0.0,0.0,0.0,0.0,0.0,0.0,0.0,0.0,0.0,0.0,0.0,0.0,0.0,0.0,0.0,0.0,0.0,0.0,0.0,0.0,0.0,0.0,0.0,0.0,0.0,0.0,0.0,0.0,0.0,0.0,0.0,0.0,0.0,0.0,0.0,0.0,0.0,0.0,0.0,0.0,0.0,0.0,0.0,0.0,0.0,0.0,0.0,0.0,0.0,0.0,0.0,0.0,0.0,0.0,0.0,0.0,0.0,0.0,0.0,0.0,0.0,0.0,0.0,0.0,0.0,0.0,0.0,0.0,0.0,0.0,0.0,0.0,0.0,0.0,0.0,0.0,0.0,0.0,0.0,0.0,0.0,0.0,0.0,0.0,0.0,0.0,0.0,0.0,0.0,0.0,4.5336,0.0,4.5632,4.5494,4.5147,4.4489,0.0,0.0,0.0,0.0,0.0,0.0,0.0,0.0,0.0,0.0,0.0,0.0,0.0,0.0,0.0,0.0,0.0,0.0,0.0,0.0,0.0,0.0,0.0,0.0,0.0,0.0,0.0,0.0,0.0,0.0,0.0,0.0,0.0,0.0,0.0,0.0,0.0,0.0,0.0,0.0,0.0,0.0,0.0,0.0,0.0,0.0,0.0,0.0,0.0,0.0,0.0,0.0,0.0,0.0,0.0,0.0,0.0,0.0,0.0,0.0,0.0,0.0,0.0,0.0,0.0,0.0,0.0,0.0,0.0,0.0,0.0,0.0,0.0,0.0,0.0,0.0,0.0,0.0,0.0,0.0,0.0,0.0,0.0,0.0,0.0,0.0,0.0,0.0,0.0,0.0,0.0,0.0,0.0,0.0,0.0,0.0,0.0,0.0,0.0,0.0,0.0,0.0,0.0,0.0,0.0,0.0,0.0,0.0,4.5336,4.5581,4.5736,4.5803,4.5838,4.5803,4.5405,0.0,0.0,0.0,0.0,0.0,0.0,0.0,0.0,0.0,0.0,0.0,0.0,0.0,0.0,0.0,0.0,0.0,0.0,0.0,0.0,0.0,0.0,0.0,0.0,0.0,0.0,0.0,0.0,0.0,0.0,0.0,0.0,0.0,0.0,0.0,0.0,0.0,0.0,0.0,0.0,0.0,0.0,0.0,0.0,0.0,0.0,0.0,0.0,0.0,0.0,0.0,0.0,0.0,0.0,0.0,0.0,0.0,0.0,0.0,0.0,0.0,0.0,0.0,0.0,0.0,0.0,0.0,0.0,0.0,0.0,0.0,0.0,0.0,0.0,0.0,0.0,0.0,0.0,0.0,0.0,0.0,0.0,0.0,0.0,0.0,0.0,0.0,0.0,0.0,0.0,0.0,0.0,0.0,0.0,0.0,0.0,0.0,0.0,0.0,0.0,0.0,0.0,0.0,0.0,0.0,0.0,0.0,0.0,0.0,4.5905,4.6005,4.6105,4.6105,4.6055,4.5656,0.0,0.0,0.0,0.0,0.0,0.0,0.0,0.0,0.0,0.0,0.0,0.0,0.0,0.0,0.0,0.0,0.0,0.0,0.0,0.0,0.0,0.0,0.0,0.0,0.0,0.0,0.0,0.0,0.0,0.0,0.0,0.0,0.0,0.0,0.0,0.0,0.0,0.0,0.0,0.0,0.0,0.0,0.0,0.0,0.0,0.0,0.0,0.0,0.0,0.0,0.0,0.0,0.0,0.0,0.0,0.0,0.0,0.0,0.0,0.0,0.0,0.0,0.0,0.0,0.0,0.0,0.0,0.0,0.0,0.0,0.0,0.0,0.0,0.0,0.0,0.0,0.0,0.0,0.0,0.0,0.0,0.0,0.0,0.0,0.0,0.0,0.0,0.0,0.0,0.0,0.0,0.0,0.0,0.0,0.0,0.0,0.0,0.0,0.0,0.0,0.0,0.0,0.0,0.0,0.0,0.0,0.0,0.0,0.0,4.6301,4.635,4.635,4.635,4.6315,4.6055,4.5501,0.0,0.0,0.0,0.0,0.0,0.0,0.0,0.0,0.0,0.0,0.0,0.0,0.0,0.0,0.0,0.0,0.0,0.0,0.0,0.0,0.0,0.0,0.0,0.0,0.0,0.0,0.0,0.0,0.0,0.0,0.0,0.0,0.0,0.0,0.0,0.0,0.0,0.0,0.0,0.0,0.0,0.0,0.0,0.0,0.0,0.0,0.0,0.0,0.0,0.0,0.0,0.0,0.0,0.0,0.0,0.0,0.0,0.0,0.0,0.0,0.0,0.0,0.0,0.0,0.0,0.0,0.0,0.0,0.0,0.0,0.0,0.0,0.0,0.0,0.0,0.0,0.0,0.0,0.0,0.0,0.0,0.0,0.0,0.0,0.0,0.0,0.0,0.0,0.0,0.0,0.0,0.0,0.0,0.0,0.0,0.0,0.0,0.0,0.0,0.0,0.0,0.0,0.0,0.0,0.0,0.0,0.0,0.0,4.6813,4.6684,4.6637,4.6637,4.6637,4.659,0.0,0.0,0.0,0.0,0.0,0.0,0.0,0.0,0.0,0.0,0.0,0.0,0.0,0.0,0.0,0.0,0.0,0.0,0.0,0.0,0.0,0.0,0.0,0.0,0.0,0.0,0.0,0.0,0.0,0.0,0.0,0.0,0.0,0.0,0.0,0.0,0.0,0.0,0.0,0.0,0.0,0.0,0.0,0.0,0.0,0.0,0.0,0.0,0.0,0.0,0.0,0.0,0.0,0.0,0.0,0.0,0.0,0.0,0.0,0.0,0.0,0.0,0.0,0.0,0.0,0.0,0.0,0.0,0.0,0.0,0.0,0.0,0.0,0.0,0.0,0.0,0.0,0.0,0.0,0.0,0.0,0.0,0.0,0.0,0.0,0.0,0.0,0.0,0.0,0.0,0.0,0.0,0.0,0.0,0.0,0.0,0.0,0.0,0.0,0.0,0.0,0.0,0.0,0.0,0.0,0.0,0.0,0.0,0.0,4.6916,4.7053,4.7143,4.7107,4.7088,4.7043,0.0,0.0,0.0,0.0,0.0,0.0,0.0,0.0,0.0,0.0,0.0,0.0,0.0,0.0,0.0,0.0,0.0,0.0,0.0,0.0,0.0,0.0,0.0,0.0,0.0,0.0,0.0,0.0,0.0,0.0,0.0,0.0,0.0,0.0,0.0,0.0,0.0,0.0,0.0,0.0,0.0,0.0,0.0,0.0,0.0,0.0,0.0,0.0,0.0,0.0,0.0,0.0,0.0,0.0,0.0,0.0,0.0,0.0,0.0,0.0,0.0,0.0,0.0,0.0,0.0,0.0,0.0,0.0,0.0,0.0,0.0,0.0,0.0,0.0,0.0,0.0,0.0,0.0,0.0,0.0,0.0,0.0,0.0,0.0,0.0,0.0,0.0,0.0,0.0,0.0,0.0,0.0,0.0,0.0,0.0,0.0,0.0,0.0,0.0,0.0,0.0,0.0,0.0,0.0,0.0,0.0,0.0,0.0,4.687,4.7088,4.7276,4.7407,4.7572,4.7356,4.7267,0.0,0.0,0.0,0.0,0.0,0.0,0.0,0.0,0.0,0.0,0.0,0.0,0.0,0.0,0.0,0.0,0.0,0.0,0.0,0.0,0.0,0.0,0.0,0.0,0.0,0.0,0.0,0.0,0.0,0.0,0.0,0.0,0.0,0.0,0.0,0.0,0.0,0.0,0.0,0.0,0.0,0.0,0.0,0.0,0.0,0.0,0.0,0.0,0.0,0.0,0.0,0.0,0.0,0.0,0.0,0.0,0.0,0.0,0.0,0.0,0.0,0.0,0.0,0.0,0.0,0.0,0.0,0.0,0.0,0.0,0.0,0.0,0.0,0.0,0.0,0.0,0.0,0.0,0.0,0.0,0.0,0.0,0.0,0.0,0.0,0.0,0.0,0.0,0.0,0.0,0.0,0.0,0.0,0.0,0.0,0.0,0.0,0.0,0.0,0.0,0.0,0.0,0.0,0.0,0.0,0.0,0.0,0.0,4.7088,4.7223,4.7443,4.7657,4.7861,4.7529,4.7363,0.0,0.0,0.0,0.0,0.0,0.0,0.0,0.0,0.0,0.0,0.0,0.0,0.0,0.0,0.0,0.0,0.0,0.0,0.0,0.0,0.0,0.0,0.0,0.0,0.0,0.0,0.0,0.0,0.0,0.0,0.0,0.0,0.0,0.0,0.0,0.0,0.0,0.0,0.0,0.0,0.0,0.0,0.0,0.0,0.0,0.0,0.0,0.0,0.0,0.0,0.0,0.0,0.0,0.0,0.0,0.0,0.0,0.0,0.0,0.0,0.0,0.0,0.0,0.0,0.0,0.0,0.0,0.0,0.0,0.0,0.0,0.0,0.0,0.0,0.0,0.0,0.0,0.0,0.0,0.0,0.0,0.0,0.0,0.0,0.0,0.0,0.0,0.0,0.0,0.0,0.0,0.0,0.0,0.0,0.0,0.0,0.0,0.0,0.0,0.0,0.0,0.0,0.0,0.0,0.0,0.0,0.0,0.0,4.7267,4.7443,4.7657,4.7861,4.7902,4.7699,4.7657,0.0,0.0,0.0,0.0,0.0,0.0,0.0,0.0,0.0,0.0,0.0,0.0,0.0,0.0,0.0,0.0,0.0,0.0,0.0,0.0,0.0,0.0,0.0,0.0,0.0,0.0,0.0,0.0,0.0,0.0,0.0,0.0,0.0,0.0,0.0,0.0,0.0,0.0,0.0,0.0,0.0,0.0,0.0,0.0,0.0,0.0,0.0,0.0,4.7307,0.0,0.0,0.0,0.0,0.0,0.0,0.0,0.0,0.0,0.0,0.0,0.0,0.0,0.0,0.0,0.0,0.0,0.0,0.0,0.0,0.0,0.0,0.0,0.0,0.0,0.0,0.0,0.0,0.0,0.0,0.0,0.0,0.0,0.0,0.0,0.0,0.0,0.0,0.0,0.0,0.0,0.0,0.0,0.0,0.0,0.0,0.0,0.0,0.0,0.0,0.0,0.0,0.0,0.0,0.0,0.0,0.0,0.0,0.0,4.7623,4.8157,4.8363,4.867,4.9159,4.9034,4.881,0.0,0.0,0.0,0.0,0.0,0.0,0.0,0.0,0.0,0.0,0.0,0.0,0.0,0.0,0.0,0.0,0.0,0.0,0.0,0.0,0.0,0.0,0.0,0.0,0.0,0.0,0.0,0.0,0.0,0.0,0.0,0.0,0.0,0.0,0.0,0.0,0.0,0.0,0.0,0.0,0.0,0.0,0.0,0.0,0.0,0.0,0.0,0.0,0.0,0.0,0.0,0.0,0.0,0.0,0.0,0.0,0.0,0.0,0.0,0.0,0.0,0.0,0.0,0.0,0.0,0.0,0.0,0.0,0.0,0.0,0.0,0.0,0.0,0.0,0.0,0.0,0.0,0.0,0.0,0.0,0.0,0.0,0.0,0.0,0.0,0.0,0.0,0.0,0.0,0.0,0.0,0.0,0.0,0.0,0.0,0.0,0.0,0.0,0.0,0.0,0.0,0.0,0.0,0.0,0.0,0.0,0.0,4.7535,4.8157,4.9082,4.9247,4.97,5.0566,5.067,5.0295,4.9638,0.0,0.0,0.0,0.0,0.0,0.0,0.0,0.0,0.0,0.0,0.0,0.0,0.0,0.0,0.0,0.0,0.0,0.0,0.0,0.0,0.0,0.0,0.0,0.0,0.0,0.0,0.0,0.0,0.0,0.0,0.0,0.0,0.0,0.0,0.0,0.0,0.0,0.0,4.5391,4.6007,0.0,0.0,0.0,0.0,0.0,0.0,0.0,0.0,5.0011,0.0,0.0,0.0,0.0,0.0,0.0,0.0,0.0,0.0,0.0,0.0,0.0,0.0,0.0,0.0,0.0,0.0,0.0,0.0,0.0,0.0,0.0,0.0,0.0,0.0,0.0,0.0,0.0,0.0,0.0,0.0,0.0,0.0,0.0,0.0,0.0,0.0,0.0,0.0,0.0,0.0,0.0,0.0,0.0,0.0,0.0,0.0,0.0,0.0,0.0,0.0,0.0,0.0,0.0,0.0,0.0,4.8181,4.8371,4.8988,5.0039,5.0168,5.0331,5.0602,5.1344,5.1678,5.1532,0.0,0.0,0.0,0.0,0.0,0.0,0.0,0.0,0.0,0.0,0.0,0.0,0.0,0.0,0.0,0.0,0.0,0.0,0.0,0.0,0.0,0.0,0.0,0.0,0.0,0.0,0.0,0.0,0.0,0.0,0.0,0.0,0.0,0.0,0.0,0.0,0.0,0.0,0.0,4.792,4.8414,0.0,0.0,0.0,0.0,0.0,0.0,0.0,0.0,4.9942,0.0,0.0,0.0,0.0,0.0,0.0,0.0,0.0,0.0,0.0,0.0,0.0,0.0,0.0,0.0,0.0,0.0,0.0,0.0,0.0,0.0,0.0,0.0,0.0,0.0,0.0,0.0,0.0,0.0,0.0,0.0,0.0,0.0,0.0,0.0,0.0,0.0,0.0,0.0,0.0,0.0,0.0,0.0,0.0,0.0,0.0,0.0,0.0,0.0,0.0,0.0,0.0,0.0,0.0,0.0,4.9127,4.9422,4.9996,5.0933,5.1061,5.1365,5.193,5.2375,5.2637,0.0,0.0,0.0,0.0,0.0,0.0,0.0,0.0,0.0,0.0,0.0,0.0,0.0,0.0,0.0,0.0,0.0,0.0,0.0,0.0,0.0,0.0,0.0,0.0,0.0,0.0,0.0,0.0,0.0,0.0,0.0,0.0,0.0,0.0,0.0,0.0,0.0,0.0,0.0,0.0,4.8596,4.8976,4.939,0.0,0.0,0.0,0.0,0.0,0.0,5.1149,5.1149,0.0,0.0,0.0,0.0,0.0,0.0,0.0,0.0,0.0,0.0,0.0,0.0,0.0,0.0,0.0,0.0,0.0,0.0,0.0,0.0,0.0,0.0,0.0,0.0,0.0,0.0,0.0,0.0,0.0,0.0,0.0,0.0,0.0,0.0,0.0,0.0,0.0,0.0,0.0,0.0,0.0,0.0,0.0,0.0,0.0,0.0,0.0,0.0,0.0,0.0,0.0,0.0,0.0,0.0,0.0,5.0137,5.0431,5.1005,5.1864,5.1987,5.2517,5.3408,5.3445,5.3518,0.0,0.0,0.0,0.0,0.0,0.0,0.0,0.0,0.0,0.0,0.0,0.0,0.0,0.0,0.0,0.0,0.0,0.0,0.0,0.0,0.0,0.0,0.0,0.0,0.0,0.0,0.0,0.0,0.0,0.0,0.0,0.0,0.0,0.0,0.0,0.0,0.0,0.0,0.0,0.0,0.0,4.9321,5.0114,5.0218,0.0,0.0,0.0,0.0,5.2175,5.2278,0.0,0.0,0.0,0.0,0.0,0.0,0.0,0.0,0.0,0.0,0.0,0.0,0.0,0.0,0.0,0.0,0.0,0.0,0.0,0.0,0.0,0.0,0.0,0.0,0.0,0.0,0.0,0.0,0.0,0.0,0.0,0.0,0.0,0.0,0.0,0.0,0.0,0.0,0.0,0.0,0.0,0.0,0.0,0.0,0.0,0.0,0.0,0.0,0.0,0.0,0.0,0.0,0.0,0.0,0.0,0.0,5.1104,5.131,5.185,5.2754,5.2871,5.328,5.4252,5.4252,5.4583,0.0,0.0,0.0,0.0,0.0,0.0,0.0,0.0,0.0,0.0,0.0,0.0,0.0,0.0,0.0,0.0,0.0,0.0,0.0,0.0,0.0,0.0,0.0,0.0,0.0,0.0,0.0,0.0,0.0,0.0,0.0,0.0,0.0,0.0,0.0,0.0,0.0,0.0,0.0,0.0,0.0,5.0149,5.0873,5.1094,5.1453,0.0,0.0,5.2532,5.2458,5.2493,0.0,0.0,0.0,0.0,0.0,0.0,0.0,0.0,0.0,0.0,0.0,0.0,0.0,0.0,0.0,0.0,0.0,0.0,0.0,0.0,0.0,0.0,0.0,0.0,0.0,0.0,0.0,0.0,0.0,0.0,0.0,0.0,0.0,0.0,0.0,0.0,0.0,0.0,0.0,0.0,0.0,0.0,0.0,0.0,0.0,0.0,0.0,0.0,0.0,0.0,0.0,0.0,0.0,0.0,0.0,5.1185,5.2037,5.268,5.3259,5.3676,5.4202,5.4649,5.506,5.5097,5.5244,0.0,0.0,0.0,0.0,0.0,0.0,0.0,0.0,0.0,0.0,0.0,0.0,0.0,0.0,0.0,0.0,0.0,0.0,0.0,0.0,0.0,0.0,0.0,0.0,0.0,0.0,0.0,0.0,0.0,0.0,0.0,0.0,0.0,0.0,0.0,0.0,0.0,0.0,0.0,0.0,0.0,0.0,5.1928,5.2091,0.0,0.0,0.0,5.3495,5.3887,0.0,0.0,0.0,0.0,0.0,0.0,0.0,0.0,0.0,0.0,0.0,0.0,0.0,0.0,0.0,0.0,0.0,0.0,0.0,0.0,0.0,0.0,0.0,0.0,0.0,0.0,0.0,0.0,0.0,0.0,0.0,0.0,0.0,0.0,0.0,0.0,0.0,0.0,0.0,0.0,0.0,0.0,0.0,0.0,0.0,0.0,0.0,0.0,0.0,0.0,0.0,0.0,0.0,0.0,0.0,0.0,0.0,5.3008,5.3989,5.4517,5.4561,5.5236,5.5684,5.5904,5.5904,0.0,0.0,0.0,0.0,0.0,0.0,0.0,0.0,0.0,0.0,0.0,0.0,0.0,0.0,0.0,0.0,0.0,0.0,0.0,0.0,0.0,0.0,0.0,0.0,0.0,0.0,0.0,4.8853,0.0,0.0,0.0,0.0,0.0,0.0,0.0,0.0,0.0,0.0,0.0,0.0,0.0,0.0,5.2045,5.2927,5.3149,5.3498,0.0,0.0,5.4895,5.5567,5.5706,5.5583,0.0,0.0,0.0,0.0,0.0,0.0,0.0,0.0,0.0,0.0,0.0,0.0,0.0,0.0,0.0,0.0,0.0,0.0,0.0,0.0,0.0,0.0,0.0,0.0,0.0,0.0,0.0,0.0,0.0,0.0,0.0,0.0,0.0,0.0,0.0,0.0,0.0,0.0,0.0,0.0,0.0,0.0,0.0,0.0,0.0,0.0,0.0,0.0,0.0,0.0,0.0,0.0,0.0,0.0,0.0,5.4107,5.492,5.5367,5.55,5.5574,5.5941,5.6712,5.6712,5.7079,0.0,0.0,0.0,0.0,0.0,0.0,0.0,0.0,0.0,0.0,0.0,0.0,0.0,0.0,0.0,0.0,0.0,0.0,0.0,0.0,0.0,0.0,0.0,0.0,0.0,0.0,0.0,0.0,0.0,0.0,0.0,0.0,0.0,0.0,0.0,0.0,0.0,0.0,0.0,0.0,0.0,5.3137,5.3871,5.4244,5.5036,0.0,0.0,5.6951,5.7509,5.7526,5.7339,5.7178,0.0,0.0,0.0,0.0,0.0,0.0,0.0,0.0,0.0,0.0,0.0,0.0,0.0,0.0,0.0,0.0,0.0,0.0,0.0,0.0,0.0,0.0,0.0,0.0,0.0,0.0,0.0,0.0,0.0,0.0,0.0,0.0,0.0,0.0,0.0,0.0,0.0,0.0,0.0,0.0,0.0,0.0,0.0,0.0,0.0,0.0,0.0,0.0,0.0,0.0,0.0,0.0,0.0,5.4866,5.4956,5.5852,5.63,5.6381,5.6822,5.7226,5.7519,5.7556,5.7703,0.0,0.0,0.0,0.0,0.0,0.0,0.0,0.0,0.0,0.0,0.0,0.0,0.0,0.0,0.0,0.0,0.0,0.0,0.0,0.0,0.0,0.0,0.0,0.0,0.0,0.0,0.0,0.0,5.1581,5.1771,5.1948,0.0,0.0,0.0,0.0,0.0,0.0,0.0,0.0,0.0,0.0,5.4429,5.5777,5.6069,0.0,0.0,5.7753,5.78,5.7902,5.7912,5.779,5.7576,5.7451,0.0,0.0,0.0,0.0,0.0,0.0,0.0,0.0,0.0,0.0,0.0,0.0,0.0,0.0,0.0,0.0,0.0,0.0,0.0,0.0,0.0,0.0,0.0,0.0,0.0,0.0,0.0,0.0,0.0,0.0,0.0,0.0,0.0,0.0,0.0,0.0,0.0,0.0,0.0,0.0,0.0,0.0,0.0,0.0,0.0,0.0,0.0,0.0,0.0,0.0,0.0,0.0,5.5806,5.5806,5.6923,5.7519,5.7519,5.8327,5.8694,5.8731,5.8731,5.8694,0.0,0.0,0.0,0.0,0.0,0.0,0.0,0.0,0.0,0.0,0.0,0.0,0.0,0.0,0.0,0.0,0.0,0.0,0.0,0.0,0.0,0.0,0.0,0.0,0.0,0.0,0.0,0.0,5.2731,5.274,5.3287,0.0,0.0,0.0,0.0,0.0,0.0,0.0,0.0,0.0,0.0,5.6028,5.7419,5.7747,5.7996,5.8721,5.8804,5.8816,5.885,5.8825,5.8738,5.8527,0.0,0.0,0.0,0.0,0.0,0.0,0.0,0.0,0.0,0.0,0.0,0.0,0.0,0.0,0.0,0.0,0.0,0.0,0.0,0.0,0.0,0.0,0.0,0.0,0.0,0.0,0.0,0.0,0.0,0.0,0.0,0.0,0.0,0.0,0.0,0.0,0.0,0.0,0.0,0.0,0.0,0.0,0.0,0.0,0.0,0.0,0.0,0.0,0.0,0.0,0.0,0.0,0.0,5.6694,5.6822,5.8364,5.9134,5.9171,5.9942,6.0309,6.0309,6.0346,6.0346,6.0309,0.0,0.0,0.0,0.0,0.0,0.0,0.0,0.0,0.0,0.0,0.0,0.0,0.0,0.0,0.0,0.0,0.0,0.0,0.0,0.0,0.0,0.0,0.0,0.0,0.0,0.0,5.3956,5.3618,5.3641,0.0,0.0,0.0,0.0,0.0,0.0,0.0,0.0,0.0,0.0,5.7377,5.7866,5.8821,5.9075,5.9418,6.0003,5.9938,6.0107,6.064,6.0661,6.0574,0.0,0.0,0.0,0.0,0.0,0.0,0.0,0.0,0.0,0.0,0.0,0.0,0.0,0.0,0.0,0.0,0.0,0.0,0.0,0.0,0.0,0.0,0.0,0.0,0.0,0.0,0.0,4.6728,4.6764,0.0,0.0,0.0,0.0,0.0,0.0,0.0,0.0,0.0,0.0,0.0,5.0435,5.1206,0.0,0.0,0.0,0.0,0.0,0.0,0.0,0.0,0.0,0.0,0.0,0.0,5.8354,5.8474,5.9465,6.0015,6.0015,6.0272,6.0419,6.0419,6.0419,6.0419,6.0419,0.0,0.0,0.0,0.0,0.0,0.0,0.0,0.0,0.0,0.0,0.0,0.0,0.0,0.0,0.0,0.0,0.0,0.0,0.0,0.0,0.0,0.0,0.0,0.0,0.0,5.4792,0.0,0.0,0.0,0.0,0.0,0.0,0.0,0.0,0.0,0.0,0.0,5.7797,5.8217,5.8478,5.8968,5.9813,6.0444,6.1019,0.0,0.0,0.0,0.0,0.0,0.0,0.0,0.0,0.0,0.0,0.0,0.0,0.0,0.0,6.1204,5.9795,5.9488,5.9592,6.0078,0.0,0.0,0.0,0.0,0.0,0.0,0.0,0.0,0.0,0.0,0.0,0.0,0.0,0.0,0.0,0.0,4.8379,0.0,0.0,0.0,0.0,0.0,0.0,0.0,0.0,5.1096,5.1206,5.1279,5.2344,5.2821,0.0,5.4179,5.4693,0.0,0.0,0.0,0.0,0.0,0.0,0.0,0.0,5.9648,5.9648,6.0419,6.0823,6.0823,6.1117,6.1227,6.1263,6.1263,6.1227,6.1227,6.1263,6.1117,0.0,0.0,0.0,0.0,0.0,0.0,0.0,0.0,0.0,0.0,0.0,0.0,0.0,0.0,0.0,0.0,0.0,0.0,0.0,0.0,0.0,0.0,0.0,5.6169,0.0,0.0,0.0,0.0,0.0,0.0,0.0,0.0,0.0,5.7447,5.8152,5.8866,5.9286,5.9833,6.0411,6.126,0.0,0.0,0.0,0.0,0.0,0.0,0.0,6.3413,6.3474,6.3474,6.3413,6.3413,6.3289,6.32,6.3073,0.0,0.0,6.0827,6.052,6.0628,6.1013,6.1049,6.1051,6.1606,6.1501,6.136,0.0,0.0,0.0,0.0,0.0,0.0,0.0,0.0,4.8379,4.8416,0.0,4.926,0.0,0.0,0.0,0.0,0.0,0.0,0.0,0.0,5.1756,5.2087,5.2234,5.3702,5.4436,5.4509,5.5244,5.6051,5.6748,5.6088,0.0,0.0,0.0,0.0,0.0,0.0,6.0456,6.0456,6.1227,6.163,6.1704,6.2438,6.2879,6.2879,6.2879,6.2842,6.2842,6.2805,6.2438,6.1667,6.163,0.0,0.0,0.0,0.0,0.0,0.0,0.0,0.0,0.0,0.0,0.0,0.0,0.0,0.0,0.0,0.0,0.0,0.0,0.0,0.0,5.8101,0.0,0.0,0.0,0.0,0.0,0.0,0.0,0.0,0.0,0.0,5.9009,5.8902,5.9322,6.0538,0.0,0.0,0.0,0.0,6.4375,6.4238,6.4238,6.4216,6.4063,6.3968,6.4004,6.4004,0.0,0.0,6.3789,6.3825,6.3739,6.3396,6.3369,6.3109,6.2662,6.2392,6.2121,6.2055,6.1987,6.1918,6.1953,6.1953,6.1779,4.9187,0.0,0.0,0.0,0.0,4.9848,5.0105,5.0068,5.0105,5.0068,5.0105,5.0362,0.0,0.0,0.0,0.0,0.0,0.0,5.2821,5.3371,5.3628,5.3995,5.4583,5.5023,5.5244,5.528,5.6088,5.6859,5.7666,5.7997,5.829,5.8547,0.0,0.0,0.0,0.0,6.1263,6.13,6.2034,6.2768,6.3356,6.3613,6.4016,6.4567,6.4016,6.3723,6.3723,6.3135,6.2695,6.2475,6.2475,0.0,0.0,0.0,0.0,0.0,0.0,0.0,0.0,0.0,0.0,0.0,0.0,0.0,0.0,0.0,0.0,0.0,0.0,0.0,5.9371,5.9516,5.951,0.0,0.0,0.0,0.0,0.0,0.0,0.0,0.0,0.0,6.1795,6.1795,6.1924,0.0,0.0,6.3724,6.4033,6.4758,6.5265,6.5207,0.0,0.0,0.0,6.5646,6.5646,6.5707,6.5767,6.5707,6.5707,6.5586,6.5561,6.5402,6.5278,6.5332,6.5539,6.4043,6.307,6.3357,6.3299,6.3306,6.3728,6.3659,6.3587,5.0215,4.9334,4.9848,5.0068,5.0105,5.0582,5.0802,5.0802,5.0802,5.0802,5.0839,5.1132,5.1279,5.1353,5.2454,0.0,0.0,0.0,5.4399,5.4876,5.4876,5.5133,5.5574,5.5904,5.6235,5.6565,5.7373,5.818,5.8951,5.9428,5.9869,6.0162,0.0,0.0,6.0896,6.1998,6.2585,6.2622,6.3392,6.4053,6.4567,6.4567,6.4824,6.5264,6.4824,6.4567,6.4567,6.409,6.3796,6.3796,6.3796,6.3429,0.0,0.0,0.0,0.0,0.0,0.0,0.0,0.0,0.0,0.0,0.0,5.8951,5.8951,0.0,0.0,0.0,5.9685,5.9821,6.0152,6.0432,0.0,0.0,0.0,0.0,0.0,0.0,0.0,6.2855,6.3233,6.3522,6.3727,6.3981,6.409,6.3708,6.4472,6.5037,6.5,0.0,6.6707,6.6707,6.7302,6.7751,6.7751,6.7692,6.7632,6.7692,6.7751,6.7751,6.7751,6.7632,6.7511,6.7389,6.7266,6.7222,6.7633,6.6332,6.5255,6.5455,6.5361,6.5334,6.5756,6.5584,6.544,5.1206,5.1169,5.1169,5.1096,5.0912,5.0949,5.1022,5.1096,5.1096,5.1132,5.1242,5.1977,5.227,5.238,5.3812,0.0,0.0,5.528,5.5611,5.5684,5.5721,5.5831,5.5941,5.6712,5.7483,5.8217,5.8951,5.9722,6.0456,6.0493,6.0933,6.1777,6.1777,6.1814,6.1887,6.3392,6.42,6.42,6.4934,6.5338,6.5411,6.5448,6.5485,6.5521,6.5448,6.5411,6.5411,6.5338,6.5338,6.5301,6.5338,6.4971,6.4237,0.0,0.0,0.0,0.0,0.0,0.0,0.0,0.0,0.0,0.0,0.0,0.0,0.0,0.0,0.0,6.0566,0.0,6.042,6.114,0.0,0.0,0.0,6.2907,6.36,6.3566,6.3857,6.4694,0.0,0.0,6.4876,0.0,6.5934,6.5003,6.566,6.6189,6.6189,6.7466,6.8487,6.8414,6.907,6.9581,6.9377,6.9413,6.9377,6.9377,6.9617,6.9508,6.9449,6.9391,6.9381,6.9129,6.9043,6.8894,6.8814,6.8706,6.8622,6.7963,6.7652,6.7581,6.7546,6.7165,6.6989,5.4436,5.4436,5.4473,5.3408,5.1756,5.238,5.2968,5.3555,5.3555,5.3885,5.4473,5.4656,5.473,5.473,5.5133,5.5317,5.5317,5.55,5.5941,5.6565,5.7152,5.774,5.84,5.9171,5.9648,5.9832,6.0052,6.0529,6.13,6.13,6.2034,6.3429,6.3503,6.3503,6.3539,6.453,6.5044,6.5044,6.5228,6.5632,6.6219,6.6806,6.7136,6.7136,6.6549,6.6219,6.6219,6.5632,6.5338,6.5338,6.5338,6.5228,6.5044,6.5044,0.0,0.0,0.0,0.0,0.0,0.0,0.0,0.0,0.0,6.0419,6.0419,0.0,6.0676,0.0,6.1851,6.2254,6.2205,6.2975,0.0,0.0,6.403,6.4526,6.4709,6.4566,6.4585,6.4767,6.5314,6.5715,6.5715,6.7103,6.7999,6.7724,6.7777,6.7794,6.783,6.8633,6.9289,6.9325,6.9508,6.9581,6.969,6.9617,6.969,6.9617,6.9654,6.9617,6.9617,6.9581,6.9559,6.95,6.9381,6.9419,6.9911,6.9859,6.9921,6.9992,6.9011,6.7955,6.7955,6.7756,6.7657,5.5611,5.5611,5.5611,5.4803,5.3628,5.4069,5.4509,5.4913,5.495,5.517,5.5611,5.5611,5.5611,5.5611,5.5978,5.6308,5.6675,5.7042,5.7629,5.84,5.8841,5.9318,5.9758,6.0199,6.0566,6.0933,6.13,6.1887,6.2695,6.3062,6.3723,6.464,6.5007,6.5154,6.5191,6.5595,6.5852,6.5852,6.6182,6.6586,6.7026,6.7467,6.7687,6.7687,6.7247,6.7026,6.7026,6.6623,6.6366,6.6366,6.6366,6.6182,6.5852,6.5852,6.5705,0.0,0.0,0.0,0.0,0.0,0.0,0.0,0.0,0.0,0.0,0.0,6.1814,0.0,6.3466,6.3906,6.3906,6.4347,6.464,6.464,6.4992,6.5343,6.5673,6.562,6.5677,6.6043,6.6811,6.7287,6.7323,6.8476,6.9338,6.9338,6.9538,6.9592,6.9299,6.9884,7.0397,7.0339,7.0689,7.1055,7.1348,7.1421,7.1567,7.1897,7.197,7.197,7.197,7.1911,7.1888,7.1888,7.1732,7.1757,7.2071,7.2019,7.2046,7.2163,7.1441,7.0524,7.0033,7.0011,7.0234,5.6198,5.6198,5.6198,5.6198,5.6235,5.6198,5.6014,5.5757,5.5721,5.5868,5.6051,5.6161,5.6198,5.6235,5.6932,5.7629,5.8327,5.9061,5.9758,6.0382,6.0493,6.0566,6.0566,6.0786,6.1263,6.1924,6.2768,6.3539,6.4273,6.4971,6.5375,6.5485,6.6145,6.6549,6.6659,6.6769,6.6769,6.6659,6.743,6.7834,6.7834,6.7944,6.7981,6.8017,6.7981,6.7981,6.7981,6.7907,6.7834,6.7834,6.7724,6.7393,6.6696,6.6659,6.6329,0.0,6.5595,0.0,0.0,0.0,0.0,0.0,0.0,0.0,0.0,6.3135,6.3466,6.42,6.4897,6.5338,6.5338,6.5411,6.5485,6.5448,6.5558,6.5925,6.6696,6.6806,6.71,6.7907,6.8641,6.9045,6.9045,6.9743,7.0257,7.033,7.1064,7.1338,7.0807,7.1211,7.1631,7.1615,7.2312,7.2951,7.356,7.378,7.3964,7.4661,7.4602,7.4918,7.4675,7.4652,7.4665,7.4568,7.436,7.4311,7.4457,7.4233,7.417,7.4033,7.3812,7.3369,7.2557,7.2498,7.3042,5.9501,5.9501,5.9501,5.9501,5.9501,5.9501,5.8364,5.6565,5.6565,5.7299,5.8547,5.9208,5.9501,5.9501,5.9648,5.9795,5.9942,6.0089,6.0272,6.0419,6.108,6.1374,6.1447,6.2768,6.3466,6.3649,6.4457,6.4934,6.5081,6.5228,6.5632,6.6256,6.6439,6.6806,6.7467,0.0,0.0,0.0,6.8274,6.8678,6.8715,6.9302,6.9633,6.9633,6.9633,0.0,6.9633,6.9009,6.8678,6.8641,6.8054,0.0,0.0,0.0,0.0,0.0,0.0,0.0,0.0,0.0,0.0,0.0,6.5007,6.4824,6.4824,6.4861,6.4897,6.5044,6.5228,6.5338,6.5338,6.5888,6.6292,6.6292,6.6843,6.754,6.8348,6.8421,6.8752,6.9559,6.9779,6.9853,6.9926,7.0587,7.1101,7.1211,7.2312,7.312,7.301,7.3083,7.323,7.3303,7.3854,7.4441,7.4661,7.4698,7.4735,7.4882,7.4918,7.4992,7.5028,7.5028,7.4932,7.5005,7.4738,7.4726,7.469,7.4457,7.4613,7.4368,7.4788,7.4747,7.3621,7.3348,7.332,6.0419,0.0,6.0419,6.0419,0.0,6.0419,5.9722,5.8584,5.8584,5.9061,5.9832,6.0236,6.0419,6.0419,6.0419,6.0639,6.097,6.1006,6.1447,6.2254,6.2658,6.3062,6.3429,6.431,6.4714,6.4714,6.5485,6.5888,6.5925,6.6292,6.6916,6.7687,6.7687,6.8091,6.8862,6.9302,6.9302,6.8898,6.9265,6.9486,6.9522,6.9889,7.011,7.011,0.0,0.0,0.0,0.0,0.0,0.0,0.0,0.0,0.0,0.0,0.0,6.8525,6.8436,6.8015,6.7242,6.7153,6.6916,6.6512,6.6476,6.6145,6.5375,6.5668,6.5888,6.5925,6.6256,6.6476,6.6512,6.6843,6.7247,6.765,6.8054,6.8605,6.9339,6.9486,6.9633,7.0036,7.044,7.0697,7.0734,7.1762,7.2422,7.2532,7.3523,7.4294,7.4294,7.4294,7.4294,7.4294,7.4588,7.5065,7.5395,7.5506,7.5689,7.6019,7.646,7.6717,7.6754,7.7047,7.7304,7.7341,7.7243,7.7217,7.7181,7.7056,7.6893,7.6929,7.7093,7.7116,7.6445,7.5882,7.5426,6.0871,6.0871,6.0871,6.0908,6.0871,6.1018,6.1165,6.1275,0.0,0.0,0.0,6.075,6.0823,6.086,6.097,6.141,6.2034,6.2181,6.2989,6.4273,6.431,6.4677,6.5301,6.5448,6.5521,6.5558,6.6329,6.6806,6.6953,6.7577,6.8311,6.9045,6.9119,6.9522,7.0257,7.033,7.044,7.0697,7.0477,7.0293,7.0293,7.044,7.0513,7.0513,7.0513,7.0513,7.0513,7.0422,7.0349,7.0349,7.0312,7.0347,7.0347,7.0454,7.0175,6.9547,6.9405,6.9057,6.8378,6.8198,6.8181,6.8128,6.8128,6.743,6.5852,6.6329,6.6769,6.6916,6.754,6.7944,6.8091,6.8128,6.8385,6.9045,6.9119,6.9449,7.0183,7.0293,7.044,7.0734,7.1394,7.1798,7.2055,7.3083,7.3927,7.4001,7.4588,7.5285,7.5469,7.5359,7.5285,7.5652,7.5873,7.5946,7.657,7.6864,7.7047,7.7671,7.8332,7.8772,7.8919,7.936,7.9727,7.9507,7.9764,7.9653,7.9727,7.9416,7.9572,7.9572,7.9406,7.9274,7.9135,7.8607,7.7901,6.2815,6.2815,6.2815,6.2815,6.2889,6.3553,6.4291,6.4771,6.2426,6.141,6.1484,6.2181,6.2475,6.2511,6.3246,6.3649,6.3759,6.4457,6.4934,0.0,6.5154,6.5191,6.5338,6.5999,6.6329,6.6402,6.7136,6.7907,6.8531,6.8678,6.9155,6.9853,6.9926,7.033,7.1064,7.1138,7.1798,7.312,7.1835,7.1138,7.1174,7.1798,7.2165,7.2165,7.2165,7.2165,7.2165,7.1617,7.1324,7.1324,7.077,7.0471,7.0507,7.0544,7.0434,7.0323,7.0323,7.0233,6.9962,6.9962,6.9907,6.9743,6.9743,6.9082,6.754,6.7467,6.7797,6.8458,6.8678,6.9009,6.9633,6.9706,6.9706,6.9889,6.9926,7.0257,7.1101,7.1211,7.1688,7.2899,7.3266,7.3597,7.4111,7.4515,7.4771,7.4882,7.5652,7.646,7.7378,7.6827,7.668,7.7708,7.8075,7.8405,7.8809,7.925,7.914,7.9433,7.947,7.9617,7.9617,7.9837,7.9984,7.9837,7.9947,7.991,7.991,7.98,7.9847,7.9883,7.9755,7.9654,7.9698,7.9858,7.9767,6.4561,6.4561,6.4561,6.4561,6.4598,6.4967,6.5337,6.5595,6.439,6.3825,6.3898,6.418,6.4365,6.4401,6.4719,6.4853,6.489,6.5206,6.5558,6.5962,6.5962,6.6182,6.6659,6.743,6.7797,6.7871,6.8605,6.9192,6.9522,6.9559,6.9963,7.0734,7.1174,7.1798,7.2569,7.2606,7.3193,7.4294,7.3193,7.2826,7.3266,7.3634,7.3817,7.378,7.3876,7.397,7.3934,7.3737,7.3572,7.3609,7.3,7.261,7.2573,7.2272,7.188,7.1472,7.1331,7.1094,7.056,7.0401,7.0238,7.0184,7.0128,6.9779,6.9082,6.8972,6.9155,6.9522,6.9559,6.9706,7.0036,7.011,7.0257,7.0734,7.077,7.1284,7.2349,7.2606,7.3083,7.4111,7.4368,7.4478,7.4882,7.5285,7.5763,7.6203,7.7231,7.8405,7.914,7.8626,7.8332,7.9066,7.925,7.936,7.9727,7.98,7.98,7.98,8.0167,8.0424,8.0498,8.0718,8.1048,8.1085,8.1085,8.1085,8.1085,8.1085,8.1085,8.1085,8.102,8.1065,8.1505,8.2105,8.1939,6.5804,6.5804,6.5804,6.5915,6.6063,6.6063,6.6174,6.6322,6.6322,6.6322,6.6285,6.5903,6.5706,6.5706,6.5754,6.5814,6.5851,6.5897,6.6397,6.7095,6.7132,6.7573,6.8309,6.9007,6.9265,6.9338,6.9871,7.0239,7.0386,7.0367,7.0881,7.1835,7.2642,7.3377,7.3964,7.3964,7.4368,7.5065,7.461,7.4537,7.4882,7.4918,7.4978,7.4978,7.5153,7.5248,7.5248,7.5383,7.5439,7.5402,7.5014,7.4698,7.4698,7.4211,7.3632,7.3075,7.2897,7.2547,7.1865,7.1615,7.1453,7.1453,7.1342,7.1267,7.1231,7.1174,7.0917,7.0477,7.0367,7.0513,7.0917,7.0991,7.1211,7.2018,7.2129,7.2642,7.3744,7.3964,7.4294,7.5028,7.5175,7.5285,7.5726,7.6276,7.6974,7.7892,7.9176,7.9984,8.0057,8.0167,8.0314,8.0314,8.0204,8.0204,8.0277,8.0388,8.0424,8.0314,8.1048,8.1525,8.1709,8.2223,8.2663,8.2737,8.2737,8.2737,8.2737,8.2737,8.2737,8.2737,8.2737,8.292,8.3434,8.3814,8.3898,6.6081,6.6044,6.6192,6.6489,6.7158,6.7195,6.7603,6.8197,6.8234,6.8234,6.8074,6.6433,6.578,6.578,6.6482,6.6814,6.6925,6.7553,6.824,6.8904,6.9067,6.9473,7.0085,7.0323,7.036,7.0344,7.0384,7.0808,7.1434,7.1304,7.1982,7.3413,7.4294,7.4698,7.4808,7.4808,7.5212,7.5983,7.6125,7.5757,7.4955,7.5037,7.519,7.519,7.5306,7.5383,7.5494,7.5495,7.5606,7.5606,7.5642,7.5676,7.5676,7.5564,7.5527,7.5416,7.5416,7.5362,7.5088,7.4996,7.4792,7.494,7.4622,7.4564,7.4564,7.4427,7.3487,7.1872,7.1248,7.1908,7.312,7.3266,7.3487,7.4111,7.4331,7.4661,7.4735,7.4808,7.5102,7.5873,7.6166,7.6533,7.7818,7.8259,7.8662,7.9323,8.0241,8.0901,8.0938,8.1452,8.1856,8.1782,8.1415,8.1305,8.1746,8.1966,8.1966,8.2039,8.2627,8.2994,8.3214,8.3654,8.4352,8.3911,8.4168,8.4132,8.4205,8.4352,8.4242,8.4058,8.4132,8.4389,8.4499,8.4682,8.4437,6.8543,6.8951,6.8951,6.9137,6.9434,6.9434,6.962,6.9917,6.9955,6.9955,6.9793,6.9113,6.8544,6.8099,6.8333,6.8703,6.9184,6.9377,6.9658,6.9953,6.999,7.0175,7.0507,7.0988,7.1209,7.1283,7.1672,7.2337,7.3019,7.3479,7.4069,7.4659,7.5064,7.5432,7.5875,7.5911,7.6317,7.7091,7.7666,7.774,7.7349,7.6928,7.6707,7.6765,7.6881,7.6958,7.6958,7.7107,7.7218,7.7181,7.6827,7.6567,7.6567,7.6084,7.5787,7.5787,7.5787,7.5787,7.5679,7.5606,7.5495,7.5495,7.5383,7.5306,7.519,7.5095,7.4595,7.367,7.3413,7.3744,7.4331,7.4404,7.4551,7.4845,7.4918,7.5102,7.5579,7.6056,7.668,7.7451,7.8002,7.8442,7.9213,7.9727,8.0131,8.0571,8.1195,8.1672,8.1746,8.2406,8.2847,8.2957,8.2994,8.303,8.303,8.3361,8.3508,8.3654,8.3875,8.4095,8.4168,8.4315,8.4572,8.4646,8.4719,8.4719,8.4499,8.4609,8.4609,8.4719,8.5123,8.5306,8.5306,8.571,8.5899,7.0363,7.0883,7.092,7.092,7.092,7.092,7.092,7.092,7.092,7.092,7.092,7.092,7.0735,7.04,7.004,7.0212,7.0694,7.0628,7.0776,7.0961,7.0961,7.1109,7.1368,7.2092,7.2462,7.261,7.335,7.3998,7.457,7.5346,7.5715,7.5752,7.5937,7.6343,7.6897,7.7119,7.7525,7.8153,7.8988,7.9394,7.9283,7.8898,7.8602,7.8507,7.8681,7.8738,7.8738,7.8889,7.8945,7.8908,7.8388,7.8053,7.8053,7.7273,7.6716,7.6493,7.6493,7.6493,7.6493,7.6384,7.6329,7.6329,7.6217,7.6048,7.6027,7.6154,7.6148,7.6066,7.6153,7.6153,7.5285,7.5249,7.5395,7.5799,7.5909,7.624,7.7084,7.7708,7.8222,7.8883,7.925,7.9874,8.0167,8.0755,8.1305,8.1415,8.2003,8.2517,8.2627,8.3177,8.3728,8.3801,8.4389,8.4535,8.3948,8.4095,8.4572,8.4682,8.4682,8.4939,8.4976,8.5049,8.527,8.571,8.538,8.5306,8.5563,8.5416,8.5343,8.538,8.5747,8.6297,8.6518,8.6995,8.7362,7.0883,7.0958,7.092,7.1032,7.0958,7.0995,7.0958,7.1106,7.1032,7.0995,7.1106,7.1106,7.1403,7.2072,7.1441,7.087,7.0944,7.1018,7.1464,7.2095,7.2221,7.2555,7.3298,7.4078,7.445,7.4397,7.4957,7.5366,7.5402,7.6158,7.6565,7.6602,7.7266,7.7673,7.7857,7.8544,7.8892,7.9098,7.9956,8.0422,8.0459,8.0502,8.0502,8.0385,8.0427,8.0468,8.0505,8.0542,8.0542,8.058,8.0394,8.0431,8.0394,7.9688,7.8908,7.8276,7.8165,7.8202,7.8202,7.8165,7.8165,7.8165,7.796,7.7903,7.7883,7.8322,7.8537,7.8578,7.8983,7.8517,7.6667,7.635,7.6827,7.8038,7.8332,7.8662,7.9396,7.9396,7.9653,7.9727,7.991,8.0351,8.0938,8.1636,8.2113,8.237,8.2884,8.3361,8.3471,8.4022,8.4462,8.4682,8.5123,8.549,8.4756,8.4903,8.4866,8.4976,8.5527,8.5747,8.604,8.6297,8.6591,8.6848,8.6738,8.6738,8.6848,8.6921,8.6921,8.6958,8.6958,8.7325,8.7729,8.7986,8.828,7.2035,7.2481,7.2518,7.2481,7.2481,7.2518,7.2481,7.2555,7.3075,7.3261,7.3372,7.3781,7.4227,7.4487,7.419,7.3484,7.2629,7.3038,7.3447,7.3781,7.4264,7.4635,7.4896,7.523,7.5378,7.5416,7.5585,7.5976,7.6569,7.7293,7.77,7.7812,7.8479,7.8887,7.9035,7.9665,8.0073,8.0184,8.0984,8.1487,8.1525,8.2028,8.2288,8.2156,8.1248,8.0691,8.0691,8.0691,8.0691,8.0691,8.0691,8.0691,8.0654,8.0431,8.0134,7.9874,7.9837,7.9837,7.9837,7.9837,7.9837,7.9837,7.978,7.9648,7.9644,7.9808,7.9934,7.9829,7.9854,7.9425,7.8958,7.8504,7.8699,7.9213,7.936,7.947,7.98,8.0241,8.0571,8.0645,8.0975,8.1636,8.2296,8.281,8.3177,8.3654,8.3985,8.4132,8.4278,8.4866,8.5343,8.549,8.604,8.6481,8.6261,8.6151,8.6187,8.6224,8.6444,8.6554,8.6775,8.6885,8.7105,8.7655,8.7766,8.7949,8.7986,8.8206,8.8243,8.8316,8.8316,8.8316,8.8904,8.8977,8.9087,7.367,7.4115,7.4153,7.4153,7.4153,7.4153,7.4153,7.4227,7.4747,7.497,7.5081,7.5564,7.5787,7.5787,7.5787,7.5267,7.4264,7.4747,7.497,7.5044,7.5527,7.5787,7.5861,7.6084,7.6233,7.627,7.6493,7.6939,7.7496,7.8276,7.8648,7.8722,7.9502,7.9874,8.0022,8.0691,8.11,8.1285,8.1954,8.2363,8.2437,8.2883,8.318,8.3032,8.2066,8.1508,8.1508,8.1508,8.1508,8.1508,8.1471,8.1397,8.1174,8.11,8.0988,8.0728,8.0654,8.0691,8.0691,8.0691,8.0654,8.0691,8.0691,8.0634,8.0613,8.0836,8.0867,8.0822,8.0923,8.0936,8.0849,8.0725,8.0525,8.0241,8.0167,8.0314,8.0534,8.1048,8.1489,8.1893,8.2517,8.3177,8.3654,8.3765,8.4022,8.4535,8.4792,8.4976,8.5086,8.5637,8.6187,8.6261,8.6885,8.7288,8.7399,8.7509,8.7399,8.7399,8.7619,8.7619,8.7582,8.7655,8.7839,8.8353,8.872,8.894,8.916,8.9381,8.9454,8.9491,8.9271,8.9087,8.9491,8.9784,9.0005,7.5713,7.5676,7.5787,7.5639,7.5564,7.5564,7.5713,7.5639,7.575,7.5787,7.5824,7.5899,7.6084,7.5936,7.6121,7.5899,7.5861,7.5899,7.5861,7.5861,7.5936,7.601,7.6047,7.6753,7.7162,7.7236,7.7905,7.8276,7.8462,7.9131,7.9502,7.9614,8.032,8.0691,8.0728,8.1545,8.1991,8.214,8.2697,8.3106,8.318,8.3217,8.3329,8.3292,8.3217,8.318,8.318,8.3106,8.2957,8.3032,8.3032,8.2771,8.2103,8.1991,8.1657,8.1063,8.0802,8.0765,8.0802,8.0877,8.0988,8.0988,8.084,8.0988,8.1137,8.1583,8.1896,8.1852,8.2274,8.2695,8.2548,8.2423,8.1939,8.1158,8.1085,8.1415,8.1929,8.2223,8.2517,8.3251,8.3911,8.4499,8.4572,8.4609,8.4719,8.4976,8.5416,8.5857,8.6004,8.6591,8.6958,8.7215,8.7692,8.8169,8.85,8.8757,8.861,8.8536,8.8793,8.894,8.8757,8.8757,8.8867,8.9307,8.9711,8.9968,9.0005,9.0152,9.0041,9.0005,8.9858,8.9968,9.0298,9.0665,9.0922,7.5787,7.5787,7.5787,7.5787,7.5787,7.5787,7.5787,7.5861,7.6382,7.6679,7.679,7.7273,7.7496,7.7496,7.7496,7.7496,7.7533,7.7496,7.7236,7.6865,7.7236,7.7496,7.757,7.7793,7.8202,7.8685,7.8982,7.9428,7.9874,8.0208,8.032,8.0468,8.1174,8.1545,8.162,8.24,8.2846,8.2846,8.3032,8.318,8.3254,8.3737,8.3997,8.4072,8.4518,8.4852,8.4815,8.3775,8.3217,8.3217,8.318,8.3069,8.2883,8.2809,8.266,8.2474,8.24,8.24,8.24,8.24,8.24,8.24,8.24,8.24,8.24,8.266,8.2846,8.275,8.2853,8.3089,8.3547,8.3508,8.305,8.2086,8.2361,8.27,8.303,8.3508,8.3911,8.4168,8.4462,8.4792,8.527,8.5416,8.5637,8.6114,8.6481,8.6738,8.7325,8.7619,8.8133,8.8573,8.8904,8.905,8.9234,8.9638,8.9821,8.9674,8.9784,8.9931,8.9821,8.9784,8.9931,9.0152,9.0592,9.0886,9.0922,9.0959,9.0922,9.1033,9.1216,9.1326,9.14,9.162,9.195,7.6716,7.6716,7.6716,7.6716,7.6716,7.6716,7.6716,7.679,7.731,7.7682,7.8053,7.8499,7.8908,7.9131,7.9168,7.9168,7.9205,7.9205,7.8908,7.8462,7.8536,7.8871,7.9131,7.9168,7.9391,7.9837,7.9948,8.0208,8.0691,8.1025,8.1174,8.1323,8.2028,8.2437,8.2437,8.292,8.318,8.3217,8.3477,8.3626,8.3812,8.4443,8.4852,8.4926,8.5335,8.5595,8.5521,8.4592,8.4072,8.4072,8.4109,8.4072,8.4072,8.4109,8.4109,8.4072,8.4072,8.4072,8.4072,8.4072,8.4109,8.4072,8.4072,8.4072,8.4072,8.4072,8.4072,8.4072,8.4049,8.4137,8.4521,8.4509,8.4162,8.3593,8.377,8.3904,8.3985,8.4572,8.4976,8.5123,8.5343,8.571,8.6077,8.6261,8.6591,8.7252,8.7472,8.7766,8.839,8.8647,8.905,8.9417,8.9674,8.9784,8.9895,9.0372,9.0959,9.0849,9.0702,9.0739,9.0665,9.0702,9.0776,9.0959,9.1326,9.173,9.184,9.206,9.217,9.2391,9.2574,9.2794,9.2905,9.2868,9.3051,7.8313,7.8351,7.8351,7.8351,7.8388,7.8425,7.8425,7.8425,7.8462,7.8871,7.9391,7.9539,7.9911,8.0505,8.0431,8.0431,8.0617,8.0505,8.0505,8.0357,8.0097,8.0022,8.0394,8.0394,8.0505,8.0728,8.0765,8.084,8.1137,8.1731,8.2066,8.214,8.2697,8.3143,8.3106,8.3217,8.3366,8.3477,8.4072,8.448,8.4518,8.5223,8.5669,8.5669,8.5818,8.5966,8.5966,8.5818,8.5669,8.5558,8.5372,8.5372,8.5521,8.5595,8.5446,8.5372,8.5558,8.5446,8.5521,8.5335,8.5372,8.5335,8.5335,8.5595,8.5372,8.5261,8.5261,8.5298,8.5372,8.5483,8.5534,8.5547,8.5423,8.5497,8.518,8.4919,8.4896,8.5453,8.5783,8.6004,8.6518,8.7068,8.7068,8.7142,8.7619,8.8023,8.828,8.8683,8.9234,8.9491,8.9528,8.9895,9.0445,9.0555,9.0702,9.0886,9.14,9.1363,9.1289,9.1326,9.1436,9.151,9.1657,9.184,9.2097,9.2501,9.2794,9.3051,9.3308,9.3492,9.3822,9.4226,9.4153,9.3859,9.3822,7.8648,7.9168,7.9168,7.9502,8.0022,8.0059,8.0022,8.0059,8.0022,8.0097,8.0357,8.0394,8.0505,8.0691,8.0728,8.0691,8.0765,8.0765,8.11,8.1545,8.1471,8.1025,8.0765,8.0728,8.1063,8.1545,8.1657,8.1954,8.2511,8.2697,8.2846,8.2883,8.3032,8.3217,8.3217,8.3775,8.4035,8.4183,8.4889,8.5298,8.5409,8.6078,8.6449,8.6524,8.7044,8.7341,8.7415,8.7452,8.6784,8.5706,8.5595,8.5595,8.5706,8.5706,8.5743,8.5743,8.5669,8.5632,8.5669,8.5669,8.5632,8.5595,8.5781,8.5595,8.5595,8.5632,8.5595,8.5595,8.5595,8.5892,8.6338,8.6425,8.6623,8.6979,8.6426,8.6053,8.6427,8.6586,8.6664,8.6775,8.7435,8.7802,8.7986,8.8316,8.8757,8.9014,8.916,8.9381,9.0041,9.0335,9.0335,9.0959,9.14,9.1436,9.151,9.162,9.173,9.1693,9.1693,9.173,9.1987,9.2281,9.2501,9.2758,9.3088,9.3492,9.3712,9.3969,9.4263,9.452,9.4556,9.4703,9.4446,9.4189,9.4299,7.9799,8.0246,8.0246,8.0451,8.0805,8.0842,8.0748,8.0691,8.0691,8.0951,8.1174,8.1248,8.1434,8.1731,8.1789,8.1846,8.1846,8.1903,8.2201,8.2536,8.2668,8.2293,8.19,8.1731,8.2028,8.24,8.2474,8.2734,8.3069,8.318,8.318,8.3143,8.318,8.3366,8.3775,8.4109,8.4592,8.4963,8.5669,8.6115,8.6152,8.6895,8.7304,8.7415,8.7861,8.8084,8.8084,8.8084,8.7601,8.6858,8.6672,8.6635,8.6635,8.6635,8.6635,8.6672,8.6635,8.6672,8.6635,8.6635,8.6635,8.6672,8.6635,8.6635,8.6672,8.6635,8.6635,8.6709,8.6635,8.6895,8.7192,8.7341,8.7687,8.8181,8.7776,8.7505,8.7851,8.7715,8.7762,8.7986,8.839,8.872,8.872,8.916,8.9528,8.9821,8.9931,9.0372,9.0922,9.1033,9.1179,9.1583,9.184,9.1803,9.2024,9.217,9.2464,9.2391,9.2758,9.2684,9.2721,9.3088,9.3382,9.3712,9.4079,9.441,9.463,9.4887,9.5144,9.529,9.5217,9.5254,9.518,9.496,9.4997,8.1248,8.1323,8.1323,8.1306,8.1345,8.1308,8.1308,8.1083,8.1157,8.1529,8.2049,8.2161,8.2516,8.3239,8.3077,8.3301,8.3301,8.3228,8.3396,8.3434,8.3434,8.3246,8.3037,8.2904,8.2979,8.3069,8.318,8.3143,8.318,8.318,8.318,8.3254,8.3292,8.37,8.4257,8.4592,8.5075,8.5743,8.6524,8.6932,8.7044,8.7564,8.7898,8.7935,8.7973,8.8084,8.8084,8.8084,8.801,8.8047,8.8084,8.7935,8.7973,8.8047,8.801,8.7935,8.7824,8.7861,8.801,8.7861,8.7973,8.7898,8.7935,8.8084,8.7898,8.7824,8.7787,8.7787,8.8084,8.801,8.8195,8.827,8.8716,8.9209,8.9155,8.8996,8.884,8.8735,8.8819,8.9378,8.9417,8.9528,8.9564,8.9674,8.9968,9.0665,9.0739,9.0996,9.1363,9.1436,9.1546,9.1693,9.1877,9.2024,9.2354,9.2721,9.3015,9.3272,9.3896,9.4042,9.3786,9.4006,9.4263,9.4593,9.4997,9.529,9.5547,9.5804,9.5951,9.6061,9.6025,9.6318,9.6539,9.6135,9.6025,8.1547,8.2145,8.2145,8.2518,8.2986,8.3023,8.2986,8.2893,8.293,8.2967,8.3191,8.3228,8.3303,8.3489,8.3489,8.3546,8.3546,8.3602,8.3602,8.3602,8.3602,8.3546,8.3489,8.3376,8.3297,8.3239,8.318,8.318,8.318,8.3254,8.3217,8.3292,8.3886,8.4257,8.4555,8.5595,8.6338,8.6672,8.7341,8.7712,8.775,8.7898,8.8121,8.8158,8.8158,8.8121,8.8121,8.8084,8.8084,8.8084,8.8158,8.827,8.8121,8.8084,8.8084,8.8084,8.8084,8.8084,8.8084,8.8084,8.8084,8.8084,8.8084,8.8084,8.8084,8.8158,8.8121,8.8084,8.8121,8.8493,8.8976,8.9644,8.9942,9.0127,9.0175,9.037,9.0617,9.0015,8.9657,8.9776,9.0076,9.0335,9.0372,9.0886,9.1179,9.151,9.1546,9.162,9.173,9.184,9.1987,9.2097,9.2537,9.2794,9.3015,9.3492,9.3969,9.4299,9.4887,9.5217,9.496,9.4923,9.5144,9.5511,9.5914,9.6135,9.6171,9.6318,9.6428,9.6612,9.6722,9.6722,9.6722,9.6722,9.6722,8.2969,8.3329,8.3292,8.3447,8.3675,8.3675,8.3657,8.3602,8.3602,8.3602,8.3602,8.3602,8.3602,8.3602,8.3657,8.3712,8.3822,8.3929,8.3982,8.3967,8.3913,8.3822,8.3712,8.3602,8.3489,8.3355,8.3297,8.3239,8.3313,8.3552,8.3775,8.3812,8.4555,8.5186,8.5483,8.6375,8.6969,8.7378,8.7824,8.8084,8.8084,8.8084,8.8344,8.8567,8.8678,8.879,8.9236,8.9273,8.9236,8.9198,8.9198,8.8827,8.8233,8.8121,8.8121,8.8084,8.8084,8.8084,8.8084,8.8084,8.8084,8.8121,8.8121,8.8084,8.8233,8.8381,8.8641,8.8753,8.9013,8.9421,8.983,9.0127,9.0573,9.1019,9.1056,9.1362,9.1853,9.1179,9.0679,9.0868,9.1245,9.125,9.1507,9.1692,9.1657,9.1657,9.173,9.1803,9.195,9.2097,9.2464,9.2758,9.3308,9.3675,9.3822,9.4299,9.5034,9.5401,9.5841,9.6025,9.5951,9.5988,9.6061,9.6245,9.6355,9.6465,9.6539,9.6685,9.6722,9.6722,9.6722,9.6722,9.6722,9.6722,9.6722,8.4431,8.4368,8.4368,8.4177,8.3892,8.3892,8.3876,8.3767,8.3712,8.3822,8.3712,8.3712,8.3822,8.3767,8.3876,8.3982,8.4139,8.4331,8.4368,8.4581,8.4619,8.4628,8.4508,8.4475,8.4366,8.3862,8.3805,8.3711,8.3781,8.4205,8.4674,8.4763,8.5432,8.6027,8.6598,8.6969,8.7341,8.7898,8.8047,8.8084,8.8158,8.827,8.8753,8.9347,8.9496,8.9719,9.0127,9.0276,9.0387,9.0499,9.0499,8.9756,8.8901,8.8455,8.8455,8.853,8.8678,8.8716,8.8753,8.8641,8.8604,8.8455,8.853,8.853,8.8716,8.9124,8.9384,8.9719,9.0053,9.0573,9.0685,9.1019,9.1316,9.1725,9.191,9.2245,9.2653,9.2224,9.2054,9.2146,9.1938,9.1904,9.1836,9.1912,9.1839,9.184,9.1913,9.206,9.2244,9.2611,9.3051,9.3492,9.4042,9.4777,9.4997,9.507,9.5804,9.6025,9.6539,9.6539,9.6575,9.6502,9.6428,9.6539,9.6649,9.6722,9.6722,9.6722,9.6722,9.6722,9.6722,9.6722,9.6722,9.6722,9.6722,8.4481,8.4481,8.4431,8.4431,8.4381,8.4381,8.4331,8.4381,8.4331,8.4331,8.4331,8.4331,8.4331,8.4331,8.4381,8.4469,8.462,8.4832,8.5021,8.5386,8.5499,8.5675,8.6063,8.5921,8.5966,8.5804,8.5209,8.4797,8.4815,8.5412,8.5669,8.5834,8.6468,8.6966,8.7105,8.7452,8.7886,8.8072,8.8146,8.8146,8.8369,8.889,8.9459,9.0202,9.0313,9.0462,9.0536,9.0573,9.0499,9.0499,9.0499,9.0387,9.0202,9.0127,9.0053,8.9904,8.9867,8.9793,8.9793,8.9942,9.0053,9.009,8.9942,8.9979,9.0016,9.0202,9.035,9.0573,9.1019,9.1502,9.1539,9.1948,9.2468,9.2728,9.2691,9.2765,9.2914,9.2847,9.2707,9.2832,9.259,9.2414,9.2454,9.2423,9.2462,9.261,9.2794,9.2905,9.2978,9.3455,9.4006,9.441,9.4813,9.5584,9.6245,9.6245,9.6465,9.6392,9.6649,9.6649,9.6649,9.6685,9.6722,9.6722,9.6722,9.6722,9.6722,9.6722,9.6722,9.6722,9.6722,9.6722,9.6722,9.6722,9.6722,8.4825,8.4732,8.4722,8.4627,8.4541,8.453,8.4481,8.4481,8.4481,8.4481,8.4481,8.4481,8.4481,8.4643,8.507,8.5507,8.5905,8.6151,8.6332,8.6539,8.6528,8.6668,8.7097,8.6958,8.6868,8.6711,8.6476,8.6069,8.5676,8.6329,8.6665,8.6868,8.7407,8.7757,8.7734,8.807,8.8293,8.8293,8.833,8.8554,8.9001,8.9721,9.044,9.0907,9.1167,9.1353,9.1762,9.1799,9.1799,9.1836,9.1836,9.1799,9.1762,9.165,9.139,9.0722,9.0536,9.0536,9.0499,9.0499,9.0424,9.0462,9.0536,9.0499,9.061,9.0833,9.1279,9.1725,9.1985,9.2356,9.2393,9.2765,9.2951,9.2988,9.3025,9.3025,9.3099,9.3397,9.3479,9.3412,9.3017,9.2917,9.3144,9.3115,9.312,9.3271,9.3603,9.3786,9.3786,9.4374,9.4999,9.5144,9.5511,9.5988,9.6612,9.6649,9.6722,9.6722,9.6722,9.6722,9.6722,9.6722,9.6722,9.6722,9.6722,9.6722,9.6722,9.6722,9.6722,9.6722,9.6722,9.6722,9.6722,9.6722,9.6832,8.5138,8.5051,8.4916,8.4825,8.4732,8.4637,8.4675,8.4627,8.4675,8.4826,8.4892,8.4977,8.5053,8.5318,8.5943,8.6729,8.7521,8.7573,8.7559,8.7695,8.7648,8.7582,8.7663,8.7563,8.7663,8.7839,8.7909,8.7619,8.6911,8.7323,8.7603,8.7732,8.833,8.8495,8.8495,8.8399,8.8533,8.857,8.8757,8.9242,9.0214,9.0801,9.1422,9.2003,9.2013,9.231,9.2756,9.2765,9.2802,9.2802,9.2839,9.2914,9.2951,9.2988,9.2356,9.1279,9.1019,9.1019,9.1056,9.1093,9.1242,9.1279,9.1093,9.1056,9.1167,9.1725,9.2208,9.2839,9.2951,9.2914,9.2839,9.2988,9.2988,9.3062,9.3174,9.3322,9.3545,9.3879,9.4362,9.411,9.356,9.3573,9.4022,9.399,9.3998,9.4187,9.4521,9.4816,9.4927,9.5515,9.5994,9.5954,9.6211,9.6392,9.6685,9.6685,9.6722,9.6722,9.6722,9.6722,9.6722,9.6722,9.6722,9.6722,9.6722,9.6722,9.6722,9.6722,9.6722,9.6722,9.6722,9.6832,9.7089,9.7236,9.7346,8.5219,8.5176,8.5176,8.5176,8.5132,8.5132,8.5132,8.5127,8.5203,8.5551,8.6191,8.6273,8.6615,8.7148,8.7338,8.7573,8.7769,8.8004,8.8302,8.8714,8.879,8.8965,8.9432,8.9525,8.9124,8.8986,8.9098,8.8677,8.8103,8.8391,8.8654,8.8673,8.8616,8.8708,8.8613,8.8613,8.8533,8.8645,8.928,9.0363,9.1558,9.1932,9.2468,9.2928,9.3088,9.3024,9.3146,9.3119,9.3054,9.2988,9.2988,9.2988,9.2988,9.2988,9.2951,9.2765,9.2691,9.2691,9.2505,9.2393,9.2393,9.2356,9.2468,9.2653,9.2505,9.2505,9.2765,9.2914,9.2988,9.2988,9.2988,9.3025,9.3025,9.3322,9.3694,9.3954,9.4177,9.4734,9.518,9.5365,9.4964,9.497,9.5198,9.5054,9.4948,9.514,9.5401,9.5661,9.5994,9.6474,9.6695,9.6657,9.6582,9.6764,9.6762,9.6762,9.6722,9.6722,9.6722,9.6722,9.6722,9.6722,9.6722,9.6722,9.6759,9.6869,9.6979,9.6942,9.6795,9.6906,9.7163,9.7456,9.7713,9.7823,9.797,8.5349,8.5349,8.5346,8.5304,8.538,8.5757,8.5942,8.6018,8.6437,8.6818,8.7122,8.716,8.7661,8.8352,8.851,8.8815,8.9201,8.9239,8.9468,8.9692,8.9762,8.987,9.0007,9.0029,8.9982,8.9925,8.979,8.9578,8.9187,8.9107,8.9211,8.9157,8.9102,8.9157,8.8992,8.9009,8.9292,8.9836,9.0792,9.1724,9.2339,9.2802,9.3152,9.3464,9.3438,9.3338,9.3338,9.3211,9.3082,9.3119,9.3054,9.2988,9.2988,9.2988,9.2988,9.2988,9.2951,9.2951,9.2951,9.2988,9.2988,9.2988,9.2988,9.2914,9.2988,9.2988,9.2988,9.2988,9.2988,9.3025,9.3136,9.3434,9.3619,9.3917,9.44,9.466,9.5031,9.5663,9.6108,9.6257,9.6406,9.6337,9.6231,9.6046,9.605,9.6317,9.6468,9.6653,9.6803,9.6916,9.7101,9.7064,9.699,9.7063,9.6989,9.6914,9.6838,9.6762,9.6685,9.6685,9.6722,9.6722,9.6759,9.6942,9.7199,9.7273,9.7309,9.7419,9.7456,9.7603,9.775,9.8117,9.8484,9.8631,9.8851,8.5896,8.5896,8.5775,8.5734,8.5848,8.6566,8.6904,8.6981,8.7476,8.7857,8.8124,8.8314,8.8853,8.932,8.9511,8.9821,9.0517,9.0631,9.0551,9.0508,9.0427,9.0301,9.0295,9.025,9.0205,9.0205,9.0067,8.9897,8.9801,8.9692,8.9541,8.9386,8.9371,8.9333,8.9409,8.971,9.0147,9.1244,9.2166,9.2729,9.3122,9.353,9.3695,9.3686,9.3625,9.3563,9.3501,9.3375,9.3275,9.3312,9.3146,9.3054,9.3054,9.3054,9.2988,9.2988,9.2988,9.2988,9.2988,9.2988,9.2988,9.2988,9.2988,9.2988,9.2988,9.2988,9.2988,9.2988,9.3322,9.3322,9.3471,9.4028,9.44,9.4771,9.518,9.5477,9.5811,9.6406,9.6852,9.7037,9.7223,9.7446,9.7372,9.7112,9.7191,9.7567,9.7681,9.761,9.7539,9.743,9.7358,9.7358,9.7285,9.7211,9.7138,9.7063,9.6914,9.6838,9.6762,9.6685,9.6685,9.6795,9.6869,9.7163,9.7566,9.786,9.8043,9.8117,9.819,9.83,9.8521,9.8961,9.9255,9.9438,9.9732,8.7004,8.6967,8.6814,8.6734,8.6772,8.7651,8.7995,8.7995,8.8148,8.8603,8.9252,8.9902,9.0249,9.0402,9.0364,9.044,9.0593,9.0631,9.0593,9.0593,9.0551,9.0508,9.0427,9.0383,9.034,9.025,9.0205,9.0205,9.0121,9.0075,8.979,8.9475,8.9616,8.9475,8.9815,9.0547,9.1491,9.2496,9.3142,9.3557,9.3916,9.4142,9.4122,9.4065,9.383,9.3649,9.3649,9.3526,9.3501,9.3501,9.3312,9.3211,9.3184,9.3119,9.3119,9.3054,9.3054,9.3054,9.3054,9.2988,9.2988,9.2988,9.2988,9.2988,9.2988,9.3025,9.3025,9.3211,9.3731,9.4065,9.4325,9.4771,9.5254,9.5551,9.596,9.6369,9.6703,9.7149,9.7557,9.7743,9.7855,9.7892,9.7892,9.7557,9.7483,9.7785,9.7822,9.7752,9.7752,9.7644,9.7573,9.7502,9.743,9.7358,9.7285,9.7211,9.7138,9.7063,9.6989,9.6838,9.6762,9.6909,9.7239,9.7566,9.8043,9.8411,9.8851,9.9145,9.9292,9.9108,9.9292,9.9805,10.0209,10.0393,10.0723,8.7886,8.7924,8.8347,8.8232,8.7849,8.8653,8.8998,8.9113,8.9572,8.9955,9.03,9.0645,9.0798,9.0798,9.0798,9.0798,9.0798,9.0798,9.0798,9.0758,9.0717,9.0638,9.0597,9.0551,9.0508,9.0427,9.0465,9.0383,9.034,9.0416,9.0624,9.0466,9.0228,9.0342,9.0835,9.1799,9.2796,9.3312,9.3812,9.4249,9.4253,9.4349,9.4293,9.4293,9.4122,9.4007,9.3948,9.3709,9.3686,9.3625,9.3464,9.3401,9.3375,9.3349,9.3386,9.336,9.336,9.3397,9.3193,9.3091,9.2988,9.2988,9.2988,9.3062,9.3174,9.3434,9.3657,9.3991,9.4474,9.492,9.5031,9.5626,9.6183,9.6369,9.6666,9.7149,9.7446,9.7743,9.7855,9.7855,9.7892,9.7892,9.7892,9.7855,9.7855,9.7892,9.7892,9.7892,9.7822,9.7822,9.7752,9.7752,9.7573,9.7502,9.7502,9.743,9.743,9.7285,9.7211,9.7137,9.7098,9.7576,9.7944,9.8195,9.8746,9.9333,9.9884,10.0283,10.0319,9.9989,10.0209,10.076,10.109,10.1274,10.1384,8.8879,8.8956,8.9725,8.9572,8.8883,8.9612,8.9995,9.0072,9.0609,9.0915,9.0915,9.0915,9.0915,9.0915,9.0915,9.0915,9.0877,9.0877,9.0915,9.0877,9.0799,9.0759,9.0719,9.0758,9.0676,9.0676,9.0676,9.0635,9.0555,9.0822,9.12,9.1424,9.1419,9.1642,9.1947,9.3079,9.3894,9.4174,9.4465,9.4779,9.4636,9.453,9.4567,9.4513,9.4349,9.418,9.4122,9.3948,9.383,9.377,9.3649,9.3563,9.3638,9.3688,9.3837,9.3912,9.4061,9.411,9.3946,9.3305,9.3174,9.3397,9.3434,9.3545,9.3805,9.4214,9.4511,9.4622,9.5254,9.5774,9.5811,9.6443,9.6963,9.7149,9.7297,9.7669,9.7706,9.7892,9.7892,9.7892,9.7892,9.7892,9.7892,9.7892,9.7892,9.7892,9.7892,9.7892,9.7892,9.7892,9.7892,9.7822,9.7822,9.7752,9.7715,9.7644,9.7573,9.7502,9.7395,9.758,9.7654,9.817,9.8795,9.9422,9.9934,10.0404,10.0772,10.1066,10.095,10.0723,10.1017,10.1237,10.131,10.1384,10.142,8.9829,8.9979,9.0752,9.0526,8.9726,9.0494,9.0839,9.0762,9.0877,9.0954,9.0954,9.0954,9.0954,9.0954,9.0954,9.0954,9.0954,9.0954,9.0954,9.0954,9.0877,9.0915,9.0915,9.0877,9.0837,9.0877,9.0877,9.0837,9.0992,9.1527,9.1987,9.2561,9.2901,9.3086,9.284,9.3555,9.4392,9.5039,9.5143,9.5143,9.5045,9.4895,9.4793,9.4689,9.453,9.4404,9.4293,9.418,9.4065,9.3986,9.4017,9.3934,9.3972,9.4485,9.4685,9.4759,9.5395,9.563,9.5668,9.4003,9.3723,9.4132,9.4243,9.4362,9.5031,9.5328,9.5365,9.544,9.6108,9.6517,9.6852,9.7223,9.7557,9.7743,9.7855,9.7892,9.7892,9.7892,9.7892,9.7892,9.7892,9.7892,9.7892,9.7892,9.7892,9.7892,9.7892,9.7892,9.7892,9.7892,9.7892,9.7892,9.7892,9.7892,9.7822,9.7822,9.7822,9.7681,9.7796,9.8022,9.8393,9.8873,9.9612,10.0461,10.0789,10.1117,10.1407,10.1776,10.1513,10.1207,10.1274,10.142,10.1494,10.1494,10.1494,9.0748,9.0787,9.1095,9.0982,9.0718,9.0949,9.1103,9.1103,9.1103,9.1103,9.1064,9.1103,9.1103,9.1103,9.1064,9.1103,9.1103,9.1103,9.1103,9.1103,9.0991,9.0991,9.0953,9.0954,9.0954,9.0915,9.0915,9.1299,9.1797,9.2335,9.3063,9.3753,9.4366,9.4551,9.4305,9.4593,9.5234,9.5333,9.5324,9.5324,9.5191,9.5094,9.4996,9.4946,9.4741,9.4583,9.4459,9.4404,9.433,9.431,9.442,9.4699,9.4827,9.5381,9.5794,9.5831,9.6243,9.6144,9.6082,9.523,9.5064,9.5157,9.5098,9.5143,9.5403,9.596,9.6108,9.6331,9.6926,9.726,9.7595,9.7632,9.7817,9.7817,9.7892,9.7892,9.7892,9.7892,9.7892,9.7892,9.7892,9.7892,9.7892,9.7892,9.7892,9.7892,9.7892,9.7892,9.7892,9.7892,9.7892,9.7892,9.7892,9.7892,9.7929,9.8077,9.8449,9.8602,9.8717,9.8905,9.9277,9.976,10.0241,10.0943,10.1348,10.1791,10.1899,10.1969,10.1812,10.1697,10.1654,10.1574,10.1494,10.1494,10.1494,9.121,9.121,9.121,9.121,9.121,9.121,9.121,9.121,9.121,9.121,9.121,9.121,9.121,9.121,9.121,9.121,9.121,9.121,9.121,9.121,9.11,9.1064,9.1064,9.1143,9.1335,9.1336,9.1567,9.1912,9.2718,9.3064,9.3947,9.506,9.5712,9.548,9.5282,9.5466,9.561,9.5604,9.5598,9.5509,9.5417,9.5286,9.5191,9.5143,9.4996,9.4844,9.4689,9.4605,9.461,9.4801,9.514,9.563,9.589,9.6455,9.6884,9.696,9.7177,9.7191,9.718,9.7017,9.6853,9.6761,9.6266,9.6065,9.622,9.6814,9.7,9.726,9.7632,9.7743,9.7855,9.7892,9.7892,9.7892,9.7892,9.7892,9.7892,9.7892,9.7892,9.7892,9.7892,9.7892,9.7892,9.7892,9.7892,9.7892,9.7892,9.7892,9.7892,9.7892,9.7892,9.7929,9.804,9.8152,9.8263,9.8486,9.8895,9.9415,9.9675,9.9753,10.0309,10.0684,10.113,10.1463,10.187,10.2166,10.2126,10.2123,10.1969,10.1891,10.1734,10.1654,10.1574,10.1494,10.1494,9.121,9.121,9.121,9.121,9.121,9.121,9.121,9.121,9.121,9.121,9.121,9.121,9.121,9.121,9.121,9.121,9.121,9.121,9.1325,9.1364,9.1444,9.1405,9.1482,9.1598,9.1985,9.2328,9.2597,9.2869,9.3749,9.4405,9.5328,9.5943,9.6059,9.5982,9.5943,9.5904,9.59,9.5818,9.5772,9.5729,9.5648,9.5554,9.5463,9.5371,9.5239,9.5045,9.4933,9.4945,9.5166,9.5475,9.578,9.6253,9.6894,9.7687,9.7873,9.8094,9.8478,9.8529,9.8505,9.8267,9.8279,9.7926,9.7433,9.7428,9.7515,9.7557,9.7595,9.7632,9.7817,9.7855,9.7892,9.7892,9.7892,9.7892,9.7892,9.7892,9.7892,9.7892,9.7892,9.7892,9.7892,9.7892,9.7892,9.7892,9.7892,9.7892,9.7892,9.7892,9.7892,9.7892,9.7929,9.7966,9.8115,9.8412,9.8635,9.8932,9.9601,10.0195,10.0381,10.0567,10.1089,10.1535,10.1796,10.2092,10.2463,10.2538,10.2426,10.2276,10.2123,10.2046,10.1969,10.1734,10.1654,10.1574,10.1494,9.121,9.121,9.121,9.121,9.121,9.121,9.121,9.121,9.121,9.121,9.121,9.121,9.121,9.121,9.121,9.121,9.121,9.1287,9.1672,9.1864,9.2133,9.2518,9.2749,9.2864,9.3133,9.3249,9.348,9.3787,9.4634,9.548,9.5903,9.6249,9.6251,9.6251,9.6213,9.6213,9.6058,9.5941,9.59,9.5859,9.5856,9.5729,9.5643,9.5554,9.5417,9.5277,9.5246,9.5653,9.5971,9.6067,9.715,9.7853,9.7724,9.8517,9.8949,9.8772,9.8938,9.899,9.8905,9.8842,9.8742,9.8616,9.8161,9.8001,9.7986,9.7924,9.7892,9.7892,9.7892,9.7892,9.7892,9.7892,9.7892,9.7892,9.7892,9.7892,9.7892,9.7892,9.7892,9.7892,9.7892,9.7892,9.7892,9.7892,9.7892,9.7892,9.7929,9.7929,9.7929,9.7966,9.8077,9.8152,9.8412,9.8783,9.9229,9.9563,10.0307,10.0901,10.1087,10.1384,10.1904,10.2275,10.2461,10.2573,10.2684,10.2684,10.2648,10.2501,10.2351,10.2276,10.22,10.1969,10.1812,10.1654,10.1574,9.121,9.121,9.121,9.121,9.121,9.121,9.121,9.121,9.121,9.121,9.121,9.121,9.121,9.1287,9.1556,9.1787,9.1787,9.2249,9.2595,9.2826,9.2979,9.321,9.3557,9.3787,9.3864,9.4057,9.4326,9.4672,9.5403,9.5865,9.6288,9.6288,9.6288,9.6288,9.6288,9.6251,9.6213,9.6098,9.602,9.5981,9.5979,9.5898,9.5772,9.5686,9.5598,9.5616,9.582,9.6429,9.6703,9.7123,9.8476,9.8841,9.8778,9.9366,9.9462,9.9309,9.9133,9.905,9.899,9.8905,9.8842,9.8679,9.8552,9.8357,9.8158,9.8061,9.7961,9.7892,9.7892,9.7892,9.7892,9.7892,9.7892,9.7892,9.7892,9.7892,9.7892,9.7892,9.7892,9.7892,9.7892,9.7892,9.7892,9.7892,9.7892,9.7892,9.8003,9.8189,9.8152,9.8077,9.8338,9.8523,9.8858,9.9229,9.9749,10.0344,10.1012,10.1644,10.1904,10.2201,10.2647,10.2684,10.261,10.2647,10.2684,10.2684,10.2684,10.2648,10.2501,10.2426,10.2351,10.22,10.2046,10.1812,10.1654,9.121,9.121,9.121,9.121,9.121,9.121,9.121,9.121,9.121,9.121,9.121,9.121,9.1287,9.1556,9.2018,9.2441,9.2672,9.3095,9.3441,9.3787,9.3826,9.398,9.4172,9.4018,9.4634,9.498,9.5211,9.5441,9.598,9.6288,9.6288,9.6288,9.6288,9.6288,9.6288,9.6288,9.6251,9.6251,9.6136,9.6098,9.6098,9.6019,9.5898,9.5853,9.6002,9.6145,9.6578,9.7057,9.7591,9.8525,9.9188,9.9492,9.9771,9.9881,9.9742,9.9519,9.9288,9.917,9.905,9.8966,9.8905,9.8842,9.8679,9.8487,9.8329,9.8128,9.7992,9.7892,9.7892,9.7892,9.7892,9.7892,9.7892,9.7892,9.7892,9.7892,9.7892,9.7892,9.7892,9.7892,9.7892,9.7892,9.7892,9.7892,9.7892,9.7892,9.7966,9.8226,9.8523,9.8412,9.8783,9.9118,9.9638,10.0121,10.0678,10.1272,10.183,10.2313,10.2498,10.2573,10.2684,10.2684,10.2684,10.2684,10.2684,10.2684,10.2684,10.2648,10.2648,10.2648,10.2538,10.2426,10.2276,10.2046,10.1812,9.121,9.121,9.121,9.121,9.121,9.121,9.121,9.121,9.121,9.1248,9.121,9.1287,9.1633,9.2249,9.2518,9.2941,9.3441,9.3864,9.4134,9.448,9.4672,9.4941,9.5441,9.5365,9.5672,9.5903,9.6057,9.6019,9.6211,9.6288,9.6288,9.6288,9.6288,9.6288,9.6288,9.6288,9.6288,9.6288,9.6251,9.6251,9.6213,9.6136,9.6058,9.6209,9.6437,9.681,9.7413,9.8287,9.8647,9.9231,9.9793,10.0049,10.0177,10.0062,9.9904,9.9742,9.95,9.9288,9.9111,9.899,9.8905,9.8842,9.8742,9.8552,9.8357,9.8158,9.8061,9.7961,9.7892,9.7892,9.7892,9.7892,9.7892,9.7892,9.7892,9.7892,9.7892,9.7892,9.7892,9.7892,9.7892,9.7892,9.7892,9.7892,9.7892,9.7892,9.7892,9.8152,9.882,9.9081,9.9675,10.0084,10.0678,10.1198,10.1644,10.1941,10.2313,10.2498,10.261,10.2647,10.2684,10.2684,10.2684,10.2684,10.2684,10.2684,10.2684,10.2684,10.2721,10.2684,10.2611,10.2575,10.2501,10.2276,10.2046,9.121,9.121,9.121,9.121,9.121,9.121,9.121,9.1287,9.1595,9.1787,9.1787,9.1864,9.2249,9.3095,9.3403,9.371,9.4326,9.4711,9.5172,9.548,9.5557,9.5826,9.6172,9.6288,9.6211,9.6288,9.6288,9.6249,9.6288,9.6288,9.6288,9.6288,9.6288,9.6288,9.6288,9.6288,9.6288,9.6288,9.6288,9.6326,9.6326,9.6251,9.6444,9.6712,9.7017,9.7511,9.8389,9.9266,9.96,9.9931,10.0421,10.0395,10.0375,10.0265,10.0113,9.9904,9.9687,9.95,9.923,9.905,9.8966,9.8905,9.8842,9.8717,9.8487,9.8291,9.8128,9.803,9.7892,9.7892,9.7892,9.7892,9.7892,9.7892,9.7892,9.7892,9.7892,9.7892,9.7892,9.7892,9.7892,9.7892,9.7892,9.7892,9.7929,9.804,9.804,9.8746,9.9303,9.9824,10.0418,10.0901,10.1421,10.1867,10.2201,10.235,10.2573,10.2684,10.2684,10.2684,10.2684,10.2684,10.2684,10.2684,10.2684,10.2684,10.2684,10.2684,10.2684,10.2721,10.2684,10.2648,10.2575,10.2501,10.2276,9.121,9.121,9.121,9.121,9.121,9.121,9.1287,9.1518,9.2172,9.2633,9.2864,9.2903,9.3287,9.3941,9.4557,9.4903,9.5249,9.5595,9.6095,9.6172,9.6172,9.6211,9.6211,9.6288,9.6288,9.6288,9.6288,9.6288,9.6288,9.6288,9.6288,9.6288,9.6288,9.6288,9.6288,9.6288,9.6288,9.6288,9.6326,9.6403,9.6403,9.648,9.6866,9.7212,9.775,9.8439,9.9316,9.9965,10.0348,10.0574,10.0793,10.0742,10.0604,10.0462,10.0265,10.0062,9.985,9.9631,9.9405,9.9208,9.9027,9.8966,9.8905,9.8842,9.8616,9.8423,9.8196,9.8098,9.7961,9.7892,9.7892,9.7892,9.7892,9.7892,9.7892,9.7892,9.7892,9.7892,9.7892,9.7892,9.7892,9.7892,9.7892,9.7892,9.804,9.8152,9.8672,9.9489,10.0195,10.0641,10.1161,10.157,10.1978,10.235,10.261,10.2647,10.2684,10.2684,10.2684,10.2684,10.2684,10.2684,10.2684,10.2684,10.2684,10.2684,10.2684,10.2684,10.2684,10.2684,10.2684,10.2684,10.2648,10.2575,10.2501,9.121,9.121,9.121,9.121,9.121,9.121,9.1595,9.221,9.2441,9.321,9.4172,9.448,9.4634,9.4749,9.4864,9.5249,9.5865,9.6249,9.6249,9.6288,9.6288,9.6288,9.6288,9.6288,9.6288,9.6288,9.6288,9.6288,9.6288,9.6288,9.6288,9.6288,9.6288,9.6288,9.6288,9.6288,9.6288,9.6326,9.648,9.6634,9.7173,9.725,9.7288,9.7904,9.8865,9.9442,10.0015,10.055,10.0854,10.1004,10.1,10.0913,10.0787,10.065,10.0462,10.0215,10.001,9.9742,9.95,9.9288,9.9111,9.8966,9.8905,9.8842,9.8653,9.8487,9.8262,9.8128,9.7992,9.7892,9.7892,9.7892,9.7892,9.7892,9.7892,9.7892,9.7892,9.7892,9.7892,9.7892,9.7892,9.7892,9.7892,9.8003,9.8263,9.8486,9.8932,9.9749,10.0864,10.1384,10.1867,10.2127,10.2424,10.2573,10.2684,10.2684,10.2684,10.2684,10.2684,10.2684,10.2684,10.2684,10.2684,10.2684,10.2684,10.2684,10.2684,10.2684,10.2684,10.2684,10.2684,10.2721,10.2684,10.2648,10.2575]},{"header":{"parameterUnit":"m.s-1","parameterCategory":1,"la1":31.0,"la2":29.5877,"lo1":-88.7671,"lo2":-86.6584,"dy":0.0162,"dx":0.0185,"nx":115,"ny":88,"refTime":"2023-04-13T12:00:00:Z","depth":0,"parameterNumber":3,"parameterNumberName":"V-component_of_WINDS"},"data":[0.0,0.0,0.0,0.0,0.0,0.0,0.0,0.0,0.0,0.0,0.0,0.0,0.0,0.0,0.0,0.0,0.0,0.0,0.0,0.0,0.0,0.0,0.0,0.0,0.0,0.0,0.0,0.0,0.0,0.0,0.0,0.0,0.0,0.0,0.0,0.0,0.0,0.0,0.0,0.0,0.0,0.0,0.0,0.0,0.0,0.0,0.0,0.0,0.0,0.0,0.0,0.0,0.0,0.0,0.0,0.0,0.0,0.0,0.0,0.0,0.0,0.0,0.0,0.0,0.0,0.0,0.0,0.0,0.0,0.0,0.0,0.0,0.0,0.0,0.0,0.0,0.0,0.0,0.0,0.0,0.0,0.0,0.0,0.0,0.0,0.0,0.0,0.0,0.0,0.0,0.0,0.0,0.0,0.0,0.0,0.0,0.0,0.0,0.0,0.0,0.0,0.0,0.0,0.0,0.0,0.0,0.0,0.0,0.0,0.0,0.0,0.0,0.0,0.0,0.0,0.0,0.0,0.0,0.0,0.0,0.0,0.0,0.0,0.0,0.0,0.0,0.0,0.0,0.0,0.0,0.0,0.0,0.0,0.0,0.0,0.0,0.0,0.0,0.0,0.0,0.0,0.0,0.0,0.0,0.0,0.0,0.0,0.0,0.0,0.0,0.0,0.0,0.0,0.0,0.0,0.0,0.0,0.0,0.0,0.0,0.0,0.0,0.0,0.0,0.0,0.0,0.0,0.0,0.0,0.0,0.0,0.0,0.0,0.0,0.0,0.0,0.0,0.0,0.0,0.0,0.0,0.0,0.0,0.0,0.0,0.0,0.0,0.0,0.0,0.0,0.0,0.0,0.0,0.0,0.0,0.0,0.0,0.0,0.0,0.0,0.0,0.0,0.0,0.0,0.0,0.0,0.0,0.0,0.0,0.0,0.0,0.0,0.0,0.0,0.0,0.0,0.0,0.0,0.0,0.0,0.0,0.0,0.0,0.0,0.0,0.0,0.0,0.0,0.0,0.0,0.0,0.0,0.0,0.0,0.0,0.0,0.0,0.0,0.0,0.0,0.0,0.0,0.0,0.0,0.0,0.0,0.0,0.0,0.0,0.0,0.0,0.0,0.0,0.0,0.0,0.0,0.0,0.0,0.0,0.0,0.0,0.0,0.0,0.0,0.0,0.0,0.0,0.0,0.0,0.0,0.0,0.0,0.0,0.0,0.0,0.0,0.0,0.0,0.0,0.0,0.0,0.0,0.0,0.0,0.0,0.0,0.0,0.0,0.0,0.0,0.0,0.0,0.0,0.0,0.0,0.0,0.0,0.0,0.0,0.0,0.0,0.0,0.0,0.0,0.0,0.0,0.0,0.0,0.0,0.0,0.0,0.0,0.0,0.0,0.0,0.0,0.0,0.0,0.0,0.0,0.0,0.0,0.0,0.0,0.0,0.0,0.0,0.0,0.0,0.0,0.0,0.0,0.0,0.0,0.0,0.0,0.0,0.0,0.0,0.0,0.0,0.0,0.0,0.0,0.0,0.0,0.0,0.0,0.0,0.0,0.0,0.0,0.0,0.0,0.0,0.0,0.0,0.0,0.0,0.0,0.0,0.0,0.0,0.0,0.0,0.0,0.0,0.0,0.0,0.0,0.0,0.0,0.0,0.0,0.0,0.0,0.0,0.0,0.0,0.0,0.0,0.0,0.0,0.0,0.0,0.0,0.0,0.0,0.0,0.0,0.0,0.0,0.0,0.0,0.0,0.0,0.0,0.0,0.0,0.0,0.0,0.0,0.0,0.0,0.0,0.0,0.0,0.0,0.0,0.0,0.0,0.0,0.0,0.0,0.0,0.0,0.0,0.0,0.0,0.0,0.0,0.0,0.0,0.0,0.0,0.0,0.0,0.0,0.0,0.0,0.0,0.0,0.0,0.0,0.0,0.0,0.0,0.0,0.0,0.0,0.0,0.0,0.0,0.0,0.0,0.0,0.0,0.0,0.0,0.0,0.0,0.0,0.0,0.0,0.0,0.0,0.0,0.0,0.0,0.0,0.0,0.0,0.0,0.0,0.0,0.0,0.0,0.0,0.0,0.0,0.0,0.0,0.0,0.0,0.0,0.0,0.0,0.0,0.0,0.0,0.0,0.0,0.0,0.0,0.0,0.0,0.0,0.0,0.0,0.0,0.0,0.0,0.0,0.0,0.0,0.0,0.0,0.0,0.0,0.0,0.0,0.0,0.0,0.0,0.0,0.0,0.0,0.0,0.0,0.0,0.0,0.0,0.0,0.0,0.0,0.0,0.0,0.0,0.0,0.0,0.0,0.0,0.0,0.0,0.0,0.0,0.0,0.0,0.0,0.0,0.0,0.0,0.0,0.0,0.0,0.0,0.0,0.0,0.0,0.0,0.0,0.0,0.0,0.0,0.0,0.0,0.0,0.0,0.0,0.0,0.0,0.0,0.0,0.0,0.0,0.0,0.0,0.0,0.0,0.0,0.0,0.0,0.0,0.0,0.0,0.0,0.0,0.0,0.0,0.0,0.0,0.0,0.0,0.0,0.0,0.0,0.0,0.0,0.0,0.0,0.0,0.0,0.0,0.0,0.0,0.0,0.0,0.0,0.0,0.0,0.0,0.0,0.0,0.0,0.0,0.0,0.0,0.0,0.0,0.0,0.0,0.0,0.0,0.0,0.0,0.0,0.0,0.0,0.0,0.0,0.0,0.0,0.0,0.0,0.0,0.0,0.0,0.0,0.0,0.0,0.0,0.0,0.0,0.0,0.0,0.0,0.0,0.0,0.0,0.0,0.0,0.0,0.0,0.0,0.0,0.0,0.0,0.0,0.0,0.0,0.0,0.0,0.0,0.0,0.0,0.0,0.0,0.0,0.0,0.0,0.0,0.0,0.0,0.0,0.0,0.0,0.0,0.0,0.0,0.0,0.0,0.0,0.0,0.0,0.0,0.0,0.0,0.0,0.0,0.0,0.0,0.0,0.0,0.0,0.0,0.0,0.0,0.0,0.0,0.0,0.0,0.0,0.0,0.0,0.0,0.0,0.0,0.0,0.0,0.0,0.0,0.0,0.0,0.0,0.0,0.0,0.0,0.0,0.0,0.0,0.0,0.0,0.0,0.0,0.0,0.0,0.0,0.0,0.0,0.0,0.0,0.0,0.0,0.0,0.0,0.0,0.0,0.0,0.0,0.0,0.0,0.0,0.0,0.0,0.0,0.0,0.0,0.0,0.0,0.0,0.0,0.0,0.0,0.0,0.0,0.0,0.0,0.0,0.0,0.0,0.0,0.0,0.0,0.0,0.0,0.0,0.0,0.0,0.0,0.0,0.0,0.0,0.0,0.0,0.0,0.0,0.0,0.0,0.0,0.0,0.0,0.0,0.0,0.0,0.0,0.0,0.0,0.0,0.0,0.0,0.0,0.0,0.0,0.0,0.0,0.0,0.0,0.0,0.0,0.0,0.0,0.0,0.0,0.0,0.0,0.0,0.0,0.0,0.0,0.0,0.0,0.0,0.0,0.0,0.0,0.0,0.0,0.0,0.0,0.0,0.0,0.0,0.0,0.0,0.0,0.0,0.0,0.0,0.0,0.0,0.0,0.0,0.0,0.0,0.0,0.0,0.0,0.0,0.0,0.0,0.0,0.0,0.0,0.0,0.0,0.0,0.0,0.0,0.0,0.0,0.0,0.0,0.0,0.0,0.0,0.0,0.0,0.0,0.0,0.0,0.0,0.0,0.0,0.0,0.0,0.0,0.0,0.0,0.0,0.0,0.0,0.0,0.0,0.0,0.0,0.0,0.0,0.0,0.0,0.0,0.0,0.0,0.0,0.0,0.0,0.0,0.0,0.0,0.0,0.0,0.0,0.0,0.0,0.0,0.0,0.0,0.0,0.0,0.0,0.0,0.0,0.0,0.0,0.0,0.0,0.0,0.0,0.0,0.0,0.0,0.0,0.0,0.0,0.0,0.0,0.0,0.0,0.0,0.0,0.0,0.0,0.0,0.0,0.0,0.0,0.0,0.0,0.0,0.0,0.0,0.0,0.0,0.0,0.0,0.0,0.0,0.0,0.0,0.0,0.0,0.0,0.0,0.0,0.0,0.0,0.0,0.0,0.0,0.0,0.0,0.0,0.0,0.0,0.0,0.0,0.0,0.0,0.0,0.0,0.0,0.0,0.0,0.0,0.0,0.0,0.0,0.0,0.0,0.0,0.0,0.0,0.0,0.0,0.0,0.0,0.0,0.0,0.0,0.0,0.0,0.0,0.0,0.0,0.0,0.0,0.0,-2.2988,0.0,0.0,0.0,0.0,0.0,0.0,0.0,0.0,0.0,0.0,0.0,0.0,0.0,0.0,0.0,0.0,0.0,0.0,0.0,0.0,0.0,0.0,0.0,0.0,0.0,0.0,0.0,0.0,0.0,0.0,0.0,0.0,0.0,0.0,0.0,0.0,0.0,0.0,0.0,0.0,0.0,0.0,0.0,0.0,0.0,0.0,0.0,0.0,0.0,0.0,0.0,0.0,0.0,0.0,0.0,0.0,0.0,0.0,0.0,0.0,0.0,0.0,0.0,0.0,0.0,0.0,0.0,0.0,0.0,0.0,0.0,0.0,0.0,0.0,0.0,0.0,0.0,0.0,0.0,0.0,0.0,0.0,0.0,0.0,0.0,0.0,0.0,0.0,0.0,0.0,0.0,0.0,0.0,0.0,0.0,0.0,0.0,0.0,0.0,0.0,0.0,0.0,0.0,0.0,0.0,0.0,0.0,0.0,0.0,0.0,-2.3926,-2.4121,-2.3906,-2.3691,-2.3477,0.0,0.0,0.0,0.0,0.0,0.0,0.0,0.0,0.0,0.0,0.0,0.0,0.0,0.0,0.0,0.0,0.0,0.0,0.0,0.0,0.0,0.0,0.0,0.0,0.0,0.0,0.0,0.0,0.0,0.0,0.0,0.0,0.0,0.0,0.0,0.0,0.0,0.0,0.0,0.0,0.0,0.0,0.0,0.0,0.0,0.0,0.0,0.0,0.0,0.0,0.0,0.0,0.0,0.0,0.0,0.0,0.0,0.0,0.0,0.0,0.0,0.0,0.0,0.0,0.0,0.0,0.0,0.0,0.0,0.0,0.0,0.0,0.0,0.0,0.0,0.0,0.0,0.0,0.0,0.0,0.0,0.0,0.0,0.0,0.0,0.0,0.0,0.0,0.0,0.0,0.0,0.0,0.0,0.0,0.0,0.0,0.0,0.0,0.0,0.0,0.0,0.0,0.0,0.0,0.0,0.0,0.0,0.0,0.0,0.0,0.0,0.0,-2.4166,-2.3894,-2.359,0.0,0.0,0.0,0.0,0.0,0.0,0.0,0.0,0.0,0.0,0.0,0.0,0.0,0.0,0.0,0.0,0.0,0.0,0.0,0.0,0.0,0.0,0.0,0.0,0.0,0.0,0.0,0.0,0.0,0.0,0.0,0.0,0.0,0.0,0.0,0.0,0.0,0.0,0.0,0.0,0.0,0.0,0.0,0.0,0.0,0.0,0.0,0.0,0.0,0.0,0.0,0.0,0.0,0.0,0.0,0.0,0.0,0.0,0.0,0.0,0.0,0.0,0.0,0.0,0.0,0.0,0.0,0.0,0.0,0.0,0.0,0.0,0.0,0.0,0.0,0.0,0.0,0.0,0.0,0.0,0.0,0.0,0.0,0.0,0.0,0.0,0.0,0.0,0.0,0.0,0.0,0.0,0.0,0.0,0.0,0.0,0.0,0.0,0.0,0.0,0.0,0.0,0.0,0.0,0.0,0.0,0.0,0.0,0.0,0.0,-2.5,-2.5019,-2.4791,0.0,-2.3176,0.0,0.0,0.0,0.0,0.0,0.0,0.0,0.0,0.0,0.0,0.0,0.0,0.0,0.0,0.0,0.0,0.0,0.0,0.0,0.0,0.0,0.0,0.0,0.0,0.0,0.0,0.0,0.0,0.0,0.0,0.0,0.0,0.0,0.0,0.0,0.0,0.0,0.0,0.0,0.0,0.0,0.0,0.0,0.0,0.0,0.0,0.0,0.0,0.0,0.0,0.0,0.0,0.0,0.0,0.0,0.0,0.0,0.0,0.0,0.0,0.0,0.0,0.0,0.0,0.0,0.0,0.0,0.0,0.0,0.0,0.0,0.0,0.0,0.0,0.0,0.0,0.0,0.0,0.0,0.0,0.0,0.0,0.0,0.0,0.0,0.0,0.0,0.0,0.0,0.0,0.0,0.0,0.0,0.0,0.0,0.0,0.0,0.0,0.0,0.0,0.0,0.0,0.0,0.0,0.0,0.0,0.0,0.0,0.0,0.0,-2.516,-2.4967,-2.4393,-2.3746,0.0,0.0,0.0,0.0,0.0,0.0,0.0,0.0,0.0,0.0,0.0,0.0,0.0,0.0,0.0,0.0,0.0,0.0,0.0,0.0,0.0,0.0,0.0,0.0,0.0,0.0,0.0,0.0,0.0,0.0,0.0,0.0,0.0,0.0,0.0,0.0,0.0,0.0,0.0,0.0,0.0,0.0,0.0,0.0,0.0,0.0,0.0,0.0,0.0,0.0,0.0,0.0,0.0,0.0,0.0,0.0,0.0,0.0,0.0,0.0,0.0,0.0,0.0,0.0,0.0,0.0,0.0,0.0,0.0,0.0,0.0,0.0,0.0,0.0,0.0,0.0,0.0,0.0,0.0,0.0,0.0,0.0,0.0,0.0,0.0,0.0,0.0,0.0,0.0,0.0,0.0,0.0,0.0,0.0,0.0,0.0,0.0,0.0,0.0,0.0,0.0,0.0,0.0,0.0,0.0,0.0,0.0,0.0,0.0,0.0,-2.5082,-2.5039,-2.4805,-2.4126,-2.3467,-2.2962,0.0,0.0,0.0,0.0,0.0,0.0,0.0,0.0,0.0,0.0,0.0,0.0,0.0,0.0,0.0,0.0,0.0,0.0,0.0,0.0,0.0,0.0,0.0,0.0,0.0,0.0,0.0,0.0,0.0,0.0,0.0,0.0,0.0,0.0,0.0,0.0,0.0,0.0,0.0,0.0,0.0,0.0,0.0,0.0,0.0,0.0,0.0,0.0,0.0,0.0,0.0,0.0,0.0,0.0,0.0,0.0,0.0,0.0,0.0,0.0,0.0,0.0,0.0,0.0,0.0,0.0,0.0,0.0,0.0,0.0,0.0,0.0,0.0,0.0,0.0,0.0,0.0,0.0,0.0,0.0,0.0,0.0,0.0,0.0,0.0,0.0,0.0,0.0,0.0,0.0,0.0,0.0,0.0,0.0,0.0,0.0,0.0,0.0,0.0,0.0,0.0,0.0,0.0,0.0,0.0,0.0,0.0,0.0,-2.4884,-2.4922,-2.4726,-2.4529,-2.4137,-2.3613,0.0,0.0,0.0,0.0,0.0,0.0,0.0,0.0,0.0,0.0,0.0,0.0,0.0,0.0,0.0,0.0,0.0,0.0,0.0,0.0,0.0,0.0,0.0,0.0,0.0,0.0,0.0,0.0,0.0,0.0,0.0,0.0,0.0,0.0,0.0,0.0,0.0,0.0,0.0,0.0,0.0,0.0,0.0,0.0,0.0,0.0,0.0,0.0,0.0,0.0,0.0,0.0,0.0,0.0,0.0,0.0,0.0,0.0,0.0,0.0,0.0,0.0,0.0,0.0,0.0,0.0,0.0,0.0,0.0,0.0,0.0,0.0,0.0,0.0,0.0,0.0,0.0,0.0,0.0,0.0,0.0,0.0,0.0,0.0,0.0,0.0,0.0,0.0,0.0,0.0,0.0,0.0,0.0,0.0,0.0,0.0,0.0,0.0,0.0,0.0,0.0,0.0,0.0,0.0,0.0,0.0,0.0,0.0,0.0,-2.4609,-2.4332,-2.4251,-2.4233,-2.3651,-2.3268,0.0,0.0,0.0,0.0,0.0,0.0,0.0,0.0,0.0,0.0,0.0,0.0,0.0,0.0,0.0,0.0,0.0,0.0,0.0,0.0,0.0,0.0,0.0,0.0,0.0,0.0,0.0,0.0,0.0,0.0,0.0,0.0,0.0,0.0,0.0,0.0,0.0,0.0,0.0,0.0,0.0,0.0,0.0,0.0,0.0,0.0,0.0,0.0,0.0,0.0,0.0,0.0,0.0,0.0,0.0,0.0,0.0,0.0,0.0,0.0,0.0,0.0,0.0,0.0,0.0,0.0,0.0,0.0,0.0,0.0,0.0,0.0,0.0,0.0,0.0,0.0,0.0,0.0,0.0,0.0,0.0,0.0,0.0,0.0,0.0,0.0,0.0,0.0,0.0,0.0,0.0,0.0,0.0,0.0,0.0,0.0,0.0,0.0,0.0,0.0,0.0,0.0,0.0,0.0,0.0,0.0,0.0,0.0,0.0,-2.4233,0.0,-2.3755,-2.3935,-2.3502,-2.316,0.0,0.0,0.0,0.0,0.0,0.0,0.0,0.0,0.0,0.0,0.0,0.0,0.0,0.0,0.0,0.0,0.0,0.0,0.0,0.0,0.0,0.0,0.0,0.0,0.0,0.0,0.0,0.0,0.0,0.0,0.0,0.0,0.0,0.0,0.0,0.0,0.0,0.0,0.0,0.0,0.0,0.0,0.0,0.0,0.0,0.0,0.0,0.0,0.0,0.0,0.0,0.0,0.0,0.0,0.0,0.0,0.0,0.0,0.0,0.0,0.0,0.0,0.0,0.0,0.0,0.0,0.0,0.0,0.0,0.0,0.0,0.0,0.0,0.0,0.0,0.0,0.0,0.0,0.0,0.0,0.0,0.0,0.0,0.0,0.0,0.0,0.0,0.0,0.0,0.0,0.0,0.0,0.0,0.0,0.0,0.0,0.0,0.0,0.0,0.0,0.0,0.0,0.0,0.0,0.0,0.0,0.0,0.0,-2.4233,-2.3854,-2.3555,-2.3338,-2.3356,-2.3338,-2.326,0.0,0.0,0.0,0.0,0.0,0.0,0.0,0.0,0.0,0.0,0.0,0.0,0.0,0.0,0.0,0.0,0.0,0.0,0.0,0.0,0.0,0.0,0.0,0.0,0.0,0.0,0.0,0.0,0.0,0.0,0.0,0.0,0.0,0.0,0.0,0.0,0.0,0.0,0.0,0.0,0.0,0.0,0.0,0.0,0.0,0.0,0.0,0.0,0.0,0.0,0.0,0.0,0.0,0.0,0.0,0.0,0.0,0.0,0.0,0.0,0.0,0.0,0.0,0.0,0.0,0.0,0.0,0.0,0.0,0.0,0.0,0.0,0.0,0.0,0.0,0.0,0.0,0.0,0.0,0.0,0.0,0.0,0.0,0.0,0.0,0.0,0.0,0.0,0.0,0.0,0.0,0.0,0.0,0.0,0.0,0.0,0.0,0.0,0.0,0.0,0.0,0.0,0.0,0.0,0.0,0.0,0.0,0.0,0.0,-2.3138,-2.2937,-2.2736,-2.2736,-2.2837,-2.2763,0.0,0.0,0.0,0.0,0.0,0.0,0.0,0.0,0.0,0.0,0.0,0.0,0.0,0.0,0.0,0.0,0.0,0.0,0.0,0.0,0.0,0.0,0.0,0.0,0.0,0.0,0.0,0.0,0.0,0.0,0.0,0.0,0.0,0.0,0.0,0.0,0.0,0.0,0.0,0.0,0.0,0.0,0.0,0.0,0.0,0.0,0.0,0.0,0.0,0.0,0.0,0.0,0.0,0.0,0.0,0.0,0.0,0.0,0.0,0.0,0.0,0.0,0.0,0.0,0.0,0.0,0.0,0.0,0.0,0.0,0.0,0.0,0.0,0.0,0.0,0.0,0.0,0.0,0.0,0.0,0.0,0.0,0.0,0.0,0.0,0.0,0.0,0.0,0.0,0.0,0.0,0.0,0.0,0.0,0.0,0.0,0.0,0.0,0.0,0.0,0.0,0.0,0.0,0.0,0.0,0.0,0.0,0.0,0.0,-2.2333,-2.2232,-2.2232,-2.2232,-2.2215,-2.2214,-2.2192,0.0,0.0,0.0,0.0,0.0,0.0,0.0,0.0,0.0,0.0,0.0,0.0,0.0,0.0,0.0,0.0,0.0,0.0,0.0,0.0,0.0,0.0,0.0,0.0,0.0,0.0,0.0,0.0,0.0,0.0,0.0,0.0,0.0,0.0,0.0,0.0,0.0,0.0,0.0,0.0,0.0,0.0,0.0,0.0,0.0,0.0,0.0,0.0,0.0,0.0,0.0,0.0,0.0,0.0,0.0,0.0,0.0,0.0,0.0,0.0,0.0,0.0,0.0,0.0,0.0,0.0,0.0,0.0,0.0,0.0,0.0,0.0,0.0,0.0,0.0,0.0,0.0,0.0,0.0,0.0,0.0,0.0,0.0,0.0,0.0,0.0,0.0,0.0,0.0,0.0,0.0,0.0,0.0,0.0,0.0,0.0,0.0,0.0,0.0,0.0,0.0,0.0,0.0,0.0,0.0,0.0,0.0,0.0,-2.1334,-2.1522,-2.1623,-2.1623,-2.1623,-2.1725,0.0,0.0,0.0,0.0,0.0,0.0,0.0,0.0,0.0,0.0,0.0,0.0,0.0,0.0,0.0,0.0,0.0,0.0,0.0,0.0,0.0,0.0,0.0,0.0,0.0,0.0,0.0,0.0,0.0,0.0,0.0,0.0,0.0,0.0,0.0,0.0,0.0,0.0,0.0,0.0,0.0,0.0,0.0,0.0,0.0,0.0,0.0,0.0,0.0,0.0,0.0,0.0,0.0,0.0,0.0,0.0,0.0,0.0,0.0,0.0,0.0,0.0,0.0,0.0,0.0,0.0,0.0,0.0,0.0,0.0,0.0,0.0,0.0,0.0,0.0,0.0,0.0,0.0,0.0,0.0,0.0,0.0,0.0,0.0,0.0,0.0,0.0,0.0,0.0,0.0,0.0,0.0,0.0,0.0,0.0,0.0,0.0,0.0,0.0,0.0,0.0,0.0,0.0,0.0,0.0,0.0,0.0,0.0,0.0,-2.1011,-2.0704,-2.0498,-2.0483,-2.0719,-2.0822,0.0,0.0,0.0,0.0,0.0,0.0,0.0,0.0,0.0,0.0,0.0,0.0,0.0,0.0,0.0,0.0,0.0,0.0,0.0,0.0,0.0,0.0,0.0,0.0,0.0,0.0,0.0,0.0,0.0,0.0,0.0,0.0,0.0,0.0,0.0,0.0,0.0,0.0,0.0,0.0,0.0,0.0,0.0,0.0,0.0,0.0,0.0,0.0,0.0,0.0,0.0,0.0,0.0,0.0,0.0,0.0,0.0,0.0,0.0,0.0,0.0,0.0,0.0,0.0,0.0,0.0,0.0,0.0,0.0,0.0,0.0,0.0,0.0,0.0,0.0,0.0,0.0,0.0,0.0,0.0,0.0,0.0,0.0,0.0,0.0,0.0,0.0,0.0,0.0,0.0,0.0,0.0,0.0,0.0,0.0,0.0,0.0,0.0,0.0,0.0,0.0,0.0,0.0,0.0,0.0,0.0,0.0,0.0,-2.1113,-2.0719,-2.0189,-1.9879,-1.9583,-2.0101,-2.0308,0.0,0.0,0.0,0.0,0.0,0.0,0.0,0.0,0.0,0.0,0.0,0.0,0.0,0.0,0.0,0.0,0.0,0.0,0.0,0.0,0.0,0.0,0.0,0.0,0.0,0.0,0.0,0.0,0.0,0.0,0.0,0.0,0.0,0.0,0.0,0.0,0.0,0.0,0.0,0.0,0.0,0.0,0.0,0.0,0.0,0.0,0.0,0.0,0.0,0.0,0.0,0.0,0.0,0.0,0.0,0.0,0.0,0.0,0.0,0.0,0.0,0.0,0.0,0.0,0.0,0.0,0.0,0.0,0.0,0.0,0.0,0.0,0.0,0.0,0.0,0.0,0.0,0.0,0.0,0.0,0.0,0.0,0.0,0.0,0.0,0.0,0.0,0.0,0.0,0.0,0.0,0.0,0.0,0.0,0.0,0.0,0.0,0.0,0.0,0.0,0.0,0.0,0.0,0.0,0.0,0.0,0.0,0.0,-2.0719,-2.0411,-1.9894,-1.9376,-1.8974,-1.9687,-1.9983,0.0,0.0,0.0,0.0,0.0,0.0,0.0,0.0,0.0,0.0,0.0,0.0,0.0,0.0,0.0,0.0,0.0,0.0,0.0,0.0,0.0,0.0,0.0,0.0,0.0,0.0,0.0,0.0,0.0,0.0,0.0,0.0,0.0,0.0,0.0,0.0,0.0,0.0,0.0,0.0,0.0,0.0,0.0,0.0,0.0,0.0,0.0,0.0,0.0,0.0,0.0,0.0,0.0,0.0,0.0,0.0,0.0,0.0,0.0,0.0,0.0,0.0,0.0,0.0,0.0,0.0,0.0,0.0,0.0,0.0,0.0,0.0,0.0,0.0,0.0,0.0,0.0,0.0,0.0,0.0,0.0,0.0,0.0,0.0,0.0,0.0,0.0,0.0,0.0,0.0,0.0,0.0,0.0,0.0,0.0,0.0,0.0,0.0,0.0,0.0,0.0,0.0,0.0,0.0,0.0,0.0,0.0,0.0,-2.0308,-1.9894,-1.9376,-1.8974,-1.8869,-1.9272,-1.9376,0.0,0.0,0.0,0.0,0.0,0.0,0.0,0.0,0.0,0.0,0.0,0.0,0.0,0.0,0.0,0.0,0.0,0.0,0.0,0.0,0.0,0.0,0.0,0.0,0.0,0.0,0.0,0.0,0.0,0.0,0.0,0.0,0.0,0.0,0.0,0.0,0.0,0.0,0.0,0.0,0.0,0.0,0.0,0.0,0.0,0.0,0.0,0.0,-2.6088,0.0,0.0,0.0,0.0,0.0,0.0,0.0,0.0,0.0,0.0,0.0,0.0,0.0,0.0,0.0,0.0,0.0,0.0,0.0,0.0,0.0,0.0,0.0,0.0,0.0,0.0,0.0,0.0,0.0,0.0,0.0,0.0,0.0,0.0,0.0,0.0,0.0,0.0,0.0,0.0,0.0,0.0,0.0,0.0,0.0,0.0,0.0,0.0,0.0,0.0,0.0,0.0,0.0,0.0,0.0,0.0,0.0,0.0,0.0,-1.997,-1.9702,-1.9295,-1.9049,-1.887,-1.9192,-1.9227,0.0,0.0,0.0,0.0,0.0,0.0,0.0,0.0,0.0,0.0,0.0,0.0,0.0,0.0,0.0,0.0,0.0,0.0,0.0,0.0,0.0,0.0,0.0,0.0,0.0,0.0,0.0,0.0,0.0,0.0,0.0,0.0,0.0,0.0,0.0,0.0,0.0,0.0,0.0,0.0,0.0,0.0,0.0,0.0,0.0,0.0,0.0,0.0,0.0,0.0,0.0,0.0,0.0,0.0,0.0,0.0,0.0,0.0,0.0,0.0,0.0,0.0,0.0,0.0,0.0,0.0,0.0,0.0,0.0,0.0,0.0,0.0,0.0,0.0,0.0,0.0,0.0,0.0,0.0,0.0,0.0,0.0,0.0,0.0,0.0,0.0,0.0,0.0,0.0,0.0,0.0,0.0,0.0,0.0,0.0,0.0,0.0,0.0,0.0,0.0,0.0,0.0,0.0,0.0,0.0,0.0,0.0,-2.0178,-1.9702,-1.9706,-1.9399,-1.9203,-1.8906,-1.9071,-1.9181,-1.893,0.0,0.0,0.0,0.0,0.0,0.0,0.0,0.0,0.0,0.0,0.0,0.0,0.0,0.0,0.0,0.0,0.0,0.0,0.0,0.0,0.0,0.0,0.0,0.0,0.0,0.0,0.0,0.0,0.0,0.0,0.0,0.0,0.0,0.0,0.0,0.0,0.0,0.0,-2.5032,-2.5371,0.0,0.0,0.0,0.0,0.0,0.0,0.0,0.0,-2.6591,0.0,0.0,0.0,0.0,0.0,0.0,0.0,0.0,0.0,0.0,0.0,0.0,0.0,0.0,0.0,0.0,0.0,0.0,0.0,0.0,0.0,0.0,0.0,0.0,0.0,0.0,0.0,0.0,0.0,0.0,0.0,0.0,0.0,0.0,0.0,0.0,0.0,0.0,0.0,0.0,0.0,0.0,0.0,0.0,0.0,0.0,0.0,0.0,0.0,0.0,0.0,0.0,0.0,0.0,0.0,0.0,-2.095,-2.0408,-2.0042,-1.9837,-1.9509,-1.9194,-1.8919,-1.8942,-1.8937,-1.8883,0.0,0.0,0.0,0.0,0.0,0.0,0.0,0.0,0.0,0.0,0.0,0.0,0.0,0.0,0.0,0.0,0.0,0.0,0.0,0.0,0.0,0.0,0.0,0.0,0.0,0.0,0.0,0.0,0.0,0.0,0.0,0.0,0.0,0.0,0.0,0.0,0.0,0.0,0.0,-2.5614,-2.6014,0.0,0.0,0.0,0.0,0.0,0.0,0.0,0.0,-2.6554,0.0,0.0,0.0,0.0,0.0,0.0,0.0,0.0,0.0,0.0,0.0,0.0,0.0,0.0,0.0,0.0,0.0,0.0,0.0,0.0,0.0,0.0,0.0,0.0,0.0,0.0,0.0,0.0,0.0,0.0,0.0,0.0,0.0,0.0,0.0,0.0,0.0,0.0,0.0,0.0,0.0,0.0,0.0,0.0,0.0,0.0,0.0,0.0,0.0,0.0,0.0,0.0,0.0,0.0,0.0,-2.0727,-2.0219,-1.9946,-1.9807,-1.9473,-1.9332,-1.9158,-1.9193,-1.9158,0.0,0.0,0.0,0.0,0.0,0.0,0.0,0.0,0.0,0.0,0.0,0.0,0.0,0.0,0.0,0.0,0.0,0.0,0.0,0.0,0.0,0.0,0.0,0.0,0.0,0.0,0.0,0.0,0.0,0.0,0.0,0.0,0.0,0.0,0.0,0.0,0.0,0.0,0.0,0.0,-2.5839,-2.6041,-2.6261,0.0,0.0,0.0,0.0,0.0,0.0,-2.7196,-2.7196,0.0,0.0,0.0,0.0,0.0,0.0,0.0,0.0,0.0,0.0,0.0,0.0,0.0,0.0,0.0,0.0,0.0,0.0,0.0,0.0,0.0,0.0,0.0,0.0,0.0,0.0,0.0,0.0,0.0,0.0,0.0,0.0,0.0,0.0,0.0,0.0,0.0,0.0,0.0,0.0,0.0,0.0,0.0,0.0,0.0,0.0,0.0,0.0,0.0,0.0,0.0,0.0,0.0,0.0,0.0,-2.0639,-2.012,-1.9835,-1.9779,-1.9566,-1.9374,-1.9439,-1.9452,-1.9479,0.0,0.0,0.0,0.0,0.0,0.0,0.0,0.0,0.0,0.0,0.0,0.0,0.0,0.0,0.0,0.0,0.0,0.0,0.0,0.0,0.0,0.0,0.0,0.0,0.0,0.0,0.0,0.0,0.0,0.0,0.0,0.0,0.0,0.0,0.0,0.0,0.0,0.0,0.0,0.0,0.0,-2.6224,-2.6646,-2.6701,0.0,0.0,0.0,0.0,-2.7596,-2.7651,0.0,0.0,0.0,0.0,0.0,0.0,0.0,0.0,0.0,0.0,0.0,0.0,0.0,0.0,0.0,0.0,0.0,0.0,0.0,0.0,0.0,0.0,0.0,0.0,0.0,0.0,0.0,0.0,0.0,0.0,0.0,0.0,0.0,0.0,0.0,0.0,0.0,0.0,0.0,0.0,0.0,0.0,0.0,0.0,0.0,0.0,0.0,0.0,0.0,0.0,0.0,0.0,0.0,0.0,0.0,0.0,-2.0647,-2.0341,-2.0033,-1.9855,-1.9768,-1.9788,-1.9746,-1.9746,-1.9867,0.0,0.0,0.0,0.0,0.0,0.0,0.0,0.0,0.0,0.0,0.0,0.0,0.0,0.0,0.0,0.0,0.0,0.0,0.0,0.0,0.0,0.0,0.0,0.0,0.0,0.0,0.0,0.0,0.0,0.0,0.0,0.0,0.0,0.0,0.0,0.0,0.0,0.0,0.0,0.0,0.0,-2.6664,-2.705,-2.6882,-2.6785,0.0,0.0,-2.6911,-2.7308,-2.7326,0.0,0.0,0.0,0.0,0.0,0.0,0.0,0.0,0.0,0.0,0.0,0.0,0.0,0.0,0.0,0.0,0.0,0.0,0.0,0.0,0.0,0.0,0.0,0.0,0.0,0.0,0.0,0.0,0.0,0.0,0.0,0.0,0.0,0.0,0.0,0.0,0.0,0.0,0.0,0.0,0.0,0.0,0.0,0.0,0.0,0.0,0.0,0.0,0.0,0.0,0.0,0.0,0.0,0.0,0.0,-2.055,-2.0629,-2.0486,-2.0178,-2.0068,-1.9996,-2.0026,-2.004,-2.0054,-2.0107,0.0,0.0,0.0,0.0,0.0,0.0,0.0,0.0,0.0,0.0,0.0,0.0,0.0,0.0,0.0,0.0,0.0,0.0,0.0,0.0,0.0,0.0,0.0,0.0,0.0,0.0,0.0,0.0,0.0,0.0,0.0,0.0,0.0,0.0,0.0,0.0,0.0,0.0,0.0,0.0,0.0,0.0,-2.6888,-2.6828,0.0,0.0,0.0,-2.7257,-2.7605,0.0,0.0,0.0,0.0,0.0,0.0,0.0,0.0,0.0,0.0,0.0,0.0,0.0,0.0,0.0,0.0,0.0,0.0,0.0,0.0,0.0,0.0,0.0,0.0,0.0,0.0,0.0,0.0,0.0,0.0,0.0,0.0,0.0,0.0,0.0,0.0,0.0,0.0,0.0,0.0,0.0,0.0,0.0,0.0,0.0,0.0,0.0,0.0,0.0,0.0,0.0,0.0,0.0,0.0,0.0,0.0,0.0,-2.0614,-2.0455,-2.0383,-2.0264,-2.0241,-2.0267,-2.0347,-2.0347,0.0,0.0,0.0,0.0,0.0,0.0,0.0,0.0,0.0,0.0,0.0,0.0,0.0,0.0,0.0,0.0,0.0,0.0,0.0,0.0,0.0,0.0,0.0,0.0,0.0,0.0,0.0,-2.3696,0.0,0.0,0.0,0.0,0.0,0.0,0.0,0.0,0.0,0.0,0.0,0.0,0.0,0.0,-2.6661,-2.6822,-2.6644,-2.6819,0.0,0.0,-2.7519,-2.8008,-2.8078,-2.8321,0.0,0.0,0.0,0.0,0.0,0.0,0.0,0.0,0.0,0.0,0.0,0.0,0.0,0.0,0.0,0.0,0.0,0.0,0.0,0.0,0.0,0.0,0.0,0.0,0.0,0.0,0.0,0.0,0.0,0.0,0.0,0.0,0.0,0.0,0.0,0.0,0.0,0.0,0.0,0.0,0.0,0.0,0.0,0.0,0.0,0.0,0.0,0.0,0.0,0.0,0.0,0.0,0.0,0.0,0.0,-2.0364,-2.0534,-2.0563,-2.0201,-2.0227,-2.0361,-2.0641,-2.0641,-2.0775,0.0,0.0,0.0,0.0,0.0,0.0,0.0,0.0,0.0,0.0,0.0,0.0,0.0,0.0,0.0,0.0,0.0,0.0,0.0,0.0,0.0,0.0,0.0,0.0,0.0,0.0,0.0,0.0,0.0,0.0,0.0,0.0,0.0,0.0,0.0,0.0,0.0,0.0,0.0,0.0,0.0,-2.6493,-2.6859,-2.6456,-2.6251,0.0,0.0,-2.7317,-2.8049,-2.8369,-2.8745,-2.8977,0.0,0.0,0.0,0.0,0.0,0.0,0.0,0.0,0.0,0.0,0.0,0.0,0.0,0.0,0.0,0.0,0.0,0.0,0.0,0.0,0.0,0.0,0.0,0.0,0.0,0.0,0.0,0.0,0.0,0.0,0.0,0.0,0.0,0.0,0.0,0.0,0.0,0.0,0.0,0.0,0.0,0.0,0.0,0.0,0.0,0.0,0.0,0.0,0.0,0.0,0.0,0.0,0.0,-2.0787,-2.0547,-2.0605,-2.0631,-2.0521,-2.0681,-2.0828,-2.0935,-2.0949,-2.1002,0.0,0.0,0.0,0.0,0.0,0.0,0.0,0.0,0.0,0.0,0.0,0.0,0.0,0.0,0.0,0.0,0.0,0.0,0.0,0.0,0.0,0.0,0.0,0.0,0.0,0.0,0.0,0.0,-2.4603,-2.5111,-2.59,0.0,0.0,0.0,0.0,0.0,0.0,0.0,0.0,0.0,0.0,-2.6253,-2.6604,-2.6444,0.0,0.0,-2.7084,-2.726,-2.7773,-2.7933,-2.8186,-2.8706,-2.8957,0.0,0.0,0.0,0.0,0.0,0.0,0.0,0.0,0.0,0.0,0.0,0.0,0.0,0.0,0.0,0.0,0.0,0.0,0.0,0.0,0.0,0.0,0.0,0.0,0.0,0.0,0.0,0.0,0.0,0.0,0.0,0.0,0.0,0.0,0.0,0.0,0.0,0.0,0.0,0.0,0.0,0.0,0.0,0.0,0.0,0.0,0.0,0.0,0.0,0.0,0.0,0.0,-2.0727,-2.0727,-2.0859,-2.0935,-2.0935,-2.1229,-2.1363,-2.1376,-2.1376,-2.1363,0.0,0.0,0.0,0.0,0.0,0.0,0.0,0.0,0.0,0.0,0.0,0.0,0.0,0.0,0.0,0.0,0.0,0.0,0.0,0.0,0.0,0.0,0.0,0.0,0.0,0.0,0.0,0.0,-2.4729,-2.5439,-2.6278,0.0,0.0,0.0,0.0,0.0,0.0,0.0,0.0,0.0,0.0,-2.5978,-2.6319,-2.6165,-2.6278,-2.6761,-2.6954,-2.7115,-2.7599,-2.7744,-2.8017,-2.8545,0.0,0.0,0.0,0.0,0.0,0.0,0.0,0.0,0.0,0.0,0.0,0.0,0.0,0.0,0.0,0.0,0.0,0.0,0.0,0.0,0.0,0.0,0.0,0.0,0.0,0.0,0.0,0.0,0.0,0.0,0.0,0.0,0.0,0.0,0.0,0.0,0.0,0.0,0.0,0.0,0.0,0.0,0.0,0.0,0.0,0.0,0.0,0.0,0.0,0.0,0.0,0.0,0.0,-2.0916,-2.0681,-2.1243,-2.1523,-2.1537,-2.1817,-2.1951,-2.1951,-2.1964,-2.1964,-2.1951,0.0,0.0,0.0,0.0,0.0,0.0,0.0,0.0,0.0,0.0,0.0,0.0,0.0,0.0,0.0,0.0,0.0,0.0,0.0,0.0,0.0,0.0,0.0,0.0,0.0,0.0,-2.4023,-2.486,-2.5729,0.0,0.0,0.0,0.0,0.0,0.0,0.0,0.0,0.0,0.0,-2.5846,-2.5613,-2.5576,-2.5381,-2.5375,-2.609,-2.653,-2.6919,-2.7635,-2.7965,-2.8246,0.0,0.0,0.0,0.0,0.0,0.0,0.0,0.0,0.0,0.0,0.0,0.0,0.0,0.0,0.0,0.0,0.0,0.0,0.0,0.0,0.0,0.0,0.0,0.0,0.0,0.0,0.0,-1.7007,-1.7021,0.0,0.0,0.0,0.0,0.0,0.0,0.0,0.0,0.0,0.0,0.0,-1.8357,-1.8637,0.0,0.0,0.0,0.0,0.0,0.0,0.0,0.0,0.0,0.0,0.0,0.0,-2.1383,-2.1283,-2.1643,-2.1844,-2.1844,-2.1937,-2.1991,-2.1991,-2.1991,-2.1991,-2.1991,0.0,0.0,0.0,0.0,0.0,0.0,0.0,0.0,0.0,0.0,0.0,0.0,0.0,0.0,0.0,0.0,0.0,0.0,0.0,0.0,0.0,0.0,0.0,0.0,0.0,-2.2976,0.0,0.0,0.0,0.0,0.0,0.0,0.0,0.0,0.0,0.0,0.0,-2.6339,-2.6072,-2.5579,-2.5334,-2.5543,-2.5657,-2.5901,0.0,0.0,0.0,0.0,0.0,0.0,0.0,0.0,0.0,0.0,0.0,0.0,0.0,0.0,-3.0183,-3.0467,-3.0638,-3.0692,-3.0942,0.0,0.0,0.0,0.0,0.0,0.0,0.0,0.0,0.0,0.0,0.0,0.0,0.0,0.0,0.0,0.0,-1.7609,0.0,0.0,0.0,0.0,0.0,0.0,0.0,0.0,-1.8597,-1.8637,-1.8664,-1.9052,-1.9225,0.0,-1.972,-1.9907,0.0,0.0,0.0,0.0,0.0,0.0,0.0,0.0,-2.171,-2.171,-2.1991,-2.2138,-2.2138,-2.2245,-2.2285,-2.2298,-2.2298,-2.2285,-2.2285,-2.2298,-2.2245,0.0,0.0,0.0,0.0,0.0,0.0,0.0,0.0,0.0,0.0,0.0,0.0,0.0,0.0,0.0,0.0,0.0,0.0,0.0,0.0,0.0,0.0,0.0,-2.3122,0.0,0.0,0.0,0.0,0.0,0.0,0.0,0.0,0.0,-2.7094,-2.6501,-2.6055,-2.5778,-2.5397,-2.5333,-2.5531,0.0,0.0,0.0,0.0,0.0,0.0,0.0,-2.8233,-2.8095,-2.8095,-2.8233,-2.8233,-2.851,-2.8802,-2.9077,0.0,0.0,-3.0327,-3.0505,-3.0725,-3.1088,-3.1274,-3.1612,-3.1729,-3.2186,-3.2454,0.0,0.0,0.0,0.0,0.0,0.0,0.0,0.0,-1.7609,-1.7622,0.0,-1.7929,0.0,0.0,0.0,0.0,0.0,0.0,0.0,0.0,-1.8838,-1.8958,-1.9011,-1.9546,-1.9813,-1.984,-2.0107,-2.0401,-2.0655,-2.0414,0.0,0.0,0.0,0.0,0.0,0.0,-2.2004,-2.2004,-2.2285,-2.2432,-2.2458,-2.2726,-2.2886,-2.2886,-2.2886,-2.2873,-2.2873,-2.2859,-2.2726,-2.2445,-2.2432,0.0,0.0,0.0,0.0,0.0,0.0,0.0,0.0,0.0,0.0,0.0,0.0,0.0,0.0,0.0,0.0,0.0,0.0,0.0,0.0,-2.3033,0.0,0.0,0.0,0.0,0.0,0.0,0.0,0.0,0.0,0.0,-2.6118,-2.6071,-2.5794,-2.5231,0.0,0.0,0.0,0.0,-2.6173,-2.6608,-2.6608,-2.6764,-2.7028,-2.7153,-2.7168,-2.7168,0.0,0.0,-2.7571,-2.7586,-2.788,-2.8558,-2.8712,-2.9094,-3.0224,-3.0599,-3.0972,-3.1278,-3.1414,-3.1549,-3.1566,-3.1908,-3.216,-1.7903,0.0,0.0,0.0,0.0,-1.8143,-1.8237,-1.8223,-1.8237,-1.8223,-1.8237,-1.833,0.0,0.0,0.0,0.0,0.0,0.0,-1.9225,-1.9426,-1.9519,-1.9653,-1.9867,-2.0027,-2.0107,-2.012,-2.0414,-2.0695,-2.0989,-2.1109,-2.1216,-2.1309,0.0,0.0,0.0,0.0,-2.2298,-2.2311,-2.2579,-2.2846,-2.306,-2.3153,-2.33,-2.35,-2.33,-2.3193,-2.3193,-2.2979,-2.2819,-2.2739,-2.2739,0.0,0.0,0.0,0.0,0.0,0.0,0.0,0.0,0.0,0.0,0.0,0.0,0.0,0.0,0.0,0.0,0.0,0.0,0.0,-2.2346,-2.2846,-2.3292,0.0,0.0,0.0,0.0,0.0,0.0,0.0,0.0,0.0,-2.6072,-2.6072,-2.5967,0.0,0.0,-2.5908,-2.5871,-2.6164,-2.6369,-2.6511,0.0,0.0,0.0,-2.7696,-2.7696,-2.7553,-2.741,-2.7553,-2.7553,-2.784,-2.7998,-2.8268,-2.8553,-2.8917,-2.9695,-2.9864,-2.9914,-3.022,-3.0702,-3.1219,-3.16,-3.2087,-3.2574,-1.8277,-1.7956,-1.8143,-1.8223,-1.8237,-1.841,-1.849,-1.849,-1.849,-1.849,-1.8504,-1.8611,-1.8664,-1.8691,-1.9092,0.0,0.0,0.0,-1.98,-1.9973,-1.9973,-2.0067,-2.0227,-2.0347,-2.0468,-2.0588,-2.0882,-2.1176,-2.1456,-2.163,-2.179,-2.1897,0.0,0.0,-2.2164,-2.2565,-2.2779,-2.2792,-2.3073,-2.3313,-2.35,-2.35,-2.3594,-2.3754,-2.3594,-2.35,-2.35,-2.3327,-2.322,-2.322,-2.322,-2.3086,0.0,0.0,0.0,0.0,0.0,0.0,0.0,0.0,0.0,0.0,0.0,-2.1456,-2.1456,0.0,0.0,0.0,-2.1724,-2.1921,-2.249,-2.2745,0.0,0.0,0.0,0.0,0.0,0.0,0.0,-2.5555,-2.5869,-2.5988,-2.5586,-2.5688,-2.5731,-2.574,-2.5722,-2.5783,-2.5768,0.0,-2.6445,-2.6445,-2.6851,-2.7201,-2.7201,-2.7349,-2.7497,-2.7349,-2.7201,-2.7201,-2.7201,-2.7497,-2.7792,-2.8086,-2.838,-2.8881,-2.9408,-2.936,-2.9567,-3.0348,-3.0826,-3.1338,-3.154,-3.2165,-3.2806,-1.8637,-1.8624,-1.8624,-1.8597,-1.8531,-1.8544,-1.8571,-1.8597,-1.8597,-1.8611,-1.8651,-1.8918,-1.9025,-1.9065,-1.9586,0.0,0.0,-2.012,-2.0241,-2.0267,-2.0281,-2.0321,-2.0361,-2.0641,-2.0922,-2.1189,-2.1456,-2.1737,-2.2004,-2.2017,-2.2178,-2.2485,-2.2485,-2.2498,-2.2525,-2.3073,-2.3367,-2.3367,-2.3634,-2.3781,-2.3808,-2.3821,-2.3834,-2.3848,-2.3821,-2.3808,-2.3808,-2.3781,-2.3781,-2.3768,-2.3781,-2.3647,-2.338,0.0,0.0,0.0,0.0,0.0,0.0,0.0,0.0,0.0,0.0,0.0,0.0,0.0,0.0,0.0,-2.2044,0.0,-2.244,-2.2859,0.0,0.0,0.0,-2.4148,-2.4414,-2.4719,-2.4833,-2.4834,0.0,0.0,-2.4904,0.0,-2.531,-2.5442,-2.5369,-2.5408,-2.5408,-2.5898,-2.629,-2.6262,-2.6514,-2.671,-2.6805,-2.6819,-2.6805,-2.6805,-2.6724,-2.6682,-2.6833,-2.6985,-2.733,-2.7754,-2.8071,-2.8537,-2.9033,-2.8987,-2.9482,-3.0972,-3.1367,-3.1334,-3.1318,-3.2036,-3.2492,-1.9813,-1.9813,-1.9826,-1.9439,-1.8838,-1.9065,-1.9279,-1.9492,-1.9492,-1.9613,-1.9826,-1.9893,-1.992,-1.992,-2.0067,-2.0134,-2.0134,-2.0201,-2.0361,-2.0588,-2.0802,-2.1015,-2.1256,-2.1537,-2.171,-2.1777,-2.1857,-2.2031,-2.2311,-2.2311,-2.2579,-2.3086,-2.3113,-2.3113,-2.3126,-2.3487,-2.3674,-2.3674,-2.3741,-2.3888,-2.4102,-2.4315,-2.4436,-2.4436,-2.4222,-2.4102,-2.4102,-2.3888,-2.3781,-2.3781,-2.3781,-2.3741,-2.3674,-2.3674,0.0,0.0,0.0,0.0,0.0,0.0,0.0,0.0,0.0,-2.1991,-2.1991,0.0,-2.2084,0.0,-2.2512,-2.2659,-2.2795,-2.3077,0.0,0.0,-2.394,-2.4286,-2.4355,-2.4623,-2.4792,-2.4862,-2.5072,-2.5226,-2.5226,-2.5423,-2.5593,-2.5658,-2.5848,-2.6024,-2.6038,-2.6346,-2.6598,-2.6612,-2.6682,-2.671,-2.6752,-2.6724,-2.6752,-2.6724,-2.6738,-2.6724,-2.6724,-2.671,-2.6875,-2.7027,-2.733,-2.7871,-2.8424,-2.8758,-2.932,-3.0252,-3.0545,-3.0611,-3.0611,-3.1236,-3.1909,-2.0241,-2.0241,-2.0241,-1.9947,-1.9519,-1.9679,-1.984,-1.9987,-2.0,-2.008,-2.0241,-2.0241,-2.0241,-2.0241,-2.0374,-2.0494,-2.0628,-2.0762,-2.0975,-2.1256,-2.1416,-2.159,-2.175,-2.1911,-2.2044,-2.2178,-2.2311,-2.2525,-2.2819,-2.2953,-2.3193,-2.3527,-2.3661,-2.3714,-2.3728,-2.3875,-2.3968,-2.3968,-2.4088,-2.4235,-2.4396,-2.4556,-2.4636,-2.4636,-2.4476,-2.4396,-2.4396,-2.4249,-2.4155,-2.4155,-2.4155,-2.4088,-2.3968,-2.3968,-2.3915,0.0,0.0,0.0,0.0,0.0,0.0,0.0,0.0,0.0,0.0,0.0,-2.2498,0.0,-2.31,-2.326,-2.326,-2.342,-2.3527,-2.3527,-2.3816,-2.4106,-2.4228,-2.4371,-2.4556,-2.4692,-2.498,-2.5157,-2.5171,-2.5432,-2.558,-2.558,-2.5827,-2.6019,-2.591,-2.6129,-2.632,-2.6474,-2.643,-2.6566,-2.6676,-2.6703,-2.6758,-2.6881,-2.6908,-2.6908,-2.6908,-2.7065,-2.7236,-2.7236,-2.7535,-2.7905,-2.8389,-2.8733,-2.9292,-2.9523,-3.0141,-3.03,-3.0451,-3.0988,-3.1638,-2.0454,-2.0454,-2.0454,-2.0454,-2.0468,-2.0454,-2.0388,-2.0294,-2.0281,-2.0334,-2.0401,-2.0441,-2.0454,-2.0468,-2.0722,-2.0975,-2.1229,-2.1496,-2.175,-2.1977,-2.2017,-2.2044,-2.2044,-2.2124,-2.2298,-2.2539,-2.2846,-2.3126,-2.3394,-2.3647,-2.3794,-2.3834,-2.4075,-2.4222,-2.4262,-2.4302,-2.4302,-2.4262,-2.4543,-2.469,-2.469,-2.473,-2.4743,-2.4756,-2.4743,-2.4743,-2.4743,-2.4716,-2.469,-2.469,-2.4649,-2.4529,-2.4275,-2.4262,-2.4142,0.0,-2.3875,0.0,0.0,0.0,0.0,0.0,0.0,0.0,0.0,-2.2979,-2.31,-2.3367,-2.3621,-2.3781,-2.3781,-2.3808,-2.3834,-2.3821,-2.3861,-2.3995,-2.4275,-2.4315,-2.4422,-2.4716,-2.4983,-2.513,-2.513,-2.5384,-2.5571,-2.5598,-2.5865,-2.6141,-2.5772,-2.5919,-2.6249,-2.6066,-2.6319,-2.6733,-2.6774,-2.6854,-2.6921,-2.7175,-2.7337,-2.7268,-2.7364,-2.7541,-2.7731,-2.788,-2.7987,-2.8339,-2.8395,-2.8868,-2.9029,-2.9163,-2.9822,-3.039,-3.0612,-3.1148,-3.176,-2.1657,-2.1657,-2.1657,-2.1657,-2.1657,-2.1657,-2.1243,-2.0588,-2.0588,-2.0855,-2.1309,-2.155,-2.1657,-2.1657,-2.171,-2.1764,-2.1817,-2.1871,-2.1937,-2.1991,-2.2231,-2.2338,-2.2365,-2.2846,-2.31,-2.3166,-2.346,-2.3634,-2.3688,-2.3741,-2.3888,-2.4115,-2.4182,-2.4315,-2.4556,0.0,0.0,0.0,-2.485,-2.4997,-2.501,-2.5224,-2.5344,-2.5344,-2.5344,0.0,-2.5344,-2.5117,-2.4997,-2.4983,-2.477,0.0,0.0,0.0,0.0,0.0,0.0,0.0,0.0,0.0,0.0,0.0,-2.3661,-2.3594,-2.3594,-2.3607,-2.3621,-2.3674,-2.3741,-2.3781,-2.3781,-2.3981,-2.4128,-2.4128,-2.4329,-2.4583,-2.4877,-2.4903,-2.5024,-2.5317,-2.5398,-2.5424,-2.5451,-2.5692,-2.5879,-2.5919,-2.6319,-2.6613,-2.6573,-2.66,-2.6653,-2.668,-2.6881,-2.7094,-2.7175,-2.7188,-2.7201,-2.7255,-2.7268,-2.7295,-2.7308,-2.7308,-2.7458,-2.7485,-2.7758,-2.8125,-2.8111,-2.8395,-2.8641,-2.8734,-2.9271,-3.001,-3.0495,-3.0946,-3.1312,-2.1991,0.0,-2.1991,-2.1991,0.0,-2.1991,-2.1737,-2.1323,-2.1323,-2.1496,-2.1777,-2.1924,-2.1991,-2.1991,-2.1991,-2.2071,-2.2191,-2.2205,-2.2365,-2.2659,-2.2806,-2.2953,-2.3086,-2.3407,-2.3554,-2.3554,-2.3834,-2.3981,-2.3995,-2.4128,-2.4356,-2.4636,-2.4636,-2.4783,-2.5064,-2.5224,-2.5224,-2.5077,-2.5211,-2.5291,-2.5304,-2.5438,-2.5518,-2.5518,0.0,0.0,0.0,0.0,0.0,0.0,0.0,0.0,0.0,0.0,0.0,-2.4266,-2.4402,-2.442,-2.4143,-2.4276,-2.4356,-2.4209,-2.4195,-2.4075,-2.3794,-2.3901,-2.3981,-2.3995,-2.4115,-2.4195,-2.4209,-2.4329,-2.4476,-2.4623,-2.477,-2.497,-2.5237,-2.5291,-2.5344,-2.5491,-2.5638,-2.5732,-2.5745,-2.6119,-2.636,-2.64,-2.676,-2.7041,-2.7041,-2.7041,-2.7041,-2.7041,-2.7148,-2.7321,-2.7442,-2.7482,-2.7549,-2.7669,-2.7829,-2.7923,-2.7936,-2.8043,-2.8136,-2.815,-2.8305,-2.8487,-2.8473,-2.881,-2.9132,-2.9146,-2.9593,-3.0183,-3.0499,-3.0851,-3.1242,-2.2005,-2.2005,-2.2005,-2.2018,-2.2005,-2.2058,-2.2111,-2.2151,0.0,0.0,0.0,-2.2111,-2.2138,-2.2151,-2.2191,-2.2352,-2.2579,-2.2632,-2.2926,-2.3394,-2.3407,-2.3541,-2.3768,-2.3821,-2.3848,-2.3861,-2.4142,-2.4315,-2.4369,-2.4596,-2.4863,-2.513,-2.5157,-2.5304,-2.5571,-2.5598,-2.5638,-2.5732,-2.5651,-2.5585,-2.5585,-2.5638,-2.5665,-2.5665,-2.5665,-2.5665,-2.5665,-2.5458,-2.5431,-2.5431,-2.5072,-2.4739,-2.4739,-2.4431,-2.4163,-2.3947,-2.4237,-2.4285,-2.4214,-2.4486,-2.4648,-2.4796,-2.4796,-2.4543,-2.3968,-2.4142,-2.4302,-2.4356,-2.4583,-2.473,-2.4783,-2.4796,-2.489,-2.513,-2.5157,-2.5277,-2.5545,-2.5585,-2.5638,-2.5745,-2.5985,-2.6132,-2.6226,-2.66,-2.6907,-2.6934,-2.7148,-2.7402,-2.7468,-2.7428,-2.7402,-2.7535,-2.7615,-2.7642,-2.7869,-2.7976,-2.8043,-2.827,-2.8511,-2.8671,-2.8724,-2.8885,-2.9018,-2.8938,-2.9032,-2.8991,-2.9018,-2.9298,-2.9553,-2.9553,-2.9886,-3.0232,-3.0377,-3.0766,-3.1277,-2.1782,-2.1782,-2.1782,-2.1782,-2.1808,-2.2038,-2.2294,-2.2461,-2.2413,-2.2352,-2.2378,-2.2632,-2.2739,-2.2752,-2.302,-2.3166,-2.3207,-2.346,-2.3634,0.0,-2.3714,-2.3728,-2.3781,-2.4022,-2.4142,-2.4168,-2.4436,-2.4716,-2.4943,-2.4997,-2.517,-2.5424,-2.5451,-2.5598,-2.5865,-2.5892,-2.6132,-2.6613,-2.6146,-2.5892,-2.5905,-2.6132,-2.6266,-2.6266,-2.6266,-2.6266,-2.6266,-2.5713,-2.5257,-2.5257,-2.4714,-2.4265,-2.4278,-2.429,-2.4252,-2.4214,-2.4214,-2.4355,-2.4775,-2.4775,-2.4927,-2.5384,-2.5384,-2.5144,-2.4583,-2.4556,-2.4676,-2.4917,-2.4997,-2.5117,-2.5344,-2.5371,-2.5371,-2.5438,-2.5451,-2.5571,-2.5879,-2.5919,-2.6092,-2.6533,-2.6667,-2.6787,-2.6974,-2.7121,-2.7215,-2.7255,-2.7535,-2.7829,-2.8163,-2.7963,-2.7909,-2.8283,-2.8417,-2.8537,-2.8684,-2.8845,-2.8804,-2.8911,-2.8925,-2.8978,-2.8978,-2.9058,-2.9112,-2.9058,-2.9098,-2.9085,-2.9085,-2.9045,-2.9259,-2.9273,-2.9621,-2.9781,-2.9996,-3.0455,-3.102,-2.223,-2.223,-2.223,-2.223,-2.2243,-2.237,-2.2497,-2.2586,-2.2486,-2.2445,-2.2471,-2.2728,-2.2793,-2.2806,-2.3077,-2.3285,-2.3298,-2.3572,-2.3861,-2.4008,-2.4008,-2.4088,-2.4262,-2.4543,-2.4676,-2.4703,-2.497,-2.5184,-2.5304,-2.5317,-2.5464,-2.5745,-2.5905,-2.6132,-2.6413,-2.6426,-2.664,-2.7041,-2.664,-2.6507,-2.6667,-2.68,-2.6867,-2.6854,-2.6706,-2.6558,-2.6545,-2.5931,-2.5693,-2.5706,-2.4958,-2.4648,-2.4635,-2.4182,-2.3877,-2.3741,-2.404,-2.4133,-2.4124,-2.4585,-2.5045,-2.5198,-2.5352,-2.5398,-2.5144,-2.5104,-2.517,-2.5304,-2.5317,-2.5371,-2.5491,-2.5518,-2.5571,-2.5745,-2.5758,-2.5945,-2.6333,-2.6426,-2.66,-2.6974,-2.7068,-2.7108,-2.7255,-2.7402,-2.7575,-2.7736,-2.811,-2.8537,-2.8804,-2.8617,-2.8511,-2.8778,-2.8845,-2.8885,-2.9018,-2.9045,-2.9045,-2.9045,-2.9179,-2.9272,-2.9299,-2.9379,-2.9499,-2.9513,-2.9513,-2.9513,-2.9513,-2.9513,-2.9513,-2.9513,-2.9689,-2.9907,-3.0069,-3.0698,-3.1248,-2.2337,-2.2337,-2.2337,-2.2375,-2.2425,-2.2425,-2.2463,-2.2513,-2.2513,-2.2513,-2.2501,-2.2532,-2.2624,-2.2624,-2.2962,-2.3145,-2.3158,-2.3497,-2.3839,-2.409,-2.4103,-2.4261,-2.4525,-2.4776,-2.4869,-2.4895,-2.5259,-2.5391,-2.5445,-2.5611,-2.5798,-2.6146,-2.644,-2.6707,-2.6921,-2.6921,-2.7068,-2.7321,-2.6972,-2.6945,-2.7255,-2.7268,-2.7105,-2.7105,-2.6613,-2.6462,-2.6462,-2.5956,-2.5792,-2.5779,-2.5099,-2.4812,-2.4812,-2.4292,-2.3925,-2.3744,-2.4038,-2.4098,-2.4046,-2.4659,-2.5127,-2.5127,-2.5439,-2.5763,-2.575,-2.5905,-2.5812,-2.5651,-2.5611,-2.5665,-2.5812,-2.5838,-2.5919,-2.6213,-2.6253,-2.644,-2.6841,-2.6921,-2.7041,-2.7308,-2.7362,-2.7402,-2.7562,-2.7762,-2.8016,-2.835,-2.8818,-2.9112,-2.9138,-2.9179,-2.9232,-2.9232,-2.9192,-2.9192,-2.9219,-2.9259,-2.9272,-2.9232,-2.9499,-2.9673,-2.974,-2.9927,-3.0087,-3.0114,-3.0114,-3.0114,-3.0114,-3.0114,-3.0114,-3.0114,-3.0114,-3.0181,-3.0368,-3.0921,-3.1368,-2.1631,-2.1618,-2.1667,-2.1764,-2.1983,-2.1995,-2.2129,-2.2323,-2.2335,-2.2335,-2.2447,-2.2551,-2.265,-2.265,-2.2891,-2.3006,-2.3044,-2.326,-2.3664,-2.3894,-2.3782,-2.3922,-2.4303,-2.4214,-2.4227,-2.4393,-2.4752,-2.5075,-2.5296,-2.5777,-2.6199,-2.672,-2.7041,-2.7188,-2.7228,-2.7228,-2.7375,-2.7655,-2.7144,-2.7013,-2.7281,-2.6941,-2.6626,-2.6626,-2.6298,-2.5956,-2.5995,-2.5627,-2.5298,-2.5298,-2.4943,-2.4589,-2.4589,-2.4552,-2.454,-2.4504,-2.4504,-2.4668,-2.5124,-2.564,-2.5753,-2.5804,-2.6242,-2.6405,-2.6405,-2.6905,-2.6747,-2.6159,-2.5932,-2.6172,-2.6613,-2.6667,-2.6747,-2.6974,-2.7054,-2.7175,-2.7201,-2.7228,-2.7335,-2.7615,-2.7722,-2.7856,-2.8323,-2.8484,-2.8631,-2.8871,-2.9205,-2.9446,-2.9459,-2.9646,-2.9793,-2.9766,-2.9633,-2.9593,-2.9753,-2.9833,-2.9833,-2.986,-3.0074,-3.0207,-3.0287,-3.0448,-3.0702,-3.0541,-3.0635,-3.0621,-3.0648,-3.0702,-3.0662,-3.0595,-3.0621,-3.0715,-3.0755,-3.0822,-3.115,-2.2271,-2.2404,-2.2404,-2.2464,-2.2561,-2.2561,-2.2621,-2.2718,-2.273,-2.273,-2.2846,-2.279,-2.2768,-2.2621,-2.303,-2.3154,-2.3317,-2.3719,-2.3985,-2.4087,-2.41,-2.4163,-2.4278,-2.4443,-2.4519,-2.4545,-2.4854,-2.5084,-2.5499,-2.584,-2.6047,-2.6255,-2.6397,-2.6527,-2.6682,-2.6695,-2.6838,-2.711,-2.7122,-2.7148,-2.7201,-2.6865,-2.6787,-2.662,-2.6285,-2.5937,-2.5937,-2.5613,-2.5276,-2.5264,-2.4963,-2.4878,-2.4878,-2.4721,-2.4625,-2.4625,-2.4625,-2.4625,-2.4955,-2.5298,-2.5627,-2.5627,-2.5956,-2.6298,-2.6626,-2.6777,-2.6782,-2.6814,-2.672,-2.6841,-2.7054,-2.7081,-2.7134,-2.7241,-2.7268,-2.7335,-2.7509,-2.7682,-2.7909,-2.819,-2.839,-2.8551,-2.8831,-2.9018,-2.9165,-2.9325,-2.9553,-2.9726,-2.9753,-2.9993,-3.0154,-3.0194,-3.0207,-3.0221,-3.0221,-3.0341,-3.0394,-3.0448,-3.0528,-3.0608,-3.0635,-3.0688,-3.0782,-3.0808,-3.0835,-3.0835,-3.0755,-3.0795,-3.0795,-3.0835,-3.0982,-3.1049,-3.1049,-3.1196,-3.1477,-2.2862,-2.3031,-2.3043,-2.3043,-2.3043,-2.3043,-2.3043,-2.3043,-2.3043,-2.3043,-2.3043,-2.3043,-2.2983,-2.2874,-2.3096,-2.3322,-2.3482,-2.3803,-2.3853,-2.3915,-2.3915,-2.3965,-2.4053,-2.4472,-2.4598,-2.4648,-2.4899,-2.5299,-2.5677,-2.5944,-2.6071,-2.6084,-2.6147,-2.6287,-2.6478,-2.6554,-2.6694,-2.691,-2.7005,-2.7144,-2.7106,-2.6782,-2.6682,-2.6841,-2.6326,-2.6155,-2.6155,-2.5823,-2.5651,-2.5639,-2.547,-2.5361,-2.5361,-2.5108,-2.4927,-2.4854,-2.4854,-2.4854,-2.4854,-2.5188,-2.5354,-2.5354,-2.5687,-2.6185,-2.6364,-2.6594,-2.6965,-2.731,-2.7529,-2.7529,-2.7402,-2.7388,-2.7442,-2.7589,-2.7629,-2.7749,-2.8056,-2.8283,-2.847,-2.8711,-2.8845,-2.9072,-2.9179,-2.9392,-2.9593,-2.9633,-2.9847,-3.0034,-3.0074,-3.0274,-3.0474,-3.0501,-3.0715,-3.0768,-3.0555,-3.0608,-3.0782,-3.0822,-3.0822,-3.0915,-3.0929,-3.0955,-3.1036,-3.1196,-3.1076,-3.1049,-3.1142,-3.1089,-3.1062,-3.1076,-3.1209,-3.141,-3.149,-3.1664,-3.1797,-2.3031,-2.3056,-2.3043,-2.308,-2.3056,-2.3068,-2.3056,-2.3104,-2.308,-2.3068,-2.3104,-2.3104,-2.32,-2.3418,-2.3212,-2.3198,-2.3222,-2.3247,-2.3393,-2.3599,-2.3466,-2.3575,-2.3816,-2.4069,-2.419,-2.4353,-2.4899,-2.54,-2.5779,-2.6223,-2.6363,-2.6376,-2.6605,-2.6745,-2.6808,-2.6853,-2.7165,-2.7043,-2.6947,-2.6909,-2.6921,-2.6545,-2.6545,-2.6896,-2.6521,-2.6146,-2.6158,-2.617,-2.617,-2.6182,-2.6122,-2.6134,-2.6122,-2.5892,-2.5639,-2.5433,-2.5397,-2.5409,-2.5409,-2.5397,-2.5397,-2.5397,-2.5896,-2.6066,-2.6248,-2.6778,-2.7234,-2.7826,-2.7969,-2.7997,-2.7715,-2.7789,-2.7963,-2.8404,-2.8511,-2.8631,-2.8898,-2.8898,-2.8991,-2.9018,-2.9085,-2.9245,-2.9459,-2.9713,-2.9887,-2.998,-3.0167,-3.0341,-3.0381,-3.0581,-3.0742,-3.0822,-3.0982,-3.1116,-3.0849,-3.0902,-3.0889,-3.0929,-3.1129,-3.1209,-3.1316,-3.141,-3.1517,-3.161,-3.157,-3.157,-3.161,-3.1637,-3.1637,-3.165,-3.165,-3.1784,-3.1931,-3.2024,-3.2131,-2.3406,-2.355,-2.3562,-2.355,-2.355,-2.3562,-2.355,-2.3575,-2.3744,-2.3804,-2.384,-2.3973,-2.4118,-2.4202,-2.4106,-2.3876,-2.3599,-2.3731,-2.3864,-2.3973,-2.413,-2.4251,-2.4335,-2.4444,-2.4492,-2.4504,-2.4741,-2.5053,-2.5249,-2.5674,-2.581,-2.5847,-2.6068,-2.6204,-2.6253,-2.6462,-2.6598,-2.6635,-2.6704,-2.6674,-2.6686,-2.6653,-2.6737,-2.6892,-2.6399,-2.6218,-2.6218,-2.6218,-2.6218,-2.6218,-2.6218,-2.6218,-2.6206,-2.6134,-2.6037,-2.5953,-2.594,-2.594,-2.594,-2.594,-2.594,-2.594,-2.6115,-2.6264,-2.6649,-2.6897,-2.7134,-2.7682,-2.8082,-2.8126,-2.8155,-2.8379,-2.8644,-2.8831,-2.8885,-2.8925,-2.9045,-2.9205,-2.9325,-2.9352,-2.9472,-2.9713,-2.9953,-3.014,-3.0274,-3.0448,-3.0568,-3.0621,-3.0675,-3.0889,-3.1062,-3.1116,-3.1316,-3.1476,-3.1396,-3.1356,-3.137,-3.1383,-3.1463,-3.1503,-3.1583,-3.1623,-3.1704,-3.1904,-3.1944,-3.2011,-3.2024,-3.2104,-3.2118,-3.2144,-3.2144,-3.2144,-3.2358,-3.2385,-3.2425,-2.3937,-2.4082,-2.4094,-2.4094,-2.4094,-2.4094,-2.4094,-2.4118,-2.4287,-2.4359,-2.4395,-2.4552,-2.4625,-2.4625,-2.4625,-2.4456,-2.413,-2.4287,-2.4359,-2.4383,-2.454,-2.4625,-2.4649,-2.4721,-2.477,-2.4782,-2.4854,-2.4999,-2.518,-2.5433,-2.5554,-2.5578,-2.5832,-2.5953,-2.6001,-2.6218,-2.6351,-2.6411,-2.6629,-2.6761,-2.6785,-2.693,-2.7027,-2.6979,-2.6665,-2.6484,-2.6484,-2.6484,-2.6484,-2.6484,-2.6472,-2.6447,-2.6375,-2.6351,-2.6315,-2.623,-2.6206,-2.6218,-2.6218,-2.6218,-2.6206,-2.6218,-2.6218,-2.6394,-2.6582,-2.6656,-2.7058,-2.7435,-2.7864,-2.8066,-2.8432,-2.8784,-2.911,-2.9205,-2.9179,-2.9232,-2.9312,-2.9499,-2.9659,-2.9806,-3.0034,-3.0274,-3.0448,-3.0488,-3.0581,-3.0768,-3.0862,-3.0929,-3.0969,-3.1169,-3.137,-3.1396,-3.1623,-3.177,-3.181,-3.1851,-3.181,-3.181,-3.1891,-3.1891,-3.1877,-3.1904,-3.1971,-3.2158,-3.2291,-3.2372,-3.2452,-3.2532,-3.2559,-3.2572,-3.2492,-3.2425,-3.2572,-3.2679,-3.2759,-2.4601,-2.4589,-2.4625,-2.4576,-2.4552,-2.4552,-2.4601,-2.4576,-2.4613,-2.4625,-2.4637,-2.4661,-2.4721,-2.4673,-2.4733,-2.4661,-2.4649,-2.4661,-2.4649,-2.4649,-2.4673,-2.4697,-2.4709,-2.4939,-2.5071,-2.5096,-2.5313,-2.5433,-2.5494,-2.5711,-2.5832,-2.5868,-2.6097,-2.6218,-2.623,-2.6496,-2.6641,-2.6689,-2.687,-2.7003,-2.7027,-2.7039,-2.7075,-2.7063,-2.7039,-2.7027,-2.7027,-2.7003,-2.6954,-2.6979,-2.6979,-2.6894,-2.6677,-2.6641,-2.6532,-2.6339,-2.6254,-2.6242,-2.6254,-2.6278,-2.6315,-2.6315,-2.6266,-2.6315,-2.6363,-2.6508,-2.6807,-2.7189,-2.7529,-2.787,-2.8424,-2.8783,-2.9217,-2.9539,-2.9513,-2.9633,-2.982,-2.9927,-3.0034,-3.0301,-3.0541,-3.0755,-3.0782,-3.0795,-3.0835,-3.0929,-3.1089,-3.1249,-3.1303,-3.1517,-3.165,-3.1744,-3.1917,-3.2091,-3.2211,-3.2305,-3.2251,-3.2225,-3.2318,-3.2372,-3.2305,-3.2305,-3.2345,-3.2505,-3.2652,-3.2746,-3.2759,-3.2812,-3.2772,-3.2759,-3.2706,-3.2746,-3.2866,-3.3,-3.3093,-2.4625,-2.4625,-2.4625,-2.4625,-2.4625,-2.4625,-2.4625,-2.4649,-2.4818,-2.4914,-2.4951,-2.5108,-2.518,-2.518,-2.518,-2.518,-2.5192,-2.518,-2.5096,-2.4975,-2.5096,-2.518,-2.5204,-2.5277,-2.5409,-2.5566,-2.5663,-2.5808,-2.5953,-2.6061,-2.6097,-2.6146,-2.6375,-2.6496,-2.652,-2.6773,-2.6918,-2.6918,-2.6979,-2.7027,-2.7051,-2.7208,-2.7292,-2.7317,-2.7461,-2.757,-2.7558,-2.722,-2.7039,-2.7039,-2.7027,-2.6991,-2.693,-2.6906,-2.6858,-2.6798,-2.6773,-2.6773,-2.6773,-2.6773,-2.6773,-2.6773,-2.6773,-2.6773,-2.6773,-2.6858,-2.6918,-2.7087,-2.7521,-2.7801,-2.8157,-2.8754,-2.9002,-2.927,-2.9774,-3.01,-3.0221,-3.0394,-3.0541,-3.0635,-3.0742,-3.0862,-3.1036,-3.1089,-3.1169,-3.1343,-3.1476,-3.157,-3.1784,-3.1891,-3.2078,-3.2238,-3.2358,-3.2412,-3.2478,-3.2625,-3.2692,-3.2639,-3.2679,-3.2732,-3.2692,-3.2679,-3.2732,-3.2812,-3.2973,-3.308,-3.3093,-3.3106,-3.3093,-3.3133,-3.32,-3.324,-3.3267,-3.3347,-3.3467,-2.4927,-2.4927,-2.4927,-2.4927,-2.4927,-2.4927,-2.4927,-2.4951,-2.512,-2.524,-2.5361,-2.5506,-2.5639,-2.5711,-2.5723,-2.5723,-2.5735,-2.5735,-2.5639,-2.5494,-2.5518,-2.5627,-2.5711,-2.5723,-2.5796,-2.594,-2.5977,-2.6061,-2.6218,-2.6327,-2.6375,-2.6423,-2.6653,-2.6785,-2.6785,-2.6942,-2.7027,-2.7039,-2.7123,-2.7172,-2.7232,-2.7437,-2.757,-2.7594,-2.7727,-2.7811,-2.7787,-2.7486,-2.7317,-2.7317,-2.7329,-2.7317,-2.7317,-2.7329,-2.7329,-2.7317,-2.7317,-2.7317,-2.7317,-2.7317,-2.7329,-2.7317,-2.7317,-2.7317,-2.7317,-2.7317,-2.7317,-2.7317,-2.7512,-2.7744,-2.8076,-2.8482,-2.8774,-2.8988,-2.9664,-3.0332,-3.0568,-3.0782,-3.0929,-3.0982,-3.1062,-3.1196,-3.133,-3.1396,-3.1517,-3.1757,-3.1837,-3.1944,-3.2171,-3.2265,-3.2412,-3.2545,-3.2639,-3.2679,-3.2719,-3.2893,-3.3106,-3.3066,-3.3013,-3.3026,-3.3,-3.3013,-3.304,-3.3106,-3.324,-3.3387,-3.3427,-3.3507,-3.3547,-3.3627,-3.3694,-3.3774,-3.3814,-3.3801,-3.3868,-2.5446,-2.5458,-2.5458,-2.5458,-2.547,-2.5482,-2.5482,-2.5482,-2.5494,-2.5627,-2.5796,-2.5844,-2.5965,-2.6158,-2.6134,-2.6134,-2.6194,-2.6158,-2.6158,-2.6109,-2.6025,-2.6001,-2.6122,-2.6122,-2.6158,-2.623,-2.6242,-2.6266,-2.6363,-2.6556,-2.6665,-2.6689,-2.687,-2.7015,-2.7003,-2.7039,-2.7087,-2.7123,-2.7317,-2.7449,-2.7461,-2.7691,-2.7836,-2.7836,-2.7884,-2.7932,-2.7932,-2.7884,-2.7836,-2.7799,-2.7739,-2.7739,-2.7787,-2.7811,-2.7763,-2.7739,-2.7799,-2.7763,-2.7787,-2.7727,-2.7739,-2.7727,-2.7727,-2.7811,-2.7739,-2.7703,-2.7703,-2.7715,-2.7739,-2.7775,-2.7998,-2.8209,-2.8582,-2.8607,-2.9538,-3.028,-3.069,-3.1102,-3.1223,-3.1303,-3.149,-3.169,-3.169,-3.1717,-3.1891,-3.2038,-3.2131,-3.2278,-3.2478,-3.2572,-3.2585,-3.2719,-3.2919,-3.2959,-3.3013,-3.308,-3.3267,-3.3253,-3.3227,-3.324,-3.328,-3.3307,-3.336,-3.3427,-3.3521,-3.3668,-3.3774,-3.3868,-3.3961,-3.4028,-3.4148,-3.4295,-3.4269,-3.4162,-3.4148,-2.5554,-2.5723,-2.5723,-2.5832,-2.6001,-2.6013,-2.6001,-2.6013,-2.6001,-2.6025,-2.6109,-2.6122,-2.6158,-2.6218,-2.623,-2.6218,-2.6242,-2.6242,-2.6351,-2.6496,-2.6472,-2.6327,-2.6242,-2.623,-2.6339,-2.6496,-2.6532,-2.6629,-2.681,-2.687,-2.6918,-2.693,-2.6979,-2.7039,-2.7039,-2.722,-2.7304,-2.7353,-2.7582,-2.7715,-2.7751,-2.7968,-2.8089,-2.8113,-2.8282,-2.8379,-2.8403,-2.8415,-2.8198,-2.7848,-2.7811,-2.7811,-2.7848,-2.7848,-2.786,-2.786,-2.7836,-2.7824,-2.7836,-2.7836,-2.7824,-2.7811,-2.7872,-2.7811,-2.7811,-2.7824,-2.7811,-2.7811,-2.7811,-2.7908,-2.8053,-2.829,-2.8564,-2.9103,-2.9759,-3.0473,-3.0818,-3.1301,-3.1543,-3.1583,-3.1824,-3.1957,-3.2024,-3.2144,-3.2305,-3.2398,-3.2452,-3.2532,-3.2772,-3.2879,-3.2879,-3.3106,-3.3267,-3.328,-3.3307,-3.3347,-3.3387,-3.3374,-3.3374,-3.3387,-3.348,-3.3587,-3.3668,-3.3761,-3.3881,-3.4028,-3.4108,-3.4202,-3.4309,-3.4402,-3.4416,-3.4469,-3.4376,-3.4282,-3.4322,-2.5161,-2.5302,-2.5302,-2.5559,-2.5866,-2.5878,-2.6042,-2.6218,-2.6218,-2.6303,-2.6375,-2.6399,-2.646,-2.6556,-2.6378,-2.6199,-2.6199,-2.6021,-2.6115,-2.6222,-2.6065,-2.6342,-2.6414,-2.6556,-2.6653,-2.6773,-2.6798,-2.6882,-2.6991,-2.7027,-2.7027,-2.7015,-2.7027,-2.7087,-2.722,-2.7329,-2.7486,-2.7606,-2.7836,-2.798,-2.7993,-2.8234,-2.8367,-2.8403,-2.8548,-2.862,-2.862,-2.862,-2.8463,-2.8222,-2.8162,-2.8149,-2.8149,-2.8149,-2.8149,-2.8162,-2.8149,-2.8162,-2.8149,-2.8149,-2.8149,-2.8162,-2.8149,-2.8149,-2.8162,-2.8149,-2.8149,-2.8174,-2.8149,-2.8234,-2.8331,-2.8379,-2.8703,-2.9078,-2.9796,-3.0344,-3.0894,-3.1277,-3.1726,-3.2024,-3.2171,-3.2291,-3.2291,-3.2452,-3.2585,-3.2692,-3.2732,-3.2893,-3.3093,-3.3133,-3.3187,-3.3334,-3.3427,-3.3414,-3.3494,-3.3547,-3.3654,-3.3627,-3.3761,-3.3734,-3.3748,-3.3881,-3.3988,-3.4108,-3.4242,-3.4362,-3.4442,-3.4536,-3.4629,-3.4683,-3.4656,-3.467,-3.4643,-3.4563,-3.4576,-2.484,-2.4863,-2.4863,-2.5052,-2.5453,-2.5441,-2.5831,-2.615,-2.6174,-2.6294,-2.6462,-2.6498,-2.6414,-2.6845,-2.6194,-2.6265,-2.6265,-2.5843,-2.5696,-2.5707,-2.5707,-2.6048,-2.658,-2.6737,-2.6761,-2.6991,-2.7027,-2.7015,-2.7027,-2.7027,-2.7027,-2.7051,-2.7063,-2.7196,-2.7377,-2.7486,-2.7642,-2.786,-2.8113,-2.8246,-2.8282,-2.8451,-2.856,-2.8572,-2.8584,-2.862,-2.862,-2.862,-2.8596,-2.8608,-2.862,-2.8572,-2.8584,-2.8608,-2.8596,-2.8572,-2.8536,-2.8548,-2.8596,-2.8548,-2.8584,-2.856,-2.8572,-2.862,-2.856,-2.8536,-2.8524,-2.8524,-2.862,-2.8596,-2.8656,-2.8681,-2.8825,-2.9201,-2.9615,-3.021,-3.1024,-3.1205,-3.1671,-3.231,-3.2545,-3.2585,-3.2599,-3.2639,-3.2746,-3.3,-3.3026,-3.312,-3.3253,-3.328,-3.332,-3.3374,-3.344,-3.3494,-3.3614,-3.3748,-3.3855,-3.3948,-3.4175,-3.4229,-3.4135,-3.4215,-3.4309,-3.4429,-3.4576,-3.4683,-3.4776,-3.487,-3.4923,-3.4963,-3.495,-3.5057,-3.5137,-3.499,-3.495,-2.4931,-2.5114,-2.5114,-2.5228,-2.5569,-2.5581,-2.5569,-2.5739,-2.575,-2.5762,-2.5831,-2.5843,-2.5866,-2.5924,-2.5924,-2.5742,-2.5742,-2.556,-2.556,-2.556,-2.556,-2.5742,-2.5924,-2.6288,-2.6664,-2.6845,-2.7027,-2.7027,-2.7027,-2.7051,-2.7039,-2.7063,-2.7256,-2.7377,-2.7473,-2.7811,-2.8053,-2.8162,-2.8379,-2.85,-2.8512,-2.856,-2.8632,-2.8644,-2.8644,-2.8632,-2.8632,-2.862,-2.862,-2.862,-2.8644,-2.8681,-2.8632,-2.862,-2.862,-2.862,-2.862,-2.862,-2.862,-2.862,-2.862,-2.862,-2.862,-2.862,-2.862,-2.8644,-2.8632,-2.862,-2.8632,-2.8753,-2.891,-2.9127,-2.9224,-2.9284,-2.9517,-2.9799,-3.054,-3.1214,-3.1529,-3.2012,-3.2563,-3.2879,-3.2893,-3.308,-3.3187,-3.3307,-3.332,-3.3347,-3.3387,-3.3427,-3.348,-3.3521,-3.3681,-3.3774,-3.3855,-3.4028,-3.4202,-3.4322,-3.4536,-3.4656,-3.4563,-3.4549,-3.4629,-3.4763,-3.491,-3.499,-3.5004,-3.5057,-3.5097,-3.5164,-3.5204,-3.5204,-3.5204,-3.5204,-3.5204,-2.3987,-2.4288,-2.4277,-2.4718,-2.5183,-2.5183,-2.5377,-2.556,-2.556,-2.556,-2.556,-2.556,-2.556,-2.556,-2.5377,-2.5195,-2.4829,-2.4463,-2.428,-2.4474,-2.4657,-2.4829,-2.5195,-2.556,-2.5924,-2.6482,-2.6664,-2.6845,-2.6869,-2.7148,-2.722,-2.7232,-2.7473,-2.7679,-2.7775,-2.8065,-2.8258,-2.8391,-2.8536,-2.862,-2.862,-2.862,-2.8705,-2.8777,-2.8813,-2.885,-2.8994,-2.9006,-2.8994,-2.8982,-2.8982,-2.8862,-2.8669,-2.8632,-2.8632,-2.862,-2.862,-2.862,-2.862,-2.862,-2.862,-2.8632,-2.8632,-2.862,-2.8669,-2.8717,-2.8801,-2.8837,-2.8922,-2.9055,-2.9188,-2.9284,-2.9429,-2.9574,-2.9586,-2.9906,-3.0289,-3.0951,-3.1445,-3.1733,-3.2311,-3.2762,-3.2854,-3.3147,-3.336,-3.336,-3.3387,-3.3414,-3.3467,-3.3521,-3.3654,-3.3761,-3.3961,-3.4095,-3.4148,-3.4322,-3.4589,-3.4723,-3.4883,-3.495,-3.4923,-3.4937,-3.4963,-3.503,-3.507,-3.511,-3.5137,-3.5191,-3.5204,-3.5204,-3.5204,-3.5204,-3.5204,-3.5204,-3.5204,-2.2821,-2.3199,-2.3199,-2.374,-2.4452,-2.4452,-2.4646,-2.5012,-2.5195,-2.4829,-2.5195,-2.5195,-2.4829,-2.5012,-2.4646,-2.428,-2.373,-2.3189,-2.3199,-2.3456,-2.3467,-2.3868,-2.4432,-2.4822,-2.5191,-2.604,-2.6223,-2.6394,-2.6818,-2.7157,-2.7104,-2.7337,-2.7553,-2.7745,-2.8137,-2.8258,-2.8379,-2.856,-2.8608,-2.862,-2.8644,-2.8681,-2.8837,-2.9031,-2.9079,-2.9151,-2.9284,-2.9332,-2.9369,-2.9405,-2.9405,-2.9163,-2.8886,-2.8741,-2.8741,-2.8765,-2.8813,-2.8825,-2.8837,-2.8801,-2.8789,-2.8741,-2.8765,-2.8765,-2.8825,-2.8958,-2.9043,-2.9151,-2.926,-2.9429,-2.9465,-2.9574,-2.967,-2.9803,-2.9864,-2.9972,-3.0105,-3.0411,-3.0801,-3.1504,-3.2106,-3.232,-3.2747,-3.3,-3.32,-3.3427,-3.3454,-3.3507,-3.3574,-3.3708,-3.3868,-3.4028,-3.4229,-3.4496,-3.4576,-3.4603,-3.487,-3.495,-3.5137,-3.5137,-3.5151,-3.5124,-3.5097,-3.5137,-3.5177,-3.5204,-3.5204,-3.5204,-3.5204,-3.5204,-3.5204,-3.5204,-3.5204,-3.5204,-3.5204,-2.2637,-2.2637,-2.2821,-2.2821,-2.3005,-2.3005,-2.3189,-2.3005,-2.3189,-2.3189,-2.3189,-2.3189,-2.3189,-2.3189,-2.3005,-2.2831,-2.2872,-2.2532,-2.2583,-2.2879,-2.2909,-2.3157,-2.3665,-2.403,-2.4448,-2.501,-2.5645,-2.5925,-2.6133,-2.6317,-2.6806,-2.7063,-2.7263,-2.7629,-2.8092,-2.8415,-2.8344,-2.8404,-2.8428,-2.8428,-2.85,-2.8668,-2.9067,-2.9308,-2.9344,-2.9393,-2.9417,-2.9429,-2.9405,-2.9405,-2.9405,-2.9369,-2.9308,-2.9284,-2.926,-2.9212,-2.92,-2.9175,-2.9175,-2.9224,-2.926,-2.9272,-2.9224,-2.9236,-2.9248,-2.9308,-2.9357,-2.9429,-2.9574,-2.9731,-2.9743,-2.9876,-3.0045,-3.0129,-3.0117,-3.0141,-3.0189,-3.0392,-3.057,-3.1061,-3.1655,-3.2046,-3.2286,-3.2729,-3.297,-3.325,-3.3545,-3.3585,-3.3841,-3.4015,-3.4215,-3.4362,-3.4509,-3.479,-3.503,-3.503,-3.511,-3.5084,-3.5177,-3.5177,-3.5177,-3.5191,-3.5204,-3.5204,-3.5204,-3.5204,-3.5204,-3.5204,-3.5204,-3.5204,-3.5204,-3.5204,-3.5204,-3.5204,-3.5204,-2.1149,-2.1519,-2.1714,-2.2083,-2.2258,-2.2452,-2.2637,-2.2637,-2.2637,-2.2637,-2.2637,-2.2637,-2.2637,-2.2482,-2.2397,-2.2114,-2.1817,-2.148,-2.1725,-2.2179,-2.2378,-2.2616,-2.3134,-2.3504,-2.3683,-2.4251,-2.4797,-2.5495,-2.5989,-2.6393,-2.6496,-2.6766,-2.714,-2.7459,-2.7663,-2.7768,-2.7839,-2.7839,-2.785,-2.7921,-2.8062,-2.8504,-2.895,-2.9538,-2.9622,-2.9682,-2.9815,-2.9827,-2.9827,-2.9839,-2.9839,-2.9827,-2.9815,-2.9779,-2.9695,-2.9477,-2.9417,-2.9417,-2.9405,-2.9405,-2.9381,-2.9393,-2.9417,-2.9405,-2.9441,-2.9513,-2.9658,-2.9803,-2.9888,-3.0008,-3.002,-3.0141,-3.0202,-3.0214,-3.0226,-3.0226,-3.025,-3.0346,-3.0599,-3.0803,-3.1123,-3.1541,-3.1845,-3.2289,-3.2747,-3.3258,-3.3607,-3.3673,-3.3904,-3.4116,-3.4342,-3.4629,-3.4763,-3.4937,-3.5164,-3.5177,-3.5204,-3.5204,-3.5204,-3.5204,-3.5204,-3.5204,-3.5204,-3.5204,-3.5204,-3.5204,-3.5204,-3.5204,-3.5204,-3.5204,-3.5204,-3.5204,-3.5204,-3.5204,-3.5244,-1.9851,-2.0223,-2.0779,-2.1149,-2.1519,-2.1889,-2.1898,-2.2083,-2.1898,-2.1938,-2.2152,-2.1977,-2.1996,-2.2065,-2.1827,-2.1423,-2.081,-2.0419,-2.0819,-2.1256,-2.1447,-2.204,-2.2671,-2.3053,-2.3284,-2.3536,-2.4173,-2.4918,-2.5538,-2.6074,-2.6365,-2.6613,-2.6795,-2.7056,-2.7056,-2.7237,-2.7067,-2.7079,-2.7136,-2.7284,-2.7581,-2.8195,-2.8825,-2.945,-2.9675,-2.9771,-2.9915,-3.0141,-3.0153,-3.0153,-3.0165,-3.0189,-3.0202,-3.0214,-3.0008,-2.9658,-2.9574,-2.9574,-2.9586,-2.9598,-2.9646,-2.9658,-2.9598,-2.9586,-2.9622,-2.9803,-2.996,-3.0165,-3.0202,-3.0189,-3.0165,-3.0214,-3.0214,-3.0238,-3.0274,-3.0322,-3.0395,-3.0503,-3.066,-3.0805,-3.0851,-3.1309,-3.1688,-3.1905,-3.2366,-3.2892,-3.324,-3.3343,-3.3615,-3.4058,-3.4229,-3.4687,-3.478,-3.5084,-3.5191,-3.5191,-3.5204,-3.5204,-3.5204,-3.5204,-3.5204,-3.5204,-3.5204,-3.5204,-3.5204,-3.5204,-3.5204,-3.5204,-3.5204,-3.5204,-3.5204,-3.5244,-3.5338,-3.5391,-3.5431,-1.9674,-1.986,-1.986,-1.986,-2.0046,-2.0046,-2.0046,-2.0241,-2.0259,-2.0145,-2.0494,-2.0315,-2.0395,-2.0521,-2.0565,-2.0419,-2.0263,-2.0115,-2.0386,-2.0685,-2.0703,-2.1153,-2.1884,-2.2321,-2.2635,-2.3013,-2.3665,-2.4176,-2.464,-2.5346,-2.584,-2.6056,-2.6249,-2.6487,-2.6669,-2.6669,-2.7067,-2.7101,-2.7296,-2.7627,-2.7992,-2.8106,-2.8491,-2.8855,-2.9127,-2.933,-2.9593,-2.9808,-3.0011,-3.0214,-3.0214,-3.0214,-3.0214,-3.0214,-3.0202,-3.0141,-3.0117,-3.0117,-3.0057,-3.002,-3.002,-3.0008,-3.0045,-3.0105,-3.0057,-3.0057,-3.0141,-3.0189,-3.0214,-3.0214,-3.0214,-3.0226,-3.0226,-3.0322,-3.0443,-3.0527,-3.06,-3.0781,-3.0926,-3.0986,-3.1085,-3.1316,-3.1622,-3.1805,-3.2,-3.2527,-3.2849,-3.3172,-3.3288,-3.369,-3.4004,-3.4228,-3.4439,-3.4742,-3.498,-3.498,-3.5204,-3.5204,-3.5204,-3.5204,-3.5204,-3.5204,-3.5204,-3.5204,-3.5217,-3.5257,-3.5297,-3.5284,-3.5231,-3.5271,-3.5364,-3.5471,-3.5565,-3.5605,-3.5658,-1.8922,-1.8922,-1.9116,-1.9302,-1.932,-1.9602,-1.9841,-1.9859,-1.9956,-2.0043,-2.0114,-2.0123,-2.0037,-1.9992,-1.9825,-1.9893,-1.9775,-1.9784,-1.9835,-2.009,-2.0311,-2.0542,-2.0987,-2.1406,-2.1603,-2.2004,-2.2387,-2.275,-2.3481,-2.4085,-2.474,-2.4935,-2.5129,-2.4935,-2.5518,-2.5313,-2.5604,-2.5972,-2.6463,-2.717,-2.7571,-2.793,-2.8257,-2.8575,-2.879,-2.8982,-2.8982,-2.9389,-2.9796,-2.9808,-3.0011,-3.0214,-3.0214,-3.0214,-3.0214,-3.0214,-3.0202,-3.0202,-3.0202,-3.0214,-3.0214,-3.0214,-3.0214,-3.0189,-3.0214,-3.0214,-3.0214,-3.0214,-3.0214,-3.0226,-3.0262,-3.0358,-3.0419,-3.0515,-3.0672,-3.0757,-3.0877,-3.1083,-3.1228,-3.1276,-3.1324,-3.1534,-3.1732,-3.1671,-3.1905,-3.2461,-3.2747,-3.2809,-3.3096,-3.3608,-3.3672,-3.3896,-3.4108,-3.4134,-3.4346,-3.4557,-3.4768,-3.498,-3.5191,-3.5191,-3.5204,-3.5204,-3.5217,-3.5284,-3.5378,-3.5404,-3.5418,-3.5458,-3.5471,-3.5525,-3.5578,-3.5712,-3.5845,-3.5899,-3.5979,-1.7866,-1.7866,-1.8624,-1.8811,-1.8836,-1.9389,-1.9664,-1.9682,-1.9794,-1.988,-1.994,-1.9983,-1.9902,-1.9598,-1.9639,-1.9502,-1.924,-1.9264,-1.9454,-1.9651,-1.984,-2.0226,-2.0432,-2.0629,-2.0826,-2.0826,-2.1415,-2.179,-2.2182,-2.2779,-2.3365,-2.3951,-2.4156,-2.4146,-2.4166,-2.4248,-2.4577,-2.5304,-2.5777,-2.6371,-2.6702,-2.7261,-2.7531,-2.7974,-2.8178,-2.8382,-2.8586,-2.8994,-2.9186,-2.9197,-2.9593,-3.0011,-3.0011,-3.0011,-3.0214,-3.0214,-3.0214,-3.0214,-3.0214,-3.0214,-3.0214,-3.0214,-3.0214,-3.0214,-3.0214,-3.0214,-3.0214,-3.0214,-3.0322,-3.0322,-3.0371,-3.0552,-3.0672,-3.0793,-3.0926,-3.1022,-3.1131,-3.1324,-3.1469,-3.1529,-3.159,-3.1662,-3.1638,-3.1553,-3.1814,-3.2173,-3.2447,-3.266,-3.2873,-3.3073,-3.3286,-3.3286,-3.3498,-3.371,-3.3922,-3.4134,-3.4557,-3.4768,-3.498,-3.5191,-3.5191,-3.5231,-3.5257,-3.5364,-3.5511,-3.5618,-3.5685,-3.5712,-3.5738,-3.5778,-3.5859,-3.6019,-3.6126,-3.6193,-3.6299,-1.6912,-1.7102,-1.8057,-1.8436,-1.8444,-1.8631,-1.8704,-1.8704,-1.8736,-1.9035,-1.9175,-1.9314,-1.9183,-1.9216,-1.9207,-1.9224,-1.9256,-1.9264,-1.9256,-1.9256,-1.9454,-1.9651,-1.984,-2.0038,-2.0235,-2.0629,-2.0826,-2.0826,-2.1013,-2.121,-2.2387,-2.3766,-2.3385,-2.3766,-2.3856,-2.3839,-2.4088,-2.4568,-2.5175,-2.5287,-2.5604,-2.6108,-2.6324,-2.6529,-2.7349,-2.7962,-2.7962,-2.8371,-2.8586,-2.8586,-2.9197,-2.9389,-2.9604,-2.9808,-2.9808,-3.0011,-3.0011,-3.0011,-3.0011,-3.0214,-3.0214,-3.0214,-3.0214,-3.0214,-3.0214,-3.0226,-3.0226,-3.0286,-3.0455,-3.0564,-3.0648,-3.0793,-3.095,-3.1046,-3.1179,-3.1312,-3.1421,-3.1566,-3.1698,-3.1759,-3.1795,-3.1807,-3.1807,-3.1698,-3.1674,-3.2008,-3.202,-3.2234,-3.2234,-3.2435,-3.2648,-3.286,-3.3073,-3.3286,-3.3498,-3.371,-3.3922,-3.4134,-3.4346,-3.4768,-3.498,-3.5033,-3.5152,-3.5511,-3.5685,-3.5819,-3.5979,-3.6086,-3.6139,-3.6072,-3.6139,-3.6326,-3.6473,-3.654,-3.666,-1.7083,-1.7091,-1.7573,-1.7751,-1.7674,-1.7835,-1.7905,-1.7928,-1.802,-1.8097,-1.8167,-1.8236,-1.8267,-1.8267,-1.8267,-1.8267,-1.8267,-1.8267,-1.8267,-1.8465,-1.8663,-1.8853,-1.905,-1.9454,-1.9651,-1.984,-1.9849,-2.0038,-2.0235,-2.0252,-2.0922,-2.1928,-2.2079,-2.2107,-2.2227,-2.2888,-2.3567,-2.3915,-2.448,-2.4814,-2.5255,-2.5501,-2.5707,-2.5707,-2.6324,-2.6734,-2.6939,-2.7758,-2.7974,-2.8178,-2.8575,-2.8779,-2.8994,-2.9209,-2.9221,-2.9436,-2.9436,-2.9448,-2.9831,-3.0023,-3.0214,-3.0214,-3.0214,-3.0238,-3.0274,-3.0358,-3.0431,-3.0539,-3.0696,-3.0841,-3.0877,-3.1071,-3.1252,-3.1312,-3.1409,-3.1566,-3.1662,-3.1759,-3.1795,-3.1795,-3.1807,-3.1807,-3.1807,-3.1795,-3.1795,-3.1807,-3.1807,-3.1807,-3.202,-3.202,-3.2234,-3.2234,-3.2648,-3.286,-3.286,-3.3073,-3.3073,-3.3498,-3.371,-3.416,-3.4623,-3.4793,-3.4924,-3.5497,-3.5697,-3.5909,-3.6108,-3.65,-3.6513,-3.6393,-3.6473,-3.6674,-3.6794,-3.6861,-3.6901,-1.6673,-1.6688,-1.7035,-1.7006,-1.7277,-1.7419,-1.7493,-1.7508,-1.7613,-1.7672,-1.7672,-1.7672,-1.7672,-1.7672,-1.7672,-1.7672,-1.787,-1.787,-1.7672,-1.787,-1.8061,-1.8259,-1.8457,-1.8465,-1.8861,-1.8861,-1.8861,-1.9058,-1.9248,-1.9305,-1.9593,-1.985,-2.0058,-2.0317,-2.1439,-2.1917,-2.2542,-2.3044,-2.3334,-2.3851,-2.4254,-2.4667,-2.4677,-2.4883,-2.5501,-2.6118,-2.6324,-2.6939,-2.7349,-2.7553,-2.7962,-2.8382,-2.8405,-2.8643,-2.8689,-2.8712,-2.8757,-2.8997,-2.9396,-2.9867,-3.0274,-3.0346,-3.0358,-3.0395,-3.0479,-3.0612,-3.0708,-3.0745,-3.095,-3.1119,-3.1131,-3.1336,-3.1505,-3.1566,-3.1614,-3.1735,-3.1747,-3.1807,-3.1807,-3.1807,-3.1807,-3.1807,-3.1807,-3.1807,-3.1807,-3.1807,-3.1807,-3.1807,-3.1807,-3.1807,-3.1807,-3.202,-3.202,-3.2234,-3.2222,-3.2435,-3.2648,-3.286,-3.3298,-3.36,-3.4102,-3.4283,-3.4743,-3.4963,-3.5389,-3.6049,-3.6181,-3.6286,-3.6493,-3.666,-3.6767,-3.6847,-3.6874,-3.6901,-3.6914,-1.6041,-1.5866,-1.6206,-1.6574,-1.7238,-1.759,-1.7657,-1.7437,-1.7459,-1.7474,-1.7474,-1.7474,-1.7474,-1.7474,-1.7474,-1.7474,-1.7474,-1.7474,-1.7474,-1.7474,-1.7665,-1.7672,-1.7672,-1.787,-1.8069,-1.787,-1.787,-1.8069,-1.7893,-1.8206,-1.8297,-1.8412,-1.8901,-1.9362,-2.1221,-2.1599,-2.1792,-2.1941,-2.2184,-2.2184,-2.2599,-2.3221,-2.3635,-2.4048,-2.4667,-2.5295,-2.5707,-2.6118,-2.6529,-2.695,-2.7404,-2.7825,-2.7836,-2.8437,-2.8722,-2.8745,-2.8938,-2.9237,-2.9249,-2.9865,-3.0226,-3.0358,-3.0394,-3.066,-3.0877,-3.0974,-3.0986,-3.101,-3.1228,-3.136,-3.1469,-3.159,-3.1698,-3.1759,-3.1795,-3.1807,-3.1807,-3.1807,-3.1807,-3.1807,-3.1807,-3.1807,-3.1807,-3.1807,-3.1807,-3.1807,-3.1807,-3.1807,-3.1807,-3.1807,-3.1807,-3.1807,-3.1807,-3.1807,-3.202,-3.202,-3.202,-3.2447,-3.2722,-3.3274,-3.3639,-3.4045,-3.4299,-3.4592,-3.5197,-3.5559,-3.591,-3.6041,-3.6197,-3.6586,-3.6861,-3.6914,-3.6941,-3.6941,-3.6941,-1.6001,-1.6008,-1.6062,-1.6247,-1.6609,-1.6651,-1.6679,-1.6679,-1.6679,-1.6679,-1.6672,-1.6679,-1.6679,-1.6679,-1.6672,-1.6679,-1.6679,-1.6679,-1.6679,-1.6679,-1.707,-1.707,-1.7268,-1.7474,-1.768,-1.7672,-1.7672,-1.7747,-1.7844,-1.7739,-1.809,-1.8224,-1.8343,-1.9022,-1.983,-2.0538,-2.0895,-2.1353,-2.157,-2.157,-2.1977,-2.2392,-2.2806,-2.3014,-2.3841,-2.4461,-2.5089,-2.5295,-2.5717,-2.6376,-2.6852,-2.7155,-2.7415,-2.8027,-2.8148,-2.8159,-2.828,-2.8479,-2.8689,-2.9342,-2.9746,-3.0231,-3.067,-3.0914,-3.0998,-3.1179,-3.1228,-3.13,-3.1493,-3.1602,-3.171,-3.1722,-3.1783,-3.1783,-3.1807,-3.1807,-3.1807,-3.1807,-3.1807,-3.1807,-3.1807,-3.1807,-3.1807,-3.1807,-3.1807,-3.1807,-3.1807,-3.1807,-3.1807,-3.1807,-3.1807,-3.1807,-3.1807,-3.1807,-3.1819,-3.1867,-3.1988,-3.2276,-3.2552,-3.2853,-3.3218,-3.3621,-3.4027,-3.4511,-3.4897,-3.5049,-3.5335,-3.5609,-3.6054,-3.6263,-3.6498,-3.6719,-3.6941,-3.6941,-3.6941,-1.6083,-1.6083,-1.6083,-1.6083,-1.6083,-1.6083,-1.6083,-1.6083,-1.6083,-1.6083,-1.6083,-1.6083,-1.6083,-1.6083,-1.6083,-1.6083,-1.6083,-1.6083,-1.6083,-1.6083,-1.6474,-1.6672,-1.6672,-1.6892,-1.6928,-1.7134,-1.7178,-1.7242,-1.7394,-1.7458,-1.7624,-1.7833,-1.8171,-1.8343,-1.8953,-1.9423,-1.9887,-2.0103,-2.032,-2.0737,-2.1154,-2.1561,-2.1977,-2.2184,-2.2806,-2.3428,-2.4048,-2.4687,-2.513,-2.5624,-2.6161,-2.6296,-2.6818,-2.6976,-2.7324,-2.7345,-2.7865,-2.8099,-2.8556,-2.8968,-2.938,-2.9814,-3.0352,-3.0982,-3.1264,-3.1457,-3.1517,-3.1602,-3.1722,-3.1759,-3.1795,-3.1807,-3.1807,-3.1807,-3.1807,-3.1807,-3.1807,-3.1807,-3.1807,-3.1807,-3.1807,-3.1807,-3.1807,-3.1807,-3.1807,-3.1807,-3.1807,-3.1807,-3.1807,-3.1807,-3.1807,-3.1819,-3.1855,-3.1891,-3.1928,-3.2,-3.2133,-3.2302,-3.2386,-3.2652,-3.2835,-3.3444,-3.3837,-3.4195,-3.4332,-3.4432,-3.4916,-3.5164,-3.5609,-3.5831,-3.6276,-3.6498,-3.6719,-3.6941,-3.6941,-1.6083,-1.6083,-1.6083,-1.6083,-1.6083,-1.6083,-1.6083,-1.6083,-1.6083,-1.6083,-1.6083,-1.6083,-1.6083,-1.6083,-1.6083,-1.6083,-1.6083,-1.6083,-1.6103,-1.611,-1.633,-1.6323,-1.6337,-1.6357,-1.6634,-1.6488,-1.6536,-1.6793,-1.653,-1.6859,-1.7023,-1.7133,-1.7587,-1.7789,-1.7999,-1.8208,-1.8641,-1.9059,-1.9485,-1.9694,-1.9895,-2.0529,-2.0945,-2.1362,-2.1769,-2.2599,-2.323,-2.3672,-2.439,-2.4914,-2.544,-2.5791,-2.5963,-2.6175,-2.6683,-2.7204,-2.8006,-2.8253,-2.8479,-2.8875,-2.9112,-2.9473,-3.0021,-3.0953,-3.1449,-3.1698,-3.171,-3.1722,-3.1783,-3.1795,-3.1807,-3.1807,-3.1807,-3.1807,-3.1807,-3.1807,-3.1807,-3.1807,-3.1807,-3.1807,-3.1807,-3.1807,-3.1807,-3.1807,-3.1807,-3.1807,-3.1807,-3.1807,-3.1807,-3.1807,-3.1819,-3.1831,-3.1879,-3.1976,-3.2048,-3.2145,-3.2362,-3.2555,-3.2616,-3.2676,-3.309,-3.3236,-3.3567,-3.3665,-3.3539,-3.3812,-3.4271,-3.4718,-3.5164,-3.5387,-3.5609,-3.6276,-3.6498,-3.6719,-3.6941,-1.6083,-1.6083,-1.6083,-1.6083,-1.6083,-1.6083,-1.6083,-1.6083,-1.6083,-1.6083,-1.6083,-1.6083,-1.6083,-1.6083,-1.6083,-1.6083,-1.6083,-1.6096,-1.6164,-1.6198,-1.6246,-1.6313,-1.6354,-1.6374,-1.6422,-1.6442,-1.6483,-1.6537,-1.6686,-1.6836,-1.691,-1.6971,-1.7188,-1.7188,-1.7398,-1.7398,-1.802,-1.8432,-1.8641,-1.885,-1.9067,-1.9694,-2.0111,-2.0529,-2.1154,-2.1778,-2.2428,-2.2744,-2.3262,-2.4175,-2.4673,-2.5079,-2.6185,-2.6397,-2.6745,-2.7392,-2.767,-2.7918,-2.836,-2.8576,-2.8781,-2.9211,-2.9777,-3.043,-3.113,-3.1581,-3.1807,-3.1807,-3.1807,-3.1807,-3.1807,-3.1807,-3.1807,-3.1807,-3.1807,-3.1807,-3.1807,-3.1807,-3.1807,-3.1807,-3.1807,-3.1807,-3.1807,-3.1807,-3.1807,-3.1807,-3.1819,-3.1819,-3.1819,-3.1831,-3.1867,-3.1891,-3.1976,-3.2097,-3.2242,-3.235,-3.2592,-3.2785,-3.2845,-3.2942,-3.3111,-3.3231,-3.3292,-3.3328,-3.3364,-3.3364,-3.36,-3.4048,-3.4495,-3.4718,-3.4941,-3.5609,-3.6054,-3.6498,-3.6719,-1.6083,-1.6083,-1.6083,-1.6083,-1.6083,-1.6083,-1.6083,-1.6083,-1.6083,-1.6083,-1.6083,-1.6083,-1.6083,-1.6096,-1.6144,-1.6185,-1.6185,-1.6266,-1.6327,-1.6368,-1.6395,-1.6435,-1.6497,-1.6537,-1.6551,-1.6585,-1.6632,-1.6693,-1.6822,-1.6904,-1.6978,-1.6978,-1.6978,-1.6978,-1.6978,-1.7188,-1.7398,-1.7811,-1.8013,-1.8222,-1.8439,-1.8858,-1.9485,-1.9903,-2.032,-2.0979,-2.1682,-2.182,-2.2548,-2.3317,-2.3869,-2.4186,-2.5086,-2.5467,-2.6186,-2.661,-2.7259,-2.7702,-2.7918,-2.836,-2.8576,-2.8996,-2.9426,-3.0071,-3.0714,-3.1154,-3.1593,-3.1807,-3.1807,-3.1807,-3.1807,-3.1807,-3.1807,-3.1807,-3.1807,-3.1807,-3.1807,-3.1807,-3.1807,-3.1807,-3.1807,-3.1807,-3.1807,-3.1807,-3.1807,-3.1807,-3.1843,-3.1904,-3.1891,-3.1867,-3.1952,-3.2012,-3.2121,-3.2242,-3.241,-3.2604,-3.2821,-3.3026,-3.3111,-3.3207,-3.3352,-3.3364,-3.334,-3.3352,-3.3364,-3.3364,-3.3364,-3.36,-3.4048,-3.4271,-3.4495,-3.4941,-3.5387,-3.6054,-3.6498,-1.6083,-1.6083,-1.6083,-1.6083,-1.6083,-1.6083,-1.6083,-1.6083,-1.6083,-1.6083,-1.6083,-1.6083,-1.6096,-1.6144,-1.6225,-1.63,-1.6341,-1.6415,-1.6476,-1.6537,-1.6544,-1.6571,-1.6605,-1.6578,-1.6686,-1.6748,-1.6788,-1.6829,-1.6924,-1.6978,-1.6978,-1.6978,-1.6978,-1.6978,-1.6978,-1.6978,-1.7188,-1.7188,-1.7601,-1.7811,-1.7811,-1.823,-1.8858,-1.9284,-1.9532,-1.9998,-2.0969,-2.1517,-2.1635,-2.2294,-2.2899,-2.297,-2.3493,-2.421,-2.51,-2.5969,-2.6837,-2.727,-2.7702,-2.8145,-2.836,-2.8576,-2.8996,-2.9641,-3.0297,-3.094,-3.1368,-3.1807,-3.1807,-3.1807,-3.1807,-3.1807,-3.1807,-3.1807,-3.1807,-3.1807,-3.1807,-3.1807,-3.1807,-3.1807,-3.1807,-3.1807,-3.1807,-3.1807,-3.1807,-3.1807,-3.1831,-3.1916,-3.2012,-3.1976,-3.2097,-3.2205,-3.2374,-3.2531,-3.2712,-3.2905,-3.3086,-3.3243,-3.3304,-3.3328,-3.3364,-3.3364,-3.3364,-3.3364,-3.3364,-3.3364,-3.3364,-3.36,-3.36,-3.36,-3.3812,-3.4271,-3.4718,-3.5387,-3.6054,-1.6083,-1.6083,-1.6083,-1.6083,-1.6083,-1.6083,-1.6083,-1.6083,-1.6083,-1.609,-1.6083,-1.6096,-1.6157,-1.6266,-1.6313,-1.6388,-1.6476,-1.6551,-1.6598,-1.6659,-1.6693,-1.6741,-1.6829,-1.6815,-1.687,-1.691,-1.6937,-1.6931,-1.6965,-1.6978,-1.6978,-1.6978,-1.6978,-1.6978,-1.6978,-1.6978,-1.6978,-1.6978,-1.7188,-1.7188,-1.7398,-1.7601,-1.802,-1.8483,-1.8745,-1.9476,-2.004,-2.0444,-2.1193,-2.1999,-2.2352,-2.2639,-2.3128,-2.3792,-2.4446,-2.51,-2.6196,-2.6837,-2.7486,-2.7918,-2.836,-2.8576,-2.8781,-2.9426,-3.0071,-3.0714,-3.1154,-3.1593,-3.1807,-3.1807,-3.1807,-3.1807,-3.1807,-3.1807,-3.1807,-3.1807,-3.1807,-3.1807,-3.1807,-3.1807,-3.1807,-3.1807,-3.1807,-3.1807,-3.1807,-3.1807,-3.1807,-3.1891,-3.2109,-3.2193,-3.2386,-3.2519,-3.2712,-3.2881,-3.3026,-3.3123,-3.3243,-3.3304,-3.334,-3.3352,-3.3364,-3.3364,-3.3364,-3.3364,-3.3364,-3.3364,-3.3364,-3.3364,-3.3376,-3.3364,-3.3588,-3.3824,-3.4048,-3.4718,-3.5387,-1.6083,-1.6083,-1.6083,-1.6083,-1.6083,-1.6083,-1.6083,-1.6096,-1.6151,-1.6185,-1.6185,-1.6198,-1.6266,-1.6415,-1.6469,-1.6524,-1.6632,-1.67,-1.6781,-1.6836,-1.6849,-1.6897,-1.6958,-1.6978,-1.6965,-1.6978,-1.6978,-1.6971,-1.6978,-1.6978,-1.6978,-1.6978,-1.6978,-1.6978,-1.6978,-1.6978,-1.6978,-1.6978,-1.6978,-1.6985,-1.6985,-1.7405,-1.7657,-1.7925,-1.8419,-1.8954,-1.9348,-1.9745,-2.0264,-2.0786,-2.1116,-2.1798,-2.2253,-2.2918,-2.3574,-2.4446,-2.5317,-2.6196,-2.7053,-2.7702,-2.8145,-2.836,-2.8576,-2.9007,-2.9641,-3.0285,-3.094,-3.138,-3.1807,-3.1807,-3.1807,-3.1807,-3.1807,-3.1807,-3.1807,-3.1807,-3.1807,-3.1807,-3.1807,-3.1807,-3.1807,-3.1807,-3.1807,-3.1807,-3.1819,-3.1855,-3.1855,-3.2085,-3.2266,-3.2435,-3.2628,-3.2785,-3.2954,-3.3099,-3.3207,-3.3255,-3.3328,-3.3364,-3.3364,-3.3364,-3.3364,-3.3364,-3.3364,-3.3364,-3.3364,-3.3364,-3.3364,-3.3364,-3.3364,-3.3376,-3.3364,-3.36,-3.3824,-3.4048,-3.4718,-1.6083,-1.6083,-1.6083,-1.6083,-1.6083,-1.6083,-1.6096,-1.6137,-1.6252,-1.6334,-1.6374,-1.6381,-1.6449,-1.6564,-1.6673,-1.6734,-1.6795,-1.6856,-1.6944,-1.6958,-1.6958,-1.6965,-1.6965,-1.6978,-1.6978,-1.6978,-1.6978,-1.6978,-1.6978,-1.6978,-1.6978,-1.6978,-1.6978,-1.6978,-1.6978,-1.6978,-1.6978,-1.6978,-1.6985,-1.6998,-1.6998,-1.7012,-1.7298,-1.7798,-1.7896,-1.8467,-1.908,-1.9431,-1.9506,-1.9777,-2.0278,-2.0725,-2.1384,-2.2042,-2.2918,-2.3792,-2.4664,-2.5535,-2.6403,-2.728,-2.7929,-2.8145,-2.836,-2.8576,-2.9211,-2.9856,-3.0726,-3.1166,-3.1593,-3.1807,-3.1807,-3.1807,-3.1807,-3.1807,-3.1807,-3.1807,-3.1807,-3.1807,-3.1807,-3.1807,-3.1807,-3.1807,-3.1807,-3.1807,-3.1855,-3.1891,-3.206,-3.2326,-3.2555,-3.27,-3.2869,-3.3002,-3.3135,-3.3255,-3.334,-3.3352,-3.3364,-3.3364,-3.3364,-3.3364,-3.3364,-3.3364,-3.3364,-3.3364,-3.3364,-3.3364,-3.3364,-3.3364,-3.3364,-3.3364,-3.3364,-3.3364,-3.36,-3.3824,-3.4048,-1.6083,-1.6083,-1.6083,-1.6083,-1.6083,-1.6083,-1.6151,-1.6259,-1.63,-1.6435,-1.6605,-1.6659,-1.6686,-1.6707,-1.6727,-1.6795,-1.6904,-1.6971,-1.6971,-1.6978,-1.6978,-1.6978,-1.6978,-1.6978,-1.6978,-1.6978,-1.6978,-1.6978,-1.6978,-1.6978,-1.6978,-1.6978,-1.6978,-1.6978,-1.6978,-1.6978,-1.6978,-1.6985,-1.7012,-1.7039,-1.7134,-1.7148,-1.7154,-1.7483,-1.7655,-1.7982,-1.8537,-1.8863,-1.9148,-1.9405,-1.9632,-2.0073,-2.0505,-2.1164,-2.2042,-2.3137,-2.401,-2.51,-2.6196,-2.6837,-2.7486,-2.8145,-2.836,-2.8576,-2.9222,-2.9641,-3.0511,-3.094,-3.1368,-3.1807,-3.1807,-3.1807,-3.1807,-3.1807,-3.1807,-3.1807,-3.1807,-3.1807,-3.1807,-3.1807,-3.1807,-3.1807,-3.1807,-3.1843,-3.1928,-3.2,-3.2145,-3.241,-3.2773,-3.2942,-3.3099,-3.3183,-3.328,-3.3328,-3.3364,-3.3364,-3.3364,-3.3364,-3.3364,-3.3364,-3.3364,-3.3364,-3.3364,-3.3364,-3.3364,-3.3364,-3.3364,-3.3364,-3.3364,-3.3364,-3.3364,-3.3376,-3.3364,-3.36,-3.3824]}]]